Missouri River (Missouri), Waverly (06895500)

StateMissouriLatestUnknown (80600 cfs)
RiverMissouri RiverRatingObservedEstimated
Updated2020-08-11 19:00 (38 minutes ago)Flood - The river is flooding. Obstacles can be treacherous or deadly. The river should be avoided at this stage for casual trips and definitely for the inexperienced. Trips should be attempted only with protective gear and equipment.Flood(none)(none)
Discharge80600 cfs (median: 51200 cfs)High - The river is high and potentially dangerous, especially for the young and / or inexperienced. Normal stream obstacles are sometimes difficult to navigate. Extended distances can be attempted, but canoe travel may not be advisable.High(none)(none)
Height16.45 feetGood - Conditions are ideal for a canoe or kayak. Boats typically will drag on fewer than one-quarter of riffles, if at all, and portages are unnecessary or rare. Normal float lengths can be attempted without a problem.Good(none)(none)
TrendFalling (falling over 24 hours)Low - River is low but can still be floated. Some riffles are okay but most come with significant dragging and might need a portage. Float lengths should be reduced to accommodate low flow, dragging, and portages.Low(none)(none)
USGSExternal icon USGS Site (External icon Google Maps)Poor - River is too low to float comfortably. Most or all riffles will drag or must be portaged and some obstacles (such as slick shelf rock) cause undue problems. Avoid the river at this stage for casual paddling trips.Poor(none)(none)

Trending Data

Plot Image

Trips for Missouri River (Missouri), Waverly (06895500)

DateStartEndDistanceConditionDischargeHeightFishingDetails

A total of 0 rows are displayed.

Condition Descriptions

Fishing Conditions

Fish Species

Notes

Classic Trip List

The classic River Trips application is still available for use. It is updated with the new system using a data retrofit. It is no longer maintained. The original River Trips application is no longer updated (as of 1 Dec 2016) but can be checked for errors or for the condition of the data before it was converted to the new system.

Gauge Data Table

ObservationHeightDischargeMaximum
Discharge
Minimum
Discharge
Mean
Discharge
P05P10P20P25P50
(Median)
P75P80P90P95
2020-08-11 19:00 16.45 80600 196000 (2011) 34100 (2002) 62200 34500 35800 41300 41900 51200 74600 77900 107000 134000
2020-08-11 18:00 16.49 80900 196000 (2011) 34100 (2002) 62200 34500 35800 41300 41900 51200 74600 77900 107000 134000
2020-08-11 17:00 16.54 81300 196000 (2011) 34100 (2002) 62200 34500 35800 41300 41900 51200 74600 77900 107000 134000
2020-08-11 16:00 16.49 80900 196000 (2011) 34100 (2002) 62200 34500 35800 41300 41900 51200 74600 77900 107000 134000
2020-08-11 15:00 16.56 81400 196000 (2011) 34100 (2002) 62200 34500 35800 41300 41900 51200 74600 77900 107000 134000
2020-08-11 14:00 16.52 81100 196000 (2011) 34100 (2002) 62200 34500 35800 41300 41900 51200 74600 77900 107000 134000
2020-08-11 13:00 16.56 81400 196000 (2011) 34100 (2002) 62200 34500 35800 41300 41900 51200 74600 77900 107000 134000
2020-08-11 12:00 16.58 81600 196000 (2011) 34100 (2002) 62200 34500 35800 41300 41900 51200 74600 77900 107000 134000
2020-08-11 11:00 16.58 81600 196000 (2011) 34100 (2002) 62200 34500 35800 41300 41900 51200 74600 77900 107000 134000
2020-08-11 10:00 16.61 81800 196000 (2011) 34100 (2002) 62200 34500 35800 41300 41900 51200 74600 77900 107000 134000
2020-08-11 09:00 16.63 81900 196000 (2011) 34100 (2002) 62200 34500 35800 41300 41900 51200 74600 77900 107000 134000
2020-08-11 08:00 16.66 82200 196000 (2011) 34100 (2002) 62200 34500 35800 41300 41900 51200 74600 77900 107000 134000
2020-08-11 07:00 16.66 82200 196000 (2011) 34100 (2002) 62200 34500 35800 41300 41900 51200 74600 77900 107000 134000
2020-08-11 06:00 16.68 82300 196000 (2011) 34100 (2002) 62200 34500 35800 41300 41900 51200 74600 77900 107000 134000
2020-08-11 05:00 16.71 82500 196000 (2011) 34100 (2002) 62200 34500 35800 41300 41900 51200 74600 77900 107000 134000
2020-08-11 04:00 16.73 82700 196000 (2011) 34100 (2002) 62200 34500 35800 41300 41900 51200 74600 77900 107000 134000
2020-08-11 03:00 16.69 82400 196000 (2011) 34100 (2002) 62200 34500 35800 41300 41900 51200 74600 77900 107000 134000
2020-08-11 02:00 16.75 82800 196000 (2011) 34100 (2002) 62200 34500 35800 41300 41900 51200 74600 77900 107000 134000
2020-08-11 01:00 16.77 83000 196000 (2011) 34100 (2002) 62200 34500 35800 41300 41900 51200 74600 77900 107000 134000
2020-08-11 00:00 16.76 82900 196000 (2011) 34100 (2002) 62200 34500 35800 41300 41900 51200 74600 77900 107000 134000
2020-08-10 23:00 16.75 82800 198000 (2011) 33400 (2002) 61900 34600 36800 41200 42500 52200 68000 72500 109000 137000
2020-08-10 22:00 16.79 83200 198000 (2011) 33400 (2002) 61900 34600 36800 41200 42500 52200 68000 72500 109000 137000
2020-08-10 21:00 16.81 83300 198000 (2011) 33400 (2002) 61900 34600 36800 41200 42500 52200 68000 72500 109000 137000
2020-08-10 20:00 16.83 83500 198000 (2011) 33400 (2002) 61900 34600 36800 41200 42500 52200 68000 72500 109000 137000
2020-08-10 19:00 16.85 83600 198000 (2011) 33400 (2002) 61900 34600 36800 41200 42500 52200 68000 72500 109000 137000
2020-08-10 18:00 16.86 83700 198000 (2011) 33400 (2002) 61900 34600 36800 41200 42500 52200 68000 72500 109000 137000
2020-08-10 17:00 16.83 83500 198000 (2011) 33400 (2002) 61900 34600 36800 41200 42500 52200 68000 72500 109000 137000
2020-08-10 16:00 16.90 84000 198000 (2011) 33400 (2002) 61900 34600 36800 41200 42500 52200 68000 72500 109000 137000
2020-08-10 15:00 16.97 84500 198000 (2011) 33400 (2002) 61900 34600 36800 41200 42500 52200 68000 72500 109000 137000
2020-08-10 14:00 17.00 84800 198000 (2011) 33400 (2002) 61900 34600 36800 41200 42500 52200 68000 72500 109000 137000
2020-08-10 13:00 16.96 84400 198000 (2011) 33400 (2002) 61900 34600 36800 41200 42500 52200 68000 72500 109000 137000
2020-08-10 12:00 17.03 85000 198000 (2011) 33400 (2002) 61900 34600 36800 41200 42500 52200 68000 72500 109000 137000
2020-08-10 11:00 17.08 85400 198000 (2011) 33400 (2002) 61900 34600 36800 41200 42500 52200 68000 72500 109000 137000
2020-08-10 10:00 17.13 85800 198000 (2011) 33400 (2002) 61900 34600 36800 41200 42500 52200 68000 72500 109000 137000
2020-08-10 09:00 17.15 85900 198000 (2011) 33400 (2002) 61900 34600 36800 41200 42500 52200 68000 72500 109000 137000
2020-08-10 08:00 17.17 86100 198000 (2011) 33400 (2002) 61900 34600 36800 41200 42500 52200 68000 72500 109000 137000
2020-08-10 07:00 17.21 86400 198000 (2011) 33400 (2002) 61900 34600 36800 41200 42500 52200 68000 72500 109000 137000
2020-08-10 06:00 17.24 86600 198000 (2011) 33400 (2002) 61900 34600 36800 41200 42500 52200 68000 72500 109000 137000
2020-08-10 05:00 17.25 86700 198000 (2011) 33400 (2002) 61900 34600 36800 41200 42500 52200 68000 72500 109000 137000
2020-08-10 04:00 17.27 86900 198000 (2011) 33400 (2002) 61900 34600 36800 41200 42500 52200 68000 72500 109000 137000
2020-08-10 03:00 17.30 87100 198000 (2011) 33400 (2002) 61900 34600 36800 41200 42500 52200 68000 72500 109000 137000
2020-08-10 02:00 17.31 87200 198000 (2011) 33400 (2002) 61900 34600 36800 41200 42500 52200 68000 72500 109000 137000
2020-08-10 01:00 17.32 87200 198000 (2011) 33400 (2002) 61900 34600 36800 41200 42500 52200 68000 72500 109000 137000
2020-08-10 00:00 17.30 87100 198000 (2011) 33400 (2002) 61900 34600 36800 41200 42500 52200 68000 72500 109000 137000
2020-08-09 23:00 17.30 87100 200000 (2011) 31300 (2002) 61900 34700 36400 40900 42400 53700 67300 75500 95500 139000
2020-08-09 22:00 17.27 86900 200000 (2011) 31300 (2002) 61900 34700 36400 40900 42400 53700 67300 75500 95500 139000
2020-08-09 21:00 17.25 86700 200000 (2011) 31300 (2002) 61900 34700 36400 40900 42400 53700 67300 75500 95500 139000
2020-08-09 20:00 17.23 86500 200000 (2011) 31300 (2002) 61900 34700 36400 40900 42400 53700 67300 75500 95500 139000
2020-08-09 19:00 17.21 86400 200000 (2011) 31300 (2002) 61900 34700 36400 40900 42400 53700 67300 75500 95500 139000
2020-08-09 18:00 17.19 86200 200000 (2011) 31300 (2002) 61900 34700 36400 40900 42400 53700 67300 75500 95500 139000
2020-08-09 17:00 17.12 85700 200000 (2011) 31300 (2002) 61900 34700 36400 40900 42400 53700 67300 75500 95500 139000
2020-08-09 16:00 17.12 85700 200000 (2011) 31300 (2002) 61900 34700 36400 40900 42400 53700 67300 75500 95500 139000
2020-08-09 15:00 17.13 85800 200000 (2011) 31300 (2002) 61900 34700 36400 40900 42400 53700 67300 75500 95500 139000
2020-08-09 14:00 17.08 85400 200000 (2011) 31300 (2002) 61900 34700 36400 40900 42400 53700 67300 75500 95500 139000
2020-08-09 13:00 16.97 84500 200000 (2011) 31300 (2002) 61900 34700 36400 40900 42400 53700 67300 75500 95500 139000
2020-08-09 12:00 16.94 84300 200000 (2011) 31300 (2002) 61900 34700 36400 40900 42400 53700 67300 75500 95500 139000
2020-08-09 11:00 17.01 84800 200000 (2011) 31300 (2002) 61900 34700 36400 40900 42400 53700 67300 75500 95500 139000
2020-08-09 10:00 17.00 84800 200000 (2011) 31300 (2002) 61900 34700 36400 40900 42400 53700 67300 75500 95500 139000
2020-08-09 09:00 16.90 84000 200000 (2011) 31300 (2002) 61900 34700 36400 40900 42400 53700 67300 75500 95500 139000
2020-08-09 08:00 16.85 83600 200000 (2011) 31300 (2002) 61900 34700 36400 40900 42400 53700 67300 75500 95500 139000
2020-08-09 07:00 16.89 83900 200000 (2011) 31300 (2002) 61900 34700 36400 40900 42400 53700 67300 75500 95500 139000
2020-08-09 06:00 16.84 83500 200000 (2011) 31300 (2002) 61900 34700 36400 40900 42400 53700 67300 75500 95500 139000
2020-08-09 05:00 16.86 83700 200000 (2011) 31300 (2002) 61900 34700 36400 40900 42400 53700 67300 75500 95500 139000
2020-08-09 04:00 16.81 83300 200000 (2011) 31300 (2002) 61900 34700 36400 40900 42400 53700 67300 75500 95500 139000
2020-08-09 03:00 16.76 82900 200000 (2011) 31300 (2002) 61900 34700 36400 40900 42400 53700 67300 75500 95500 139000
2020-08-09 02:00 16.78 83100 200000 (2011) 31300 (2002) 61900 34700 36400 40900 42400 53700 67300 75500 95500 139000
2020-08-09 01:00 16.78 83100 200000 (2011) 31300 (2002) 61900 34700 36400 40900 42400 53700 67300 75500 95500 139000
2020-08-09 00:00 16.74 82800 200000 (2011) 31300 (2002) 61900 34700 36400 40900 42400 53700 67300 75500 95500 139000
2020-08-08 23:00 16.71 82500 202000 (2011) 30600 (2002) 61900 34900 35500 41100 41900 52800 67300 72400 91000 139000
2020-08-08 22:00 16.62 81900 202000 (2011) 30600 (2002) 61900 34900 35500 41100 41900 52800 67300 72400 91000 139000
2020-08-08 21:00 16.55 81300 202000 (2011) 30600 (2002) 61900 34900 35500 41100 41900 52800 67300 72400 91000 139000
2020-08-08 20:00 16.55 81300 202000 (2011) 30600 (2002) 61900 34900 35500 41100 41900 52800 67300 72400 91000 139000
2020-08-08 19:00 16.48 80800 202000 (2011) 30600 (2002) 61900 34900 35500 41100 41900 52800 67300 72400 91000 139000
2020-08-08 18:00 16.44 80500 202000 (2011) 30600 (2002) 61900 34900 35500 41100 41900 52800 67300 72400 91000 139000
2020-08-08 17:00 16.44 80500 202000 (2011) 30600 (2002) 61900 34900 35500 41100 41900 52800 67300 72400 91000 139000
2020-08-08 16:00 16.35 79900 202000 (2011) 30600 (2002) 61900 34900 35500 41100 41900 52800 67300 72400 91000 139000
2020-08-08 15:00 16.35 79900 202000 (2011) 30600 (2002) 61900 34900 35500 41100 41900 52800 67300 72400 91000 139000
2020-08-08 14:00 16.30 79500 202000 (2011) 30600 (2002) 61900 34900 35500 41100 41900 52800 67300 72400 91000 139000
2020-08-08 13:00 16.25 79100 202000 (2011) 30600 (2002) 61900 34900 35500 41100 41900 52800 67300 72400 91000 139000
2020-08-08 12:00 16.27 79300 202000 (2011) 30600 (2002) 61900 34900 35500 41100 41900 52800 67300 72400 91000 139000
2020-08-08 11:00 16.19 78700 202000 (2011) 30600 (2002) 61900 34900 35500 41100 41900 52800 67300 72400 91000 139000
2020-08-08 10:00 16.23 79000 202000 (2011) 30600 (2002) 61900 34900 35500 41100 41900 52800 67300 72400 91000 139000
2020-08-08 09:00 16.20 78700 202000 (2011) 30600 (2002) 61900 34900 35500 41100 41900 52800 67300 72400 91000 139000
2020-08-08 08:00 16.25 79100 202000 (2011) 30600 (2002) 61900 34900 35500 41100 41900 52800 67300 72400 91000 139000
2020-08-08 07:00 16.28 79300 202000 (2011) 30600 (2002) 61900 34900 35500 41100 41900 52800 67300 72400 91000 139000
2020-08-08 06:00 16.27 79300 202000 (2011) 30600 (2002) 61900 34900 35500 41100 41900 52800 67300 72400 91000 139000
2020-08-08 05:00 16.23 79000 202000 (2011) 30600 (2002) 61900 34900 35500 41100 41900 52800 67300 72400 91000 139000
2020-08-08 04:00 16.21 78800 202000 (2011) 30600 (2002) 61900 34900 35500 41100 41900 52800 67300 72400 91000 139000
2020-08-08 03:00 16.22 78900 202000 (2011) 30600 (2002) 61900 34900 35500 41100 41900 52800 67300 72400 91000 139000
2020-08-08 02:00 16.24 79000 202000 (2011) 30600 (2002) 61900 34900 35500 41100 41900 52800 67300 72400 91000 139000
2020-08-08 01:00 16.24 79000 202000 (2011) 30600 (2002) 61900 34900 35500 41100 41900 52800 67300 72400 91000 139000
2020-08-08 00:00 16.22 78900 202000 (2011) 30600 (2002) 61900 34900 35500 41100 41900 52800 67300 72400 91000 139000
2020-08-07 23:00 16.24 79000 203000 (2011) 30400 (2002) 62000 35000 35600 40900 42300 53800 70100 74500 85400 134000
2020-08-07 22:00 16.23 79000 203000 (2011) 30400 (2002) 62000 35000 35600 40900 42300 53800 70100 74500 85400 134000
2020-08-07 21:00 16.18 78600 203000 (2011) 30400 (2002) 62000 35000 35600 40900 42300 53800 70100 74500 85400 134000
2020-08-07 20:00 16.16 78500 203000 (2011) 30400 (2002) 62000 35000 35600 40900 42300 53800 70100 74500 85400 134000
2020-08-07 19:00 16.13 78200 203000 (2011) 30400 (2002) 62000 35000 35600 40900 42300 53800 70100 74500 85400 134000
2020-08-07 18:00 16.16 78500 203000 (2011) 30400 (2002) 62000 35000 35600 40900 42300 53800 70100 74500 85400 134000
2020-08-07 17:00 16.15 78400 203000 (2011) 30400 (2002) 62000 35000 35600 40900 42300 53800 70100 74500 85400 134000
2020-08-07 16:00 16.21 78800 203000 (2011) 30400 (2002) 62000 35000 35600 40900 42300 53800 70100 74500 85400 134000
2020-08-07 15:00 16.21 78800 203000 (2011) 30400 (2002) 62000 35000 35600 40900 42300 53800 70100 74500 85400 134000
2020-08-07 14:00 16.15 78400 203000 (2011) 30400 (2002) 62000 35000 35600 40900 42300 53800 70100 74500 85400 134000
2020-08-07 13:00 16.13 78200 203000 (2011) 30400 (2002) 62000 35000 35600 40900 42300 53800 70100 74500 85400 134000
2020-08-07 12:00 16.19 78700 203000 (2011) 30400 (2002) 62000 35000 35600 40900 42300 53800 70100 74500 85400 134000
2020-08-07 11:00 16.20 78700 203000 (2011) 30400 (2002) 62000 35000 35600 40900 42300 53800 70100 74500 85400 134000
2020-08-07 10:00 16.16 78500 203000 (2011) 30400 (2002) 62000 35000 35600 40900 42300 53800 70100 74500 85400 134000
2020-08-07 09:00 16.18 78600 203000 (2011) 30400 (2002) 62000 35000 35600 40900 42300 53800 70100 74500 85400 134000
2020-08-07 08:00 16.13 78200 203000 (2011) 30400 (2002) 62000 35000 35600 40900 42300 53800 70100 74500 85400 134000
2020-08-07 07:00 16.14 78300 203000 (2011) 30400 (2002) 62000 35000 35600 40900 42300 53800 70100 74500 85400 134000
2020-08-07 06:00 16.18 78600 203000 (2011) 30400 (2002) 62000 35000 35600 40900 42300 53800 70100 74500 85400 134000
2020-08-07 05:00 16.17 78500 203000 (2011) 30400 (2002) 62000 35000 35600 40900 42300 53800 70100 74500 85400 134000
2020-08-07 04:00 16.17 78500 203000 (2011) 30400 (2002) 62000 35000 35600 40900 42300 53800 70100 74500 85400 134000
2020-08-07 03:00 16.20 78700 203000 (2011) 30400 (2002) 62000 35000 35600 40900 42300 53800 70100 74500 85400 134000
2020-08-07 02:00 16.18 78600 203000 (2011) 30400 (2002) 62000 35000 35600 40900 42300 53800 70100 74500 85400 134000
2020-08-07 01:00 16.14 78300 203000 (2011) 30400 (2002) 62000 35000 35600 40900 42300 53800 70100 74500 85400 134000
2020-08-07 00:00 16.14 78300 203000 (2011) 30400 (2002) 62000 35000 35600 40900 42300 53800 70100 74500 85400 134000
2020-08-06 23:00 16.15 78400 205000 (1993) 30400 (2002) 62700 35100 35500 41000 43000 53000 72000 76200 83300 130000
2020-08-06 22:00 16.15 78400 205000 (1993) 30400 (2002) 62700 35100 35500 41000 43000 53000 72000 76200 83300 130000
2020-08-06 21:00 16.18 78600 205000 (1993) 30400 (2002) 62700 35100 35500 41000 43000 53000 72000 76200 83300 130000
2020-08-06 20:00 16.21 78800 205000 (1993) 30400 (2002) 62700 35100 35500 41000 43000 53000 72000 76200 83300 130000
2020-08-06 19:00 16.16 78500 205000 (1993) 30400 (2002) 62700 35100 35500 41000 43000 53000 72000 76200 83300 130000
2020-08-06 18:00 16.11 78100 205000 (1993) 30400 (2002) 62700 35100 35500 41000 43000 53000 72000 76200 83300 130000
2020-08-06 17:00 16.07 77800 205000 (1993) 30400 (2002) 62700 35100 35500 41000 43000 53000 72000 76200 83300 130000
2020-08-06 16:00 16.14 76100 205000 (1993) 30400 (2002) 62700 35100 35500 41000 43000 53000 72000 76200 83300 130000
2020-08-06 15:00 16.18 76400 205000 (1993) 30400 (2002) 62700 35100 35500 41000 43000 53000 72000 76200 83300 130000
2020-08-06 14:00 16.17 76400 205000 (1993) 30400 (2002) 62700 35100 35500 41000 43000 53000 72000 76200 83300 130000
2020-08-06 13:00 16.16 76300 205000 (1993) 30400 (2002) 62700 35100 35500 41000 43000 53000 72000 76200 83300 130000
2020-08-06 12:00 16.19 76500 205000 (1993) 30400 (2002) 62700 35100 35500 41000 43000 53000 72000 76200 83300 130000
2020-08-06 11:00 16.18 76400 205000 (1993) 30400 (2002) 62700 35100 35500 41000 43000 53000 72000 76200 83300 130000
2020-08-06 10:00 16.10 75900 205000 (1993) 30400 (2002) 62700 35100 35500 41000 43000 53000 72000 76200 83300 130000
2020-08-06 09:00 16.08 75700 205000 (1993) 30400 (2002) 62700 35100 35500 41000 43000 53000 72000 76200 83300 130000
2020-08-06 08:00 16.12 76000 205000 (1993) 30400 (2002) 62700 35100 35500 41000 43000 53000 72000 76200 83300 130000
2020-08-06 07:00 16.04 75400 205000 (1993) 30400 (2002) 62700 35100 35500 41000 43000 53000 72000 76200 83300 130000
2020-08-06 06:00 16.05 75500 205000 (1993) 30400 (2002) 62700 35100 35500 41000 43000 53000 72000 76200 83300 130000
2020-08-06 05:00 15.99 75100 205000 (1993) 30400 (2002) 62700 35100 35500 41000 43000 53000 72000 76200 83300 130000
2020-08-06 04:00 15.98 75000 205000 (1993) 30400 (2002) 62700 35100 35500 41000 43000 53000 72000 76200 83300 130000
2020-08-06 03:00 15.95 74800 205000 (1993) 30400 (2002) 62700 35100 35500 41000 43000 53000 72000 76200 83300 130000
2020-08-06 02:00 15.96 74900 205000 (1993) 30400 (2002) 62700 35100 35500 41000 43000 53000 72000 76200 83300 130000
2020-08-06 01:00 15.90 74400 205000 (1993) 30400 (2002) 62700 35100 35500 41000 43000 53000 72000 76200 83300 130000
2020-08-06 00:00 15.85 74100 205000 (1993) 30400 (2002) 62700 35100 35500 41000 43000 53000 72000 76200 83300 130000
2020-08-05 23:00 15.85 74100 220000 (1993) 30600 (2002) 63200 34900 36200 40600 43100 53000 75400 78600 82700 129000
2020-08-05 22:00 15.85 74100 220000 (1993) 30600 (2002) 63200 34900 36200 40600 43100 53000 75400 78600 82700 129000
2020-08-05 21:00 15.82 73900 220000 (1993) 30600 (2002) 63200 34900 36200 40600 43100 53000 75400 78600 82700 129000
2020-08-05 20:00 15.77 73500 220000 (1993) 30600 (2002) 63200 34900 36200 40600 43100 53000 75400 78600 82700 129000
2020-08-05 19:00 15.75 73400 220000 (1993) 30600 (2002) 63200 34900 36200 40600 43100 53000 75400 78600 82700 129000
2020-08-05 18:00 15.70 73000 220000 (1993) 30600 (2002) 63200 34900 36200 40600 43100 53000 75400 78600 82700 129000
2020-08-05 17:00 15.72 73200 220000 (1993) 30600 (2002) 63200 34900 36200 40600 43100 53000 75400 78600 82700 129000
2020-08-05 16:00 15.74 73300 220000 (1993) 30600 (2002) 63200 34900 36200 40600 43100 53000 75400 78600 82700 129000
2020-08-05 15:00 15.75 73400 220000 (1993) 30600 (2002) 63200 34900 36200 40600 43100 53000 75400 78600 82700 129000
2020-08-05 14:00 15.77 73500 220000 (1993) 30600 (2002) 63200 34900 36200 40600 43100 53000 75400 78600 82700 129000
2020-08-05 13:00 15.78 73600 220000 (1993) 30600 (2002) 63200 34900 36200 40600 43100 53000 75400 78600 82700 129000
2020-08-05 12:00 15.74 73300 220000 (1993) 30600 (2002) 63200 34900 36200 40600 43100 53000 75400 78600 82700 129000
2020-08-05 11:00 15.78 73600 220000 (1993) 30600 (2002) 63200 34900 36200 40600 43100 53000 75400 78600 82700 129000
2020-08-05 10:00 15.79 73700 220000 (1993) 30600 (2002) 63200 34900 36200 40600 43100 53000 75400 78600 82700 129000
2020-08-05 09:00 15.76 73500 220000 (1993) 30600 (2002) 63200 34900 36200 40600 43100 53000 75400 78600 82700 129000
2020-08-05 08:00 15.81 73800 220000 (1993) 30600 (2002) 63200 34900 36200 40600 43100 53000 75400 78600 82700 129000
2020-08-05 07:00 15.83 73900 220000 (1993) 30600 (2002) 63200 34900 36200 40600 43100 53000 75400 78600 82700 129000
2020-08-05 06:00 15.86 74200 220000 (1993) 30600 (2002) 63200 34900 36200 40600 43100 53000 75400 78600 82700 129000
2020-08-05 05:00 15.87 74200 220000 (1993) 30600 (2002) 63200 34900 36200 40600 43100 53000 75400 78600 82700 129000
2020-08-05 04:00 15.88 74300 220000 (1993) 30600 (2002) 63200 34900 36200 40600 43100 53000 75400 78600 82700 129000
2020-08-05 03:00 15.91 74500 220000 (1993) 30600 (2002) 63200 34900 36200 40600 43100 53000 75400 78600 82700 129000
2020-08-05 02:00 15.92 74600 220000 (1993) 30600 (2002) 63200 34900 36200 40600 43100 53000 75400 78600 82700 129000
2020-08-05 01:00 15.93 74600 220000 (1993) 30600 (2002) 63200 34900 36200 40600 43100 53000 75400 78600 82700 129000
2020-08-05 00:00 15.95 74800 220000 (1993) 30600 (2002) 63200 34900 36200 40600 43100 53000 75400 78600 82700 129000
2020-08-04 23:00 15.98 75000 242000 (1993) 30900 (2002) 64600 34600 37000 40700 43600 51600 76300 81000 95900 134000
2020-08-04 22:00 16.00 75100 242000 (1993) 30900 (2002) 64600 34600 37000 40700 43600 51600 76300 81000 95900 134000
2020-08-04 21:00 16.04 75400 242000 (1993) 30900 (2002) 64600 34600 37000 40700 43600 51600 76300 81000 95900 134000
2020-08-04 20:00 16.05 75500 242000 (1993) 30900 (2002) 64600 34600 37000 40700 43600 51600 76300 81000 95900 134000
2020-08-04 19:00 16.03 75400 242000 (1993) 30900 (2002) 64600 34600 37000 40700 43600 51600 76300 81000 95900 134000
2020-08-04 18:00 16.15 76200 242000 (1993) 30900 (2002) 64600 34600 37000 40700 43600 51600 76300 81000 95900 134000
2020-08-04 17:00 16.18 76400 242000 (1993) 30900 (2002) 64600 34600 37000 40700 43600 51600 76300 81000 95900 134000
2020-08-04 16:00 16.18 76400 242000 (1993) 30900 (2002) 64600 34600 37000 40700 43600 51600 76300 81000 95900 134000
2020-08-04 15:00 16.27 77100 242000 (1993) 30900 (2002) 64600 34600 37000 40700 43600 51600 76300 81000 95900 134000
2020-08-04 14:00 16.31 77400 242000 (1993) 30900 (2002) 64600 34600 37000 40700 43600 51600 76300 81000 95900 134000
2020-08-04 13:00 16.23 76800 242000 (1993) 30900 (2002) 64600 34600 37000 40700 43600 51600 76300 81000 95900 134000
2020-08-04 12:00 16.34 77600 242000 (1993) 30900 (2002) 64600 34600 37000 40700 43600 51600 76300 81000 95900 134000
2020-08-04 11:00 16.38 77900 242000 (1993) 30900 (2002) 64600 34600 37000 40700 43600 51600 76300 81000 95900 134000
2020-08-04 10:00 16.45 78400 242000 (1993) 30900 (2002) 64600 34600 37000 40700 43600 51600 76300 81000 95900 134000
2020-08-04 09:00 16.48 78600 242000 (1993) 30900 (2002) 64600 34600 37000 40700 43600 51600 76300 81000 95900 134000
2020-08-04 08:00 16.52 78900 242000 (1993) 30900 (2002) 64600 34600 37000 40700 43600 51600 76300 81000 95900 134000
2020-08-04 07:00 16.57 79300 242000 (1993) 30900 (2002) 64600 34600 37000 40700 43600 51600 76300 81000 95900 134000
2020-08-04 06:00 16.60 79500 242000 (1993) 30900 (2002) 64600 34600 37000 40700 43600 51600 76300 81000 95900 134000
2020-08-04 05:00 16.66 79900 242000 (1993) 30900 (2002) 64600 34600 37000 40700 43600 51600 76300 81000 95900 134000
2020-08-04 04:00 16.71 80300 242000 (1993) 30900 (2002) 64600 34600 37000 40700 43600 51600 76300 81000 95900 134000
2020-08-04 03:00 16.76 80700 242000 (1993) 30900 (2002) 64600 34600 37000 40700 43600 51600 76300 81000 95900 134000
2020-08-04 02:00 16.81 81000 242000 (1993) 30900 (2002) 64600 34600 37000 40700 43600 51600 76300 81000 95900 134000
2020-08-04 01:00 16.87 81500 242000 (1993) 30900 (2002) 64600 34600 37000 40700 43600 51600 76300 81000 95900 134000
2020-08-04 00:00 16.92 81900 242000 (1993) 30900 (2002) 64600 34600 37000 40700 43600 51600 76300 81000 95900 134000
2020-08-03 23:00 17.00 82500 267000 (1993) 31400 (2002) 65500 34400 36900 41800 42700 52300 75300 80200 99800 145000
2020-08-03 22:00 17.05 82800 267000 (1993) 31400 (2002) 65500 34400 36900 41800 42700 52300 75300 80200 99800 145000
2020-08-03 21:00 17.13 83500 267000 (1993) 31400 (2002) 65500 34400 36900 41800 42700 52300 75300 80200 99800 145000
2020-08-03 20:00 17.18 83800 267000 (1993) 31400 (2002) 65500 34400 36900 41800 42700 52300 75300 80200 99800 145000
2020-08-03 19:00 17.26 84400 267000 (1993) 31400 (2002) 65500 34400 36900 41800 42700 52300 75300 80200 99800 145000
2020-08-03 18:00 17.33 85000 267000 (1993) 31400 (2002) 65500 34400 36900 41800 42700 52300 75300 80200 99800 145000
2020-08-03 17:00 17.40 85500 267000 (1993) 31400 (2002) 65500 34400 36900 41800 42700 52300 75300 80200 99800 145000
2020-08-03 16:00 17.45 85900 267000 (1993) 31400 (2002) 65500 34400 36900 41800 42700 52300 75300 80200 99800 145000
2020-08-03 15:00 17.49 86200 267000 (1993) 31400 (2002) 65500 34400 36900 41800 42700 52300 75300 80200 99800 145000
2020-08-03 14:00 17.62 87200 267000 (1993) 31400 (2002) 65500 34400 36900 41800 42700 52300 75300 80200 99800 145000
2020-08-03 13:00 17.61 87200 267000 (1993) 31400 (2002) 65500 34400 36900 41800 42700 52300 75300 80200 99800 145000
2020-08-03 12:00 17.78 88500 267000 (1993) 31400 (2002) 65500 34400 36900 41800 42700 52300 75300 80200 99800 145000
2020-08-03 11:00 17.86 89100 267000 (1993) 31400 (2002) 65500 34400 36900 41800 42700 52300 75300 80200 99800 145000
2020-08-03 10:00 17.95 89900 267000 (1993) 31400 (2002) 65500 34400 36900 41800 42700 52300 75300 80200 99800 145000
2020-08-03 09:00 18.05 90700 267000 (1993) 31400 (2002) 65500 34400 36900 41800 42700 52300 75300 80200 99800 145000
2020-08-03 08:00 18.12 91200 267000 (1993) 31400 (2002) 65500 34400 36900 41800 42700 52300 75300 80200 99800 145000
2020-08-03 07:00 18.22 92100 267000 (1993) 31400 (2002) 65500 34400 36900 41800 42700 52300 75300 80200 99800 145000
2020-08-03 06:00 18.29 92600 267000 (1993) 31400 (2002) 65500 34400 36900 41800 42700 52300 75300 80200 99800 145000
2020-08-03 05:00 18.38 93400 267000 (1993) 31400 (2002) 65500 34400 36900 41800 42700 52300 75300 80200 99800 145000
2020-08-03 04:00 18.47 94100 267000 (1993) 31400 (2002) 65500 34400 36900 41800 42700 52300 75300 80200 99800 145000
2020-08-03 03:00 18.56 94900 267000 (1993) 31400 (2002) 65500 34400 36900 41800 42700 52300 75300 80200 99800 145000
2020-08-03 02:00 18.64 95500 267000 (1993) 31400 (2002) 65500 34400 36900 41800 42700 52300 75300 80200 99800 145000
2020-08-03 01:00 18.72 96200 267000 (1993) 31400 (2002) 65500 34400 36900 41800 42700 52300 75300 80200 99800 145000
2020-08-03 00:00 18.80 96900 267000 (1993) 31400 (2002) 65500 34400 36900 41800 42700 52300 75300 80200 99800 145000
2020-08-02 23:00 18.89 97600 299000 (1993) 31900 (2002) 67200 34000 36500 40500 41900 53400 72600 80700 116000 163000
2020-08-02 22:00 18.97 98300 299000 (1993) 31900 (2002) 67200 34000 36500 40500 41900 53400 72600 80700 116000 163000
2020-08-02 21:00 19.06 99100 299000 (1993) 31900 (2002) 67200 34000 36500 40500 41900 53400 72600 80700 116000 163000
2020-08-02 20:00 19.15 99900 299000 (1993) 31900 (2002) 67200 34000 36500 40500 41900 53400 72600 80700 116000 163000
2020-08-02 19:00 19.24 101000 299000 (1993) 31900 (2002) 67200 34000 36500 40500 41900 53400 72600 80700 116000 163000
2020-08-02 18:00 19.32 101000 299000 (1993) 31900 (2002) 67200 34000 36500 40500 41900 53400 72600 80700 116000 163000
2020-08-02 17:00 19.35 102000 299000 (1993) 31900 (2002) 67200 34000 36500 40500 41900 53400 72600 80700 116000 163000
2020-08-02 16:00 19.52 103000 299000 (1993) 31900 (2002) 67200 34000 36500 40500 41900 53400 72600 80700 116000 163000
2020-08-02 15:00 19.62 104000 299000 (1993) 31900 (2002) 67200 34000 36500 40500 41900 53400 72600 80700 116000 163000
2020-08-02 14:00 19.73 105000 299000 (1993) 31900 (2002) 67200 34000 36500 40500 41900 53400 72600 80700 116000 163000
2020-08-02 13:00 19.83 106000 299000 (1993) 31900 (2002) 67200 34000 36500 40500 41900 53400 72600 80700 116000 163000
2020-08-02 12:00 19.94 107000 299000 (1993) 31900 (2002) 67200 34000 36500 40500 41900 53400 72600 80700 116000 163000
2020-08-02 11:00 20.03 108000 299000 (1993) 31900 (2002) 67200 34000 36500 40500 41900 53400 72600 80700 116000 163000
2020-08-02 10:00 20.14 109000 299000 (1993) 31900 (2002) 67200 34000 36500 40500 41900 53400 72600 80700 116000 163000
2020-08-02 09:00 20.24 110000 299000 (1993) 31900 (2002) 67200 34000 36500 40500 41900 53400 72600 80700 116000 163000
2020-08-02 08:00 20.32 111000 299000 (1993) 31900 (2002) 67200 34000 36500 40500 41900 53400 72600 80700 116000 163000
2020-08-02 07:00 20.46 112000 299000 (1993) 31900 (2002) 67200 34000 36500 40500 41900 53400 72600 80700 116000 163000
2020-08-02 06:00 20.57 113000 299000 (1993) 31900 (2002) 67200 34000 36500 40500 41900 53400 72600 80700 116000 163000
2020-08-02 05:00 20.67 114000 299000 (1993) 31900 (2002) 67200 34000 36500 40500 41900 53400 72600 80700 116000 163000
2020-08-02 04:00 20.80 115000 299000 (1993) 31900 (2002) 67200 34000 36500 40500 41900 53400 72600 80700 116000 163000
2020-08-02 03:00 20.92 117000 299000 (1993) 31900 (2002) 67200 34000 36500 40500 41900 53400 72600 80700 116000 163000
2020-08-02 02:00 21.08 118000 299000 (1993) 31900 (2002) 67200 34000 36500 40500 41900 53400 72600 80700 116000 163000
2020-08-02 01:00 21.25 120000 299000 (1993) 31900 (2002) 67200 34000 36500 40500 41900 53400 72600 80700 116000 163000
2020-08-02 00:00 21.44 122000 299000 (1993) 31900 (2002) 67200 34000 36500 40500 41900 53400 72600 80700 116000 163000
2020-08-01 23:00 21.64 124000 332000 (1993) 32700 (1991) 69500 34200 36500 40200 42000 55000 72400 81100 123000 179000
2020-08-01 22:00 21.87 127000 332000 (1993) 32700 (1991) 69500 34200 36500 40200 42000 55000 72400 81100 123000 179000
2020-08-01 21:00 22.00 128000 332000 (1993) 32700 (1991) 69500 34200 36500 40200 42000 55000 72400 81100 123000 179000
2020-08-01 20:00 22.27 131000 332000 (1993) 32700 (1991) 69500 34200 36500 40200 42000 55000 72400 81100 123000 179000
2020-08-01 19:00 22.48 134000 332000 (1993) 32700 (1991) 69500 34200 36500 40200 42000 55000 72400 81100 123000 179000
2020-08-01 18:00 22.74 137000 332000 (1993) 32700 (1991) 69500 34200 36500 40200 42000 55000 72400 81100 123000 179000
2020-08-01 17:00 22.92 139000 332000 (1993) 32700 (1991) 69500 34200 36500 40200 42000 55000 72400 81100 123000 179000
2020-08-01 16:00 23.07 141000 332000 (1993) 32700 (1991) 69500 34200 36500 40200 42000 55000 72400 81100 123000 179000
2020-08-01 15:00 23.27 143000 332000 (1993) 32700 (1991) 69500 34200 36500 40200 42000 55000 72400 81100 123000 179000
2020-08-01 14:00 23.43 145000 332000 (1993) 32700 (1991) 69500 34200 36500 40200 42000 55000 72400 81100 123000 179000
2020-08-01 13:00 23.60 147000 332000 (1993) 32700 (1991) 69500 34200 36500 40200 42000 55000 72400 81100 123000 179000
2020-08-01 12:00 23.67 148000 332000 (1993) 32700 (1991) 69500 34200 36500 40200 42000 55000 72400 81100 123000 179000
2020-08-01 11:00 23.90 151000 332000 (1993) 32700 (1991) 69500 34200 36500 40200 42000 55000 72400 81100 123000 179000
2020-08-01 10:00 24.07 153000 332000 (1993) 32700 (1991) 69500 34200 36500 40200 42000 55000 72400 81100 123000 179000
2020-08-01 09:00 24.15 154000 332000 (1993) 32700 (1991) 69500 34200 36500 40200 42000 55000 72400 81100 123000 179000
2020-08-01 08:00 24.34 156000 332000 (1993) 32700 (1991) 69500 34200 36500 40200 42000 55000 72400 81100 123000 179000
2020-08-01 07:00 24.57 159000 332000 (1993) 32700 (1991) 69500 34200 36500 40200 42000 55000 72400 81100 123000 179000
2020-08-01 06:00 24.74 161000 332000 (1993) 32700 (1991) 69500 34200 36500 40200 42000 55000 72400 81100 123000 179000
2020-08-01 05:00 24.89 163000 332000 (1993) 32700 (1991) 69500 34200 36500 40200 42000 55000 72400 81100 123000 179000
2020-08-01 04:00 25.04 165000 332000 (1993) 32700 (1991) 69500 34200 36500 40200 42000 55000 72400 81100 123000 179000
2020-08-01 03:00 25.03 165000 332000 (1993) 32700 (1991) 69500 34200 36500 40200 42000 55000 72400 81100 123000 179000
2020-08-01 02:00 24.93 164000 332000 (1993) 32700 (1991) 69500 34200 36500 40200 42000 55000 72400 81100 123000 179000
2020-08-01 01:00 24.95 164000 332000 (1993) 32700 (1991) 69500 34200 36500 40200 42000 55000 72400 81100 123000 179000
2020-08-01 00:00 25.06 166000 332000 (1993) 32700 (1991) 69500 34200 36500 40200 42000 55000 72400 81100 123000 179000
2020-07-31 23:00 25.08 166000 414000 (1993) 33300 (1991) 71700 34500 36700 39800 42200 56400 73800 86200 121000 159000
2020-07-31 22:00 24.96 164000 414000 (1993) 33300 (1991) 71700 34500 36700 39800 42200 56400 73800 86200 121000 159000
2020-07-31 21:00 24.79 162000 414000 (1993) 33300 (1991) 71700 34500 36700 39800 42200 56400 73800 86200 121000 159000
2020-07-31 20:00 24.47 158000 414000 (1993) 33300 (1991) 71700 34500 36700 39800 42200 56400 73800 86200 121000 159000
2020-07-31 19:00 24.38 157000 414000 (1993) 33300 (1991) 71700 34500 36700 39800 42200 56400 73800 86200 121000 159000
2020-07-31 18:00 24.36 157000 414000 (1993) 33300 (1991) 71700 34500 36700 39800 42200 56400 73800 86200 121000 159000
2020-07-31 17:00 24.22 155000 414000 (1993) 33300 (1991) 71700 34500 36700 39800 42200 56400 73800 86200 121000 159000
2020-07-31 16:00 23.85 150000 414000 (1993) 33300 (1991) 71700 34500 36700 39800 42200 56400 73800 86200 121000 159000
2020-07-31 15:00 23.62 147000 414000 (1993) 33300 (1991) 71700 34500 36700 39800 42200 56400 73800 86200 121000 159000
2020-07-31 14:00 23.45 145000 414000 (1993) 33300 (1991) 71700 34500 36700 39800 42200 56400 73800 86200 121000 159000
2020-07-31 13:00 23.30 143000 414000 (1993) 33300 (1991) 71700 34500 36700 39800 42200 56400 73800 86200 121000 159000
2020-07-31 12:00 22.93 139000 414000 (1993) 33300 (1991) 71700 34500 36700 39800 42200 56400 73800 86200 121000 159000
2020-07-31 11:00 22.63 135000 414000 (1993) 33300 (1991) 71700 34500 36700 39800 42200 56400 73800 86200 121000 159000
2020-07-31 10:00 22.44 133000 414000 (1993) 33300 (1991) 71700 34500 36700 39800 42200 56400 73800 86200 121000 159000
2020-07-31 09:00 22.13 130000 414000 (1993) 33300 (1991) 71700 34500 36700 39800 42200 56400 73800 86200 121000 159000
2020-07-31 08:00 21.81 126000 414000 (1993) 33300 (1991) 71700 34500 36700 39800 42200 56400 73800 86200 121000 159000
2020-07-31 07:00 21.31 121000 414000 (1993) 33300 (1991) 71700 34500 36700 39800 42200 56400 73800 86200 121000 159000
2020-07-31 06:00 21.19 120000 414000 (1993) 33300 (1991) 71700 34500 36700 39800 42200 56400 73800 86200 121000 159000
2020-07-31 05:00 20.91 117000 414000 (1993) 33300 (1991) 71700 34500 36700 39800 42200 56400 73800 86200 121000 159000
2020-07-31 04:00 20.73 115000 414000 (1993) 33300 (1991) 71700 34500 36700 39800 42200 56400 73800 86200 121000 159000
2020-07-31 03:00 20.38 111000 414000 (1993) 33300 (1991) 71700 34500 36700 39800 42200 56400 73800 86200 121000 159000
2020-07-31 02:00 20.18 109000 414000 (1993) 33300 (1991) 71700 34500 36700 39800 42200 56400 73800 86200 121000 159000
2020-07-31 01:00 20.08 108000 414000 (1993) 33300 (1991) 71700 34500 36700 39800 42200 56400 73800 86200 121000 159000
2020-07-31 00:00 19.92 107000 414000 (1993) 33300 (1991) 71700 34500 36700 39800 42200 56400 73800 86200 121000 159000
2020-07-30 23:00 19.74 105000 536000 (1993) 33000 (2006) 73000 34800 37500 41200 43600 58400 79900 83300 95200 156000
2020-07-30 22:00 19.49 103000 536000 (1993) 33000 (2006) 73000 34800 37500 41200 43600 58400 79900 83300 95200 156000
2020-07-30 21:00 19.25 101000 536000 (1993) 33000 (2006) 73000 34800 37500 41200 43600 58400 79900 83300 95200 156000
2020-07-30 20:00 19.05 99000 536000 (1993) 33000 (2006) 73000 34800 37500 41200 43600 58400 79900 83300 95200 156000
2020-07-30 19:00 18.86 97400 536000 (1993) 33000 (2006) 73000 34800 37500 41200 43600 58400 79900 83300 95200 156000
2020-07-30 18:00 18.70 96000 536000 (1993) 33000 (2006) 73000 34800 37500 41200 43600 58400 79900 83300 95200 156000
2020-07-30 17:00 18.63 95400 536000 (1993) 33000 (2006) 73000 34800 37500 41200 43600 58400 79900 83300 95200 156000
2020-07-30 16:00 18.46 94000 536000 (1993) 33000 (2006) 73000 34800 37500 41200 43600 58400 79900 83300 95200 156000
2020-07-30 15:00 18.36 93200 536000 (1993) 33000 (2006) 73000 34800 37500 41200 43600 58400 79900 83300 95200 156000
2020-07-30 14:00 18.21 92000 536000 (1993) 33000 (2006) 73000 34800 37500 41200 43600 58400 79900 83300 95200 156000
2020-07-30 13:00 18.10 91100 536000 (1993) 33000 (2006) 73000 34800 37500 41200 43600 58400 79900 83300 95200 156000
2020-07-30 12:00 18.01 90400 536000 (1993) 33000 (2006) 73000 34800 37500 41200 43600 58400 79900 83300 95200 156000
2020-07-30 11:00 17.87 89200 536000 (1993) 33000 (2006) 73000 34800 37500 41200 43600 58400 79900 83300 95200 156000
2020-07-30 10:00 17.80 88700 536000 (1993) 33000 (2006) 73000 34800 37500 41200 43600 58400 79900 83300 95200 156000
2020-07-30 09:00 17.72 88000 536000 (1993) 33000 (2006) 73000 34800 37500 41200 43600 58400 79900 83300 95200 156000
2020-07-30 08:00 17.60 87100 536000 (1993) 33000 (2006) 73000 34800 37500 41200 43600 58400 79900 83300 95200 156000
2020-07-30 07:00 17.48 86200 536000 (1993) 33000 (2006) 73000 34800 37500 41200 43600 58400 79900 83300 95200 156000
2020-07-30 06:00 17.42 85700 536000 (1993) 33000 (2006) 73000 34800 37500 41200 43600 58400 79900 83300 95200 156000
2020-07-30 05:00 17.38 85400 536000 (1993) 33000 (2006) 73000 34800 37500 41200 43600 58400 79900 83300 95200 156000
2020-07-30 04:00 17.24 84300 536000 (1993) 33000 (2006) 73000 34800 37500 41200 43600 58400 79900 83300 95200 156000
2020-07-30 03:00 17.21 84100 536000 (1993) 33000 (2006) 73000 34800 37500 41200 43600 58400 79900 83300 95200 156000
2020-07-30 02:00 17.17 83800 536000 (1993) 33000 (2006) 73000 34800 37500 41200 43600 58400 79900 83300 95200 156000
2020-07-30 01:00 17.08 83100 536000 (1993) 33000 (2006) 73000 34800 37500 41200 43600 58400 79900 83300 95200 156000
2020-07-30 00:00 17.06 82900 536000 (1993) 33000 (2006) 73000 34800 37500 41200 43600 58400 79900 83300 95200 156000
2020-07-29 23:00 16.98 82300 587000 (1993) 32600 (2002) 74500 34100 37300 40100 42100 59900 75900 81500 112000 164000
2020-07-29 22:00 16.90 81700 587000 (1993) 32600 (2002) 74500 34100 37300 40100 42100 59900 75900 81500 112000 164000
2020-07-29 21:00 17.02 82600 587000 (1993) 32600 (2002) 74500 34100 37300 40100 42100 59900 75900 81500 112000 164000
2020-07-29 20:00 17.02 82600 587000 (1993) 32600 (2002) 74500 34100 37300 40100 42100 59900 75900 81500 112000 164000
2020-07-29 19:00 16.99 82400 587000 (1993) 32600 (2002) 74500 34100 37300 40100 42100 59900 75900 81500 112000 164000
2020-07-29 18:00 16.98 82300 587000 (1993) 32600 (2002) 74500 34100 37300 40100 42100 59900 75900 81500 112000 164000
2020-07-29 17:00 16.97 82200 587000 (1993) 32600 (2002) 74500 34100 37300 40100 42100 59900 75900 81500 112000 164000
2020-07-29 16:00 17.03 82700 587000 (1993) 32600 (2002) 74500 34100 37300 40100 42100 59900 75900 81500 112000 164000
2020-07-29 15:00 17.02 82600 587000 (1993) 32600 (2002) 74500 34100 37300 40100 42100 59900 75900 81500 112000 164000
2020-07-29 14:00 16.92 81900 587000 (1993) 32600 (2002) 74500 34100 37300 40100 42100 59900 75900 81500 112000 164000
2020-07-29 13:00 16.92 81900 587000 (1993) 32600 (2002) 74500 34100 37300 40100 42100 59900 75900 81500 112000 164000
2020-07-29 12:00 16.94 82000 587000 (1993) 32600 (2002) 74500 34100 37300 40100 42100 59900 75900 81500 112000 164000
2020-07-29 11:00 16.99 82400 587000 (1993) 32600 (2002) 74500 34100 37300 40100 42100 59900 75900 81500 112000 164000
2020-07-29 10:00 17.02 82600 587000 (1993) 32600 (2002) 74500 34100 37300 40100 42100 59900 75900 81500 112000 164000
2020-07-29 09:00 17.01 82500 587000 (1993) 32600 (2002) 74500 34100 37300 40100 42100 59900 75900 81500 112000 164000
2020-07-29 08:00 16.95 82100 587000 (1993) 32600 (2002) 74500 34100 37300 40100 42100 59900 75900 81500 112000 164000
2020-07-29 07:00 16.93 81900 587000 (1993) 32600 (2002) 74500 34100 37300 40100 42100 59900 75900 81500 112000 164000
2020-07-29 06:00 16.91 81800 587000 (1993) 32600 (2002) 74500 34100 37300 40100 42100 59900 75900 81500 112000 164000
2020-07-29 05:00 16.89 81600 587000 (1993) 32600 (2002) 74500 34100 37300 40100 42100 59900 75900 81500 112000 164000
2020-07-29 04:00 16.87 81500 587000 (1993) 32600 (2002) 74500 34100 37300 40100 42100 59900 75900 81500 112000 164000
2020-07-29 03:00 16.85 81300 587000 (1993) 32600 (2002) 74500 34100 37300 40100 42100 59900 75900 81500 112000 164000
2020-07-29 02:00 16.81 81000 587000 (1993) 32600 (2002) 74500 34100 37300 40100 42100 59900 75900 81500 112000 164000
2020-07-29 01:00 16.74 80500 587000 (1993) 32600 (2002) 74500 34100 37300 40100 42100 59900 75900 81500 112000 164000
2020-07-29 00:00 16.70 80200 587000 (1993) 32600 (2002) 74500 34100 37300 40100 42100 59900 75900 81500 112000 164000
2020-07-28 23:00 16.66 79900 611000 (1993) 31600 (2002) 77200 34400 37600 39500 41700 61400 79300 82200 127000 170000
2020-07-28 22:00 16.61 79600 611000 (1993) 31600 (2002) 77200 34400 37600 39500 41700 61400 79300 82200 127000 170000
2020-07-28 21:00 16.56 79200 611000 (1993) 31600 (2002) 77200 34400 37600 39500 41700 61400 79300 82200 127000 170000
2020-07-28 20:00 16.50 78700 611000 (1993) 31600 (2002) 77200 34400 37600 39500 41700 61400 79300 82200 127000 170000
2020-07-28 19:00 16.43 78200 611000 (1993) 31600 (2002) 77200 34400 37600 39500 41700 61400 79300 82200 127000 170000
2020-07-28 18:00 16.36 77700 611000 (1993) 31600 (2002) 77200 34400 37600 39500 41700 61400 79300 82200 127000 170000
2020-07-28 17:00 16.38 77900 611000 (1993) 31600 (2002) 77200 34400 37600 39500 41700 61400 79300 82200 127000 170000
2020-07-28 16:00 16.34 77600 611000 (1993) 31600 (2002) 77200 34400 37600 39500 41700 61400 79300 82200 127000 170000
2020-07-28 15:00 16.35 77700 611000 (1993) 31600 (2002) 77200 34400 37600 39500 41700 61400 79300 82200 127000 170000
2020-07-28 14:00 16.36 77700 611000 (1993) 31600 (2002) 77200 34400 37600 39500 41700 61400 79300 82200 127000 170000
2020-07-28 13:00 16.33 77500 611000 (1993) 31600 (2002) 77200 34400 37600 39500 41700 61400 79300 82200 127000 170000
2020-07-28 12:00 16.36 77700 611000 (1993) 31600 (2002) 77200 34400 37600 39500 41700 61400 79300 82200 127000 170000
2020-07-28 11:00 16.41 78100 611000 (1993) 31600 (2002) 77200 34400 37600 39500 41700 61400 79300 82200 127000 170000
2020-07-28 10:00 16.42 78200 611000 (1993) 31600 (2002) 77200 34400 37600 39500 41700 61400 79300 82200 127000 170000
2020-07-28 09:00 16.59 79400 611000 (1993) 31600 (2002) 77200 34400 37600 39500 41700 61400 79300 82200 127000 170000
2020-07-28 08:00 16.62 79600 611000 (1993) 31600 (2002) 77200 34400 37600 39500 41700 61400 79300 82200 127000 170000
2020-07-28 07:00 16.75 80600 611000 (1993) 31600 (2002) 77200 34400 37600 39500 41700 61400 79300 82200 127000 170000
2020-07-28 06:00 16.84 81300 611000 (1993) 31600 (2002) 77200 34400 37600 39500 41700 61400 79300 82200 127000 170000
2020-07-28 05:00 16.92 81900 611000 (1993) 31600 (2002) 77200 34400 37600 39500 41700 61400 79300 82200 127000 170000
2020-07-28 04:00 17.02 82600 611000 (1993) 31600 (2002) 77200 34400 37600 39500 41700 61400 79300 82200 127000 170000
2020-07-28 03:00 17.09 83200 611000 (1993) 31600 (2002) 77200 34400 37600 39500 41700 61400 79300 82200 127000 170000
2020-07-28 02:00 17.16 83700 611000 (1993) 31600 (2002) 77200 34400 37600 39500 41700 61400 79300 82200 127000 170000
2020-07-28 01:00 17.21 84100 611000 (1993) 31600 (2002) 77200 34400 37600 39500 41700 61400 79300 82200 127000 170000
2020-07-28 00:00 17.25 84400 611000 (1993) 31600 (2002) 77200 34400 37600 39500 41700 61400 79300 82200 127000 170000
2020-07-27 23:00 17.25 84400 567000 (1993) 31500 (2002) 75300 34800 37300 40100 42000 63200 79500 82500 94300 175000
2020-07-27 22:00 17.27 84500 567000 (1993) 31500 (2002) 75300 34800 37300 40100 42000 63200 79500 82500 94300 175000
2020-07-27 21:00 17.26 84400 567000 (1993) 31500 (2002) 75300 34800 37300 40100 42000 63200 79500 82500 94300 175000
2020-07-27 20:00 17.22 84100 567000 (1993) 31500 (2002) 75300 34800 37300 40100 42000 63200 79500 82500 94300 175000
2020-07-27 19:00 17.11 83300 567000 (1993) 31500 (2002) 75300 34800 37300 40100 42000 63200 79500 82500 94300 175000
2020-07-27 18:00 17.05 82800 567000 (1993) 31500 (2002) 75300 34800 37300 40100 42000 63200 79500 82500 94300 175000
2020-07-27 17:00 16.92 81900 567000 (1993) 31500 (2002) 75300 34800 37300 40100 42000 63200 79500 82500 94300 175000
2020-07-27 16:00 16.70 80200 567000 (1993) 31500 (2002) 75300 34800 37300 40100 42000 63200 79500 82500 94300 175000
2020-07-27 15:00 16.54 79000 567000 (1993) 31500 (2002) 75300 34800 37300 40100 42000 63200 79500 82500 94300 175000
2020-07-27 14:00 16.31 77400 567000 (1993) 31500 (2002) 75300 34800 37300 40100 42000 63200 79500 82500 94300 175000
2020-07-27 13:00 16.09 75800 567000 (1993) 31500 (2002) 75300 34800 37300 40100 42000 63200 79500 82500 94300 175000
2020-07-27 12:00 15.88 74300 567000 (1993) 31500 (2002) 75300 34800 37300 40100 42000 63200 79500 82500 94300 175000
2020-07-27 11:00 15.63 72600 567000 (1993) 31500 (2002) 75300 34800 37300 40100 42000 63200 79500 82500 94300 175000
2020-07-27 10:00 15.48 71500 567000 (1993) 31500 (2002) 75300 34800 37300 40100 42000 63200 79500 82500 94300 175000
2020-07-27 09:00 15.36 70700 567000 (1993) 31500 (2002) 75300 34800 37300 40100 42000 63200 79500 82500 94300 175000
2020-07-27 08:00 15.25 70000 567000 (1993) 31500 (2002) 75300 34800 37300 40100 42000 63200 79500 82500 94300 175000
2020-07-27 07:00 15.19 69600 567000 (1993) 31500 (2002) 75300 34800 37300 40100 42000 63200 79500 82500 94300 175000
2020-07-27 06:00 15.03 68500 567000 (1993) 31500 (2002) 75300 34800 37300 40100 42000 63200 79500 82500 94300 175000
2020-07-27 05:00 15.08 68800 567000 (1993) 31500 (2002) 75300 34800 37300 40100 42000 63200 79500 82500 94300 175000
2020-07-27 04:00 15.05 68600 567000 (1993) 31500 (2002) 75300 34800 37300 40100 42000 63200 79500 82500 94300 175000
2020-07-27 03:00 15.10 68900 567000 (1993) 31500 (2002) 75300 34800 37300 40100 42000 63200 79500 82500 94300 175000
2020-07-27 02:00 15.04 68500 567000 (1993) 31500 (2002) 75300 34800 37300 40100 42000 63200 79500 82500 94300 175000
2020-07-27 01:00 15.04 68500 567000 (1993) 31500 (2002) 75300 34800 37300 40100 42000 63200 79500 82500 94300 175000
2020-07-27 00:00 15.05 68600 567000 (1993) 31500 (2002) 75300 34800 37300 40100 42000 63200 79500 82500 94300 175000
2020-07-26 23:00 15.06 68700 476000 (1993) 31400 (2002) 72700 34900 37000 40700 41900 61400 76600 82000 106000 166000
2020-07-26 22:00 15.07 68700 476000 (1993) 31400 (2002) 72700 34900 37000 40700 41900 61400 76600 82000 106000 166000
2020-07-26 21:00 15.08 68800 476000 (1993) 31400 (2002) 72700 34900 37000 40700 41900 61400 76600 82000 106000 166000
2020-07-26 20:00 15.06 68700 476000 (1993) 31400 (2002) 72700 34900 37000 40700 41900 61400 76600 82000 106000 166000
2020-07-26 19:00 15.09 68900 476000 (1993) 31400 (2002) 72700 34900 37000 40700 41900 61400 76600 82000 106000 166000
2020-07-26 18:00 15.11 69000 476000 (1993) 31400 (2002) 72700 34900 37000 40700 41900 61400 76600 82000 106000 166000
2020-07-26 17:00 15.13 69100 476000 (1993) 31400 (2002) 72700 34900 37000 40700 41900 61400 76600 82000 106000 166000
2020-07-26 16:00 15.08 68800 476000 (1993) 31400 (2002) 72700 34900 37000 40700 41900 61400 76600 82000 106000 166000
2020-07-26 15:00 15.13 69100 476000 (1993) 31400 (2002) 72700 34900 37000 40700 41900 61400 76600 82000 106000 166000
2020-07-26 14:00 15.14 69200 476000 (1993) 31400 (2002) 72700 34900 37000 40700 41900 61400 76600 82000 106000 166000
2020-07-26 13:00 15.16 69300 476000 (1993) 31400 (2002) 72700 34900 37000 40700 41900 61400 76600 82000 106000 166000
2020-07-26 12:00 15.11 69000 476000 (1993) 31400 (2002) 72700 34900 37000 40700 41900 61400 76600 82000 106000 166000
2020-07-26 11:00 15.17 69400 476000 (1993) 31400 (2002) 72700 34900 37000 40700 41900 61400 76600 82000 106000 166000
2020-07-26 10:00 15.16 69300 476000 (1993) 31400 (2002) 72700 34900 37000 40700 41900 61400 76600 82000 106000 166000
2020-07-26 09:00 15.12 69100 476000 (1993) 31400 (2002) 72700 34900 37000 40700 41900 61400 76600 82000 106000 166000
2020-07-26 08:00 15.19 69600 476000 (1993) 31400 (2002) 72700 34900 37000 40700 41900 61400 76600 82000 106000 166000
2020-07-26 07:00 15.17 69400 476000 (1993) 31400 (2002) 72700 34900 37000 40700 41900 61400 76600 82000 106000 166000
2020-07-26 06:00 15.21 69700 476000 (1993) 31400 (2002) 72700 34900 37000 40700 41900 61400 76600 82000 106000 166000
2020-07-26 05:00 15.21 69700 476000 (1993) 31400 (2002) 72700 34900 37000 40700 41900 61400 76600 82000 106000 166000
2020-07-26 04:00 15.21 69700 476000 (1993) 31400 (2002) 72700 34900 37000 40700 41900 61400 76600 82000 106000 166000
2020-07-26 03:00 15.22 69800 476000 (1993) 31400 (2002) 72700 34900 37000 40700 41900 61400 76600 82000 106000 166000
2020-07-26 02:00 15.20 69600 476000 (1993) 31400 (2002) 72700 34900 37000 40700 41900 61400 76600 82000 106000 166000
2020-07-26 01:00 15.19 69600 476000 (1993) 31400 (2002) 72700 34900 37000 40700 41900 61400 76600 82000 106000 166000
2020-07-26 00:00 15.24 69900 476000 (1993) 31400 (2002) 72700 34900 37000 40700 41900 61400 76600 82000 106000 166000
2020-07-25 23:00 15.20 69600 405000 (1993) 31700 (2002) 71700 36000 37300 40700 42000 61200 82800 84700 98500 169000
2020-07-25 22:00 15.06 68700 405000 (1993) 31700 (2002) 71700 36000 37300 40700 42000 61200 82800 84700 98500 169000
2020-07-25 21:00 15.24 69900 405000 (1993) 31700 (2002) 71700 36000 37300 40700 42000 61200 82800 84700 98500 169000
2020-07-25 20:00 15.22 69800 405000 (1993) 31700 (2002) 71700 36000 37300 40700 42000 61200 82800 84700 98500 169000
2020-07-25 19:00 15.25 70000 405000 (1993) 31700 (2002) 71700 36000 37300 40700 42000 61200 82800 84700 98500 169000
2020-07-25 18:00 15.20 69600 405000 (1993) 31700 (2002) 71700 36000 37300 40700 42000 61200 82800 84700 98500 169000
2020-07-25 17:00 15.22 69800 405000 (1993) 31700 (2002) 71700 36000 37300 40700 42000 61200 82800 84700 98500 169000
2020-07-25 16:00 15.27 70100 405000 (1993) 31700 (2002) 71700 36000 37300 40700 42000 61200 82800 84700 98500 169000
2020-07-25 15:00 15.26 70000 405000 (1993) 31700 (2002) 71700 36000 37300 40700 42000 61200 82800 84700 98500 169000
2020-07-25 14:00 15.28 70200 405000 (1993) 31700 (2002) 71700 36000 37300 40700 42000 61200 82800 84700 98500 169000
2020-07-25 13:00 15.30 70300 405000 (1993) 31700 (2002) 71700 36000 37300 40700 42000 61200 82800 84700 98500 169000
2020-07-25 12:00 15.28 70200 405000 (1993) 31700 (2002) 71700 36000 37300 40700 42000 61200 82800 84700 98500 169000
2020-07-25 11:00 15.31 70400 405000 (1993) 31700 (2002) 71700 36000 37300 40700 42000 61200 82800 84700 98500 169000
2020-07-25 10:00 15.32 70400 405000 (1993) 31700 (2002) 71700 36000 37300 40700 42000 61200 82800 84700 98500 169000
2020-07-25 09:00 15.32 70400 405000 (1993) 31700 (2002) 71700 36000 37300 40700 42000 61200 82800 84700 98500 169000
2020-07-25 08:00 15.34 70600 405000 (1993) 31700 (2002) 71700 36000 37300 40700 42000 61200 82800 84700 98500 169000
2020-07-25 07:00 15.30 70300 405000 (1993) 31700 (2002) 71700 36000 37300 40700 42000 61200 82800 84700 98500 169000
2020-07-25 06:00 15.38 70800 405000 (1993) 31700 (2002) 71700 36000 37300 40700 42000 61200 82800 84700 98500 169000
2020-07-25 05:00 15.39 70900 405000 (1993) 31700 (2002) 71700 36000 37300 40700 42000 61200 82800 84700 98500 169000
2020-07-25 04:00 15.42 71100 405000 (1993) 31700 (2002) 71700 36000 37300 40700 42000 61200 82800 84700 98500 169000
2020-07-25 03:00 15.43 71200 405000 (1993) 31700 (2002) 71700 36000 37300 40700 42000 61200 82800 84700 98500 169000
2020-07-25 02:00 15.47 71500 405000 (1993) 31700 (2002) 71700 36000 37300 40700 42000 61200 82800 84700 98500 169000
2020-07-25 01:00 15.49 71600 405000 (1993) 31700 (2002) 71700 36000 37300 40700 42000 61200 82800 84700 98500 169000
2020-07-25 00:00 15.50 71700 405000 (1993) 31700 (2002) 71700 36000 37300 40700 42000 61200 82800 84700 98500 169000
2020-07-24 23:00 15.51 71700 367000 (1993) 32200 (2002) 72100 36000 37600 40300 42300 61800 83000 89700 110000 172000
2020-07-24 22:00 15.52 71800 367000 (1993) 32200 (2002) 72100 36000 37600 40300 42300 61800 83000 89700 110000 172000
2020-07-24 21:00 15.57 72100 367000 (1993) 32200 (2002) 72100 36000 37600 40300 42300 61800 83000 89700 110000 172000
2020-07-24 20:00 15.60 72300 367000 (1993) 32200 (2002) 72100 36000 37600 40300 42300 61800 83000 89700 110000 172000
2020-07-24 19:00 15.65 72700 367000 (1993) 32200 (2002) 72100 36000 37600 40300 42300 61800 83000 89700 110000 172000
2020-07-24 18:00 15.69 73000 367000 (1993) 32200 (2002) 72100 36000 37600 40300 42300 61800 83000 89700 110000 172000
2020-07-24 17:00 15.69 73000 367000 (1993) 32200 (2002) 72100 36000 37600 40300 42300 61800 83000 89700 110000 172000
2020-07-24 16:00 15.78 73600 367000 (1993) 32200 (2002) 72100 36000 37600 40300 42300 61800 83000 89700 110000 172000
2020-07-24 15:00 15.80 73700 367000 (1993) 32200 (2002) 72100 36000 37600 40300 42300 61800 83000 89700 110000 172000
2020-07-24 14:00 15.85 74100 367000 (1993) 32200 (2002) 72100 36000 37600 40300 42300 61800 83000 89700 110000 172000
2020-07-24 13:00 15.89 74400 367000 (1993) 32200 (2002) 72100 36000 37600 40300 42300 61800 83000 89700 110000 172000
2020-07-24 12:00 15.95 74800 367000 (1993) 32200 (2002) 72100 36000 37600 40300 42300 61800 83000 89700 110000 172000
2020-07-24 11:00 15.99 75100 367000 (1993) 32200 (2002) 72100 36000 37600 40300 42300 61800 83000 89700 110000 172000
2020-07-24 10:00 16.04 75400 367000 (1993) 32200 (2002) 72100 36000 37600 40300 42300 61800 83000 89700 110000 172000
2020-07-24 09:00 16.09 75800 367000 (1993) 32200 (2002) 72100 36000 37600 40300 42300 61800 83000 89700 110000 172000
2020-07-24 08:00 16.12 76000 367000 (1993) 32200 (2002) 72100 36000 37600 40300 42300 61800 83000 89700 110000 172000
2020-07-24 07:00 16.18 76400 367000 (1993) 32200 (2002) 72100 36000 37600 40300 42300 61800 83000 89700 110000 172000
2020-07-24 06:00 16.24 76900 367000 (1993) 32200 (2002) 72100 36000 37600 40300 42300 61800 83000 89700 110000 172000
2020-07-24 05:00 16.27 77100 367000 (1993) 32200 (2002) 72100 36000 37600 40300 42300 61800 83000 89700 110000 172000
2020-07-24 04:00 16.32 77400 367000 (1993) 32200 (2002) 72100 36000 37600 40300 42300 61800 83000 89700 110000 172000
2020-07-24 03:00 16.35 77700 367000 (1993) 32200 (2002) 72100 36000 37600 40300 42300 61800 83000 89700 110000 172000
2020-07-24 02:00 16.45 78400 367000 (1993) 32200 (2002) 72100 36000 37600 40300 42300 61800 83000 89700 110000 172000
2020-07-24 01:00 16.47 78500 367000 (1993) 32200 (2002) 72100 36000 37600 40300 42300 61800 83000 89700 110000 172000
2020-07-24 00:00 16.54 79000 367000 (1993) 32200 (2002) 72100 36000 37600 40300 42300 61800 83000 89700 110000 172000
2020-07-23 23:00 16.61 79600 324000 (1993) 32900 (2002) 73500 36200 37500 41900 43000 61100 86200 94100 123000 179000
2020-07-23 22:00 16.70 80200 324000 (1993) 32900 (2002) 73500 36200 37500 41900 43000 61100 86200 94100 123000 179000
2020-07-23 21:00 16.76 80700 324000 (1993) 32900 (2002) 73500 36200 37500 41900 43000 61100 86200 94100 123000 179000
2020-07-23 20:00 16.84 81300 324000 (1993) 32900 (2002) 73500 36200 37500 41900 43000 61100 86200 94100 123000 179000
2020-07-23 19:00 16.86 81400 324000 (1993) 32900 (2002) 73500 36200 37500 41900 43000 61100 86200 94100 123000 179000
2020-07-23 18:00 16.96 82200 324000 (1993) 32900 (2002) 73500 36200 37500 41900 43000 61100 86200 94100 123000 179000
2020-07-23 17:00 16.97 82200 324000 (1993) 32900 (2002) 73500 36200 37500 41900 43000 61100 86200 94100 123000 179000
2020-07-23 16:00 17.07 83000 324000 (1993) 32900 (2002) 73500 36200 37500 41900 43000 61100 86200 94100 123000 179000
2020-07-23 15:00 17.18 83800 324000 (1993) 32900 (2002) 73500 36200 37500 41900 43000 61100 86200 94100 123000 179000
2020-07-23 14:00 17.20 84000 324000 (1993) 32900 (2002) 73500 36200 37500 41900 43000 61100 86200 94100 123000 179000
2020-07-23 13:00 17.22 84100 324000 (1993) 32900 (2002) 73500 36200 37500 41900 43000 61100 86200 94100 123000 179000
2020-07-23 12:00 17.26 84400 324000 (1993) 32900 (2002) 73500 36200 37500 41900 43000 61100 86200 94100 123000 179000
2020-07-23 11:00 17.31 84800 324000 (1993) 32900 (2002) 73500 36200 37500 41900 43000 61100 86200 94100 123000 179000
2020-07-23 10:00 17.45 85900 324000 (1993) 32900 (2002) 73500 36200 37500 41900 43000 61100 86200 94100 123000 179000
2020-07-23 09:00 17.49 86200 324000 (1993) 32900 (2002) 73500 36200 37500 41900 43000 61100 86200 94100 123000 179000
2020-07-23 08:00 17.63 87300 324000 (1993) 32900 (2002) 73500 36200 37500 41900 43000 61100 86200 94100 123000 179000
2020-07-23 07:00 17.65 87500 324000 (1993) 32900 (2002) 73500 36200 37500 41900 43000 61100 86200 94100 123000 179000
2020-07-23 06:00 17.78 88500 324000 (1993) 32900 (2002) 73500 36200 37500 41900 43000 61100 86200 94100 123000 179000
2020-07-23 05:00 17.84 89000 324000 (1993) 32900 (2002) 73500 36200 37500 41900 43000 61100 86200 94100 123000 179000
2020-07-23 04:00 17.93 89700 324000 (1993) 32900 (2002) 73500 36200 37500 41900 43000 61100 86200 94100 123000 179000
2020-07-23 03:00 18.07 90800 324000 (1993) 32900 (2002) 73500 36200 37500 41900 43000 61100 86200 94100 123000 179000
2020-07-23 02:00 18.15 91500 324000 (1993) 32900 (2002) 73500 36200 37500 41900 43000 61100 86200 94100 123000 179000
2020-07-23 01:00 18.24 92200 324000 (1993) 32900 (2002) 73500 36200 37500 41900 43000 61100 86200 94100 123000 179000
2020-07-23 00:00 18.34 93000 324000 (1993) 32900 (2002) 73500 36200 37500 41900 43000 61100 86200 94100 123000 179000
2020-07-22 23:00 18.42 93700 321000 (1993) 33500 (2002) 77500 35700 37700 42400 43800 63200 87200 99200 138000 211000
2020-07-22 22:00 18.50 94400 321000 (1993) 33500 (2002) 77500 35700 37700 42400 43800 63200 87200 99200 138000 211000
2020-07-22 21:00 18.57 94900 321000 (1993) 33500 (2002) 77500 35700 37700 42400 43800 63200 87200 99200 138000 211000
2020-07-22 20:00 18.70 96000 321000 (1993) 33500 (2002) 77500 35700 37700 42400 43800 63200 87200 99200 138000 211000
2020-07-22 19:00 18.83 97100 321000 (1993) 33500 (2002) 77500 35700 37700 42400 43800 63200 87200 99200 138000 211000
2020-07-22 18:00 18.84 97200 321000 (1993) 33500 (2002) 77500 35700 37700 42400 43800 63200 87200 99200 138000 211000
2020-07-22 17:00 19.06 99100 321000 (1993) 33500 (2002) 77500 35700 37700 42400 43800 63200 87200 99200 138000 211000
2020-07-22 16:00 19.15 99900 321000 (1993) 33500 (2002) 77500 35700 37700 42400 43800 63200 87200 99200 138000 211000
2020-07-22 15:00 19.22 102000 321000 (1993) 33500 (2002) 77500 35700 37700 42400 43800 63200 87200 99200 138000 211000
2020-07-22 14:00 19.27 103000 321000 (1993) 33500 (2002) 77500 35700 37700 42400 43800 63200 87200 99200 138000 211000
2020-07-22 13:00 19.33 103000 321000 (1993) 33500 (2002) 77500 35700 37700 42400 43800 63200 87200 99200 138000 211000
2020-07-22 12:00 19.38 104000 321000 (1993) 33500 (2002) 77500 35700 37700 42400 43800 63200 87200 99200 138000 211000
2020-07-22 11:00 19.44 104000 321000 (1993) 33500 (2002) 77500 35700 37700 42400 43800 63200 87200 99200 138000 211000
2020-07-22 10:00 19.48 105000 321000 (1993) 33500 (2002) 77500 35700 37700 42400 43800 63200 87200 99200 138000 211000
2020-07-22 09:00 19.52 105000 321000 (1993) 33500 (2002) 77500 35700 37700 42400 43800 63200 87200 99200 138000 211000
2020-07-22 08:00 19.52 105000 321000 (1993) 33500 (2002) 77500 35700 37700 42400 43800 63200 87200 99200 138000 211000
2020-07-22 07:00 19.52 105000 321000 (1993) 33500 (2002) 77500 35700 37700 42400 43800 63200 87200 99200 138000 211000
2020-07-22 06:00 19.51 105000 321000 (1993) 33500 (2002) 77500 35700 37700 42400 43800 63200 87200 99200 138000 211000
2020-07-22 05:00 19.52 105000 321000 (1993) 33500 (2002) 77500 35700 37700 42400 43800 63200 87200 99200 138000 211000
2020-07-22 04:00 19.53 105000 321000 (1993) 33500 (2002) 77500 35700 37700 42400 43800 63200 87200 99200 138000 211000
2020-07-22 03:00 19.49 105000 321000 (1993) 33500 (2002) 77500 35700 37700 42400 43800 63200 87200 99200 138000 211000
2020-07-22 02:00 19.48 105000 321000 (1993) 33500 (2002) 77500 35700 37700 42400 43800 63200 87200 99200 138000 211000
2020-07-22 01:00 19.45 104000 321000 (1993) 33500 (2002) 77500 35700 37700 42400 43800 63200 87200 99200 138000 211000
2020-07-22 00:00 19.37 104000 321000 (1993) 33500 (2002) 77500 35700 37700 42400 43800 63200 87200 99200 138000 211000
2020-07-21 23:00 19.29 103000 309000 (1993) 34300 (2002) 77900 35900 37900 42200 43000 64100 90500 100000 139000 209000
2020-07-21 22:00 19.14 102000 309000 (1993) 34300 (2002) 77900 35900 37900 42200 43000 64100 90500 100000 139000 209000
2020-07-21 21:00 19.06 101000 309000 (1993) 34300 (2002) 77900 35900 37900 42200 43000 64100 90500 100000 139000 209000
2020-07-21 20:00 18.93 99700 309000 (1993) 34300 (2002) 77900 35900 37900 42200 43000 64100 90500 100000 139000 209000
2020-07-21 19:00 18.81 98700 309000 (1993) 34300 (2002) 77900 35900 37900 42200 43000 64100 90500 100000 139000 209000
2020-07-21 18:00 18.63 97100 309000 (1993) 34300 (2002) 77900 35900 37900 42200 43000 64100 90500 100000 139000 209000
2020-07-21 17:00 18.52 96200 309000 (1993) 34300 (2002) 77900 35900 37900 42200 43000 64100 90500 100000 139000 209000
2020-07-21 16:00 18.38 95000 309000 (1993) 34300 (2002) 77900 35900 37900 42200 43000 64100 90500 100000 139000 209000
2020-07-21 15:00 18.17 93300 309000 (1993) 34300 (2002) 77900 35900 37900 42200 43000 64100 90500 100000 139000 209000
2020-07-21 14:00 17.97 91600 309000 (1993) 34300 (2002) 77900 35900 37900 42200 43000 64100 90500 100000 139000 209000
2020-07-21 13:00 17.73 89700 309000 (1993) 34300 (2002) 77900 35900 37900 42200 43000 64100 90500 100000 139000 209000
2020-07-21 12:00 17.47 87600 309000 (1993) 34300 (2002) 77900 35900 37900 42200 43000 64100 90500 100000 139000 209000
2020-07-21 11:00 17.24 85800 309000 (1993) 34300 (2002) 77900 35900 37900 42200 43000 64100 90500 100000 139000 209000
2020-07-21 10:00 16.98 83800 309000 (1993) 34300 (2002) 77900 35900 37900 42200 43000 64100 90500 100000 139000 209000
2020-07-21 09:00 16.74 82000 309000 (1993) 34300 (2002) 77900 35900 37900 42200 43000 64100 90500 100000 139000 209000
2020-07-21 08:00 16.51 80300 309000 (1993) 34300 (2002) 77900 35900 37900 42200 43000 64100 90500 100000 139000 209000
2020-07-21 07:00 16.34 79000 309000 (1993) 34300 (2002) 77900 35900 37900 42200 43000 64100 90500 100000 139000 209000
2020-07-21 06:00 16.16 77700 309000 (1993) 34300 (2002) 77900 35900 37900 42200 43000 64100 90500 100000 139000 209000
2020-07-21 05:00 15.97 76400 309000 (1993) 34300 (2002) 77900 35900 37900 42200 43000 64100 90500 100000 139000 209000
2020-07-21 04:00 15.72 74600 309000 (1993) 34300 (2002) 77900 35900 37900 42200 43000 64100 90500 100000 139000 209000
2020-07-21 03:00 15.70 74400 309000 (1993) 34300 (2002) 77900 35900 37900 42200 43000 64100 90500 100000 139000 209000
2020-07-21 02:00 15.59 73700 309000 (1993) 34300 (2002) 77900 35900 37900 42200 43000 64100 90500 100000 139000 209000
2020-07-21 01:00 15.47 72800 309000 (1993) 34300 (2002) 77900 35900 37900 42200 43000 64100 90500 100000 139000 209000
2020-07-21 00:00 15.42 72500 309000 (1993) 34300 (2002) 77900 35900 37900 42200 43000 64100 90500 100000 139000 209000
2020-07-20 23:00 15.36 72100 265000 (1993) 34400 (2002) 72800 35600 37900 40700 42600 60500 84100 93900 118000 182000
2020-07-20 22:00 15.30 71700 265000 (1993) 34400 (2002) 72800 35600 37900 40700 42600 60500 84100 93900 118000 182000
2020-07-20 21:00 15.24 71200 265000 (1993) 34400 (2002) 72800 35600 37900 40700 42600 60500 84100 93900 118000 182000
2020-07-20 20:00 15.19 70900 265000 (1993) 34400 (2002) 72800 35600 37900 40700 42600 60500 84100 93900 118000 182000
2020-07-20 19:00 15.15 70600 265000 (1993) 34400 (2002) 72800 35600 37900 40700 42600 60500 84100 93900 118000 182000
2020-07-20 18:00 15.12 70400 265000 (1993) 34400 (2002) 72800 35600 37900 40700 42600 60500 84100 93900 118000 182000
2020-07-20 17:00 15.03 69800 265000 (1993) 34400 (2002) 72800 35600 37900 40700 42600 60500 84100 93900 118000 182000
2020-07-20 16:00 15.00 69600 265000 (1993) 34400 (2002) 72800 35600 37900 40700 42600 60500 84100 93900 118000 182000
2020-07-20 15:00 14.92 69100 265000 (1993) 34400 (2002) 72800 35600 37900 40700 42600 60500 84100 93900 118000 182000
2020-07-20 14:00 14.90 68900 265000 (1993) 34400 (2002) 72800 35600 37900 40700 42600 60500 84100 93900 118000 182000
2020-07-20 13:00 14.82 68400 265000 (1993) 34400 (2002) 72800 35600 37900 40700 42600 60500 84100 93900 118000 182000
2020-07-20 12:00 14.71 67700 265000 (1993) 34400 (2002) 72800 35600 37900 40700 42600 60500 84100 93900 118000 182000
2020-07-20 11:00 14.77 68100 265000 (1993) 34400 (2002) 72800 35600 37900 40700 42600 60500 84100 93900 118000 182000
2020-07-20 10:00 14.74 67900 265000 (1993) 34400 (2002) 72800 35600 37900 40700 42600 60500 84100 93900 118000 182000
2020-07-20 09:00 14.70 67600 265000 (1993) 34400 (2002) 72800 35600 37900 40700 42600 60500 84100 93900 118000 182000
2020-07-20 08:00 14.70 67600 265000 (1993) 34400 (2002) 72800 35600 37900 40700 42600 60500 84100 93900 118000 182000
2020-07-20 07:00 14.71 67700 265000 (1993) 34400 (2002) 72800 35600 37900 40700 42600 60500 84100 93900 118000 182000
2020-07-20 06:00 14.70 67600 265000 (1993) 34400 (2002) 72800 35600 37900 40700 42600 60500 84100 93900 118000 182000
2020-07-20 05:00 14.71 67700 265000 (1993) 34400 (2002) 72800 35600 37900 40700 42600 60500 84100 93900 118000 182000
2020-07-20 04:00 14.71 67700 265000 (1993) 34400 (2002) 72800 35600 37900 40700 42600 60500 84100 93900 118000 182000
2020-07-20 03:00 14.74 67900 265000 (1993) 34400 (2002) 72800 35600 37900 40700 42600 60500 84100 93900 118000 182000
2020-07-20 02:00 14.73 67800 265000 (1993) 34400 (2002) 72800 35600 37900 40700 42600 60500 84100 93900 118000 182000
2020-07-20 01:00 14.79 68200 265000 (1993) 34400 (2002) 72800 35600 37900 40700 42600 60500 84100 93900 118000 182000
2020-07-20 00:00 14.73 67800 265000 (1993) 34400 (2002) 72800 35600 37900 40700 42600 60500 84100 93900 118000 182000
2020-07-19 23:00 14.76 68000 251000 (1993) 34800 (2002) 70000 36600 38500 40200 41800 59700 84800 87600 111000 164000
2020-07-19 22:00 14.78 68100 251000 (1993) 34800 (2002) 70000 36600 38500 40200 41800 59700 84800 87600 111000 164000
2020-07-19 21:00 14.80 68300 251000 (1993) 34800 (2002) 70000 36600 38500 40200 41800 59700 84800 87600 111000 164000
2020-07-19 20:00 14.82 68400 251000 (1993) 34800 (2002) 70000 36600 38500 40200 41800 59700 84800 87600 111000 164000
2020-07-19 19:00 14.84 68500 251000 (1993) 34800 (2002) 70000 36600 38500 40200 41800 59700 84800 87600 111000 164000
2020-07-19 18:00 14.85 68600 251000 (1993) 34800 (2002) 70000 36600 38500 40200 41800 59700 84800 87600 111000 164000
2020-07-19 17:00 14.85 68600 251000 (1993) 34800 (2002) 70000 36600 38500 40200 41800 59700 84800 87600 111000 164000
2020-07-19 16:00 14.81 68300 251000 (1993) 34800 (2002) 70000 36600 38500 40200 41800 59700 84800 87600 111000 164000
2020-07-19 15:00 14.89 68900 251000 (1993) 34800 (2002) 70000 36600 38500 40200 41800 59700 84800 87600 111000 164000
2020-07-19 14:00 14.90 68900 251000 (1993) 34800 (2002) 70000 36600 38500 40200 41800 59700 84800 87600 111000 164000
2020-07-19 13:00 14.96 69300 251000 (1993) 34800 (2002) 70000 36600 38500 40200 41800 59700 84800 87600 111000 164000
2020-07-19 12:00 14.99 69600 251000 (1993) 34800 (2002) 70000 36600 38500 40200 41800 59700 84800 87600 111000 164000
2020-07-19 11:00 15.00 69600 251000 (1993) 34800 (2002) 70000 36600 38500 40200 41800 59700 84800 87600 111000 164000
2020-07-19 10:00 15.00 69600 251000 (1993) 34800 (2002) 70000 36600 38500 40200 41800 59700 84800 87600 111000 164000
2020-07-19 09:00 15.04 69900 251000 (1993) 34800 (2002) 70000 36600 38500 40200 41800 59700 84800 87600 111000 164000
2020-07-19 08:00 15.07 70100 251000 (1993) 34800 (2002) 70000 36600 38500 40200 41800 59700 84800 87600 111000 164000
2020-07-19 07:00 15.10 70300 251000 (1993) 34800 (2002) 70000 36600 38500 40200 41800 59700 84800 87600 111000 164000
2020-07-19 06:00 15.14 70600 251000 (1993) 34800 (2002) 70000 36600 38500 40200 41800 59700 84800 87600 111000 164000
2020-07-19 05:00 15.15 70600 251000 (1993) 34800 (2002) 70000 36600 38500 40200 41800 59700 84800 87600 111000 164000
2020-07-19 04:00 15.24 71200 251000 (1993) 34800 (2002) 70000 36600 38500 40200 41800 59700 84800 87600 111000 164000
2020-07-19 03:00 15.29 71600 251000 (1993) 34800 (2002) 70000 36600 38500 40200 41800 59700 84800 87600 111000 164000
2020-07-19 02:00 15.34 71900 251000 (1993) 34800 (2002) 70000 36600 38500 40200 41800 59700 84800 87600 111000 164000
2020-07-19 01:00 15.40 72300 251000 (1993) 34800 (2002) 70000 36600 38500 40200 41800 59700 84800 87600 111000 164000
2020-07-19 00:00 15.46 72800 251000 (1993) 34800 (2002) 70000 36600 38500 40200 41800 59700 84800 87600 111000 164000
2020-07-18 23:00 15.50 73000 254000 (1993) 35200 (2002) 70900 36900 39100 40800 43000 62000 85000 88600 112000 164000
2020-07-18 22:00 15.55 73400 254000 (1993) 35200 (2002) 70900 36900 39100 40800 43000 62000 85000 88600 112000 164000
2020-07-18 21:00 15.56 73500 254000 (1993) 35200 (2002) 70900 36900 39100 40800 43000 62000 85000 88600 112000 164000
2020-07-18 20:00 15.65 74100 254000 (1993) 35200 (2002) 70900 36900 39100 40800 43000 62000 85000 88600 112000 164000
2020-07-18 19:00 15.71 74500 254000 (1993) 35200 (2002) 70900 36900 39100 40800 43000 62000 85000 88600 112000 164000
2020-07-18 18:00 15.78 75000 254000 (1993) 35200 (2002) 70900 36900 39100 40800 43000 62000 85000 88600 112000 164000
2020-07-18 17:00 15.84 75400 254000 (1993) 35200 (2002) 70900 36900 39100 40800 43000 62000 85000 88600 112000 164000
2020-07-18 16:00 15.90 75900 254000 (1993) 35200 (2002) 70900 36900 39100 40800 43000 62000 85000 88600 112000 164000
2020-07-18 15:00 16.00 76600 254000 (1993) 35200 (2002) 70900 36900 39100 40800 43000 62000 85000 88600 112000 164000
2020-07-18 14:00 16.08 77100 254000 (1993) 35200 (2002) 70900 36900 39100 40800 43000 62000 85000 88600 112000 164000
2020-07-18 13:00 16.18 77900 254000 (1993) 35200 (2002) 70900 36900 39100 40800 43000 62000 85000 88600 112000 164000
2020-07-18 12:00 16.23 78200 254000 (1993) 35200 (2002) 70900 36900 39100 40800 43000 62000 85000 88600 112000 164000
2020-07-18 11:00 16.36 79200 254000 (1993) 35200 (2002) 70900 36900 39100 40800 43000 62000 85000 88600 112000 164000
2020-07-18 10:00 16.48 80100 254000 (1993) 35200 (2002) 70900 36900 39100 40800 43000 62000 85000 88600 112000 164000
2020-07-18 09:00 16.52 80400 254000 (1993) 35200 (2002) 70900 36900 39100 40800 43000 62000 85000 88600 112000 164000
2020-07-18 08:00 16.68 81600 254000 (1993) 35200 (2002) 70900 36900 39100 40800 43000 62000 85000 88600 112000 164000
2020-07-18 07:00 16.78 82300 254000 (1993) 35200 (2002) 70900 36900 39100 40800 43000 62000 85000 88600 112000 164000
2020-07-18 06:00 16.91 83300 254000 (1993) 35200 (2002) 70900 36900 39100 40800 43000 62000 85000 88600 112000 164000
2020-07-18 05:00 16.97 83800 254000 (1993) 35200 (2002) 70900 36900 39100 40800 43000 62000 85000 88600 112000 164000
2020-07-18 04:00 17.08 84600 254000 (1993) 35200 (2002) 70900 36900 39100 40800 43000 62000 85000 88600 112000 164000
2020-07-18 03:00 17.15 85100 254000 (1993) 35200 (2002) 70900 36900 39100 40800 43000 62000 85000 88600 112000 164000
2020-07-18 02:00 17.20 85500 254000 (1993) 35200 (2002) 70900 36900 39100 40800 43000 62000 85000 88600 112000 164000
2020-07-18 01:00 17.27 86100 254000 (1993) 35200 (2002) 70900 36900 39100 40800 43000 62000 85000 88600 112000 164000
2020-07-18 00:00 17.39 87000 254000 (1993) 35200 (2002) 70900 36900 39100 40800 43000 62000 85000 88600 112000 164000
2020-07-17 23:00 17.46 87600 259000 (1993) 36400 (2002) 71400 37800 39600 41700 43700 62100 83800 88200 114000 162000
2020-07-17 22:00 17.47 87600 259000 (1993) 36400 (2002) 71400 37800 39600 41700 43700 62100 83800 88200 114000 162000
2020-07-17 21:00 17.54 88200 259000 (1993) 36400 (2002) 71400 37800 39600 41700 43700 62100 83800 88200 114000 162000
2020-07-17 20:00 17.65 89100 259000 (1993) 36400 (2002) 71400 37800 39600 41700 43700 62100 83800 88200 114000 162000
2020-07-17 19:00 17.72 89600 259000 (1993) 36400 (2002) 71400 37800 39600 41700 43700 62100 83800 88200 114000 162000
2020-07-17 18:00 17.77 90000 259000 (1993) 36400 (2002) 71400 37800 39600 41700 43700 62100 83800 88200 114000 162000
2020-07-17 17:00 17.91 91200 259000 (1993) 36400 (2002) 71400 37800 39600 41700 43700 62100 83800 88200 114000 162000
2020-07-17 16:00 17.95 91500 259000 (1993) 36400 (2002) 71400 37800 39600 41700 43700 62100 83800 88200 114000 162000
2020-07-17 15:00 17.92 91200 259000 (1993) 36400 (2002) 71400 37800 39600 41700 43700 62100 83800 88200 114000 162000
2020-07-17 14:00 17.97 91600 259000 (1993) 36400 (2002) 71400 37800 39600 41700 43700 62100 83800 88200 114000 162000
2020-07-17 13:00 18.01 92000 259000 (1993) 36400 (2002) 71400 37800 39600 41700 43700 62100 83800 88200 114000 162000
2020-07-17 12:00 18.03 92100 259000 (1993) 36400 (2002) 71400 37800 39600 41700 43700 62100 83800 88200 114000 162000
2020-07-17 11:00 18.06 92400 259000 (1993) 36400 (2002) 71400 37800 39600 41700 43700 62100 83800 88200 114000 162000
2020-07-17 10:00 18.06 92400 259000 (1993) 36400 (2002) 71400 37800 39600 41700 43700 62100 83800 88200 114000 162000
2020-07-17 09:00 18.03 92100 259000 (1993) 36400 (2002) 71400 37800 39600 41700 43700 62100 83800 88200 114000 162000
2020-07-17 08:00 18.02 92100 259000 (1993) 36400 (2002) 71400 37800 39600 41700 43700 62100 83800 88200 114000 162000
2020-07-17 07:00 18.03 92100 259000 (1993) 36400 (2002) 71400 37800 39600 41700 43700 62100 83800 88200 114000 162000
2020-07-17 06:00 18.02 92100 259000 (1993) 36400 (2002) 71400 37800 39600 41700 43700 62100 83800 88200 114000 162000
2020-07-17 05:00 18.02 92100 259000 (1993) 36400 (2002) 71400 37800 39600 41700 43700 62100 83800 88200 114000 162000
2020-07-17 04:00 18.03 92100 259000 (1993) 36400 (2002) 71400 37800 39600 41700 43700 62100 83800 88200 114000 162000
2020-07-17 03:00 18.02 92100 259000 (1993) 36400 (2002) 71400 37800 39600 41700 43700 62100 83800 88200 114000 162000
2020-07-17 02:00 18.01 92000 259000 (1993) 36400 (2002) 71400 37800 39600 41700 43700 62100 83800 88200 114000 162000
2020-07-17 01:00 17.98 91700 259000 (1993) 36400 (2002) 71400 37800 39600 41700 43700 62100 83800 88200 114000 162000
2020-07-17 00:00 17.97 91600 259000 (1993) 36400 (2002) 71400 37800 39600 41700 43700 62100 83800 88200 114000 162000
2020-07-16 23:00 17.98 91700 261000 (1993) 36700 (2006) 72700 38300 39700 41900 43300 64500 86200 90300 119000 160000
2020-07-16 22:00 17.98 91700 261000 (1993) 36700 (2006) 72700 38300 39700 41900 43300 64500 86200 90300 119000 160000
2020-07-16 21:00 17.97 91600 261000 (1993) 36700 (2006) 72700 38300 39700 41900 43300 64500 86200 90300 119000 160000
2020-07-16 20:00 17.98 91700 261000 (1993) 36700 (2006) 72700 38300 39700 41900 43300 64500 86200 90300 119000 160000
2020-07-16 19:00 17.92 91200 261000 (1993) 36700 (2006) 72700 38300 39700 41900 43300 64500 86200 90300 119000 160000
2020-07-16 18:00 17.94 91400 261000 (1993) 36700 (2006) 72700 38300 39700 41900 43300 64500 86200 90300 119000 160000
2020-07-16 17:00 17.91 91200 261000 (1993) 36700 (2006) 72700 38300 39700 41900 43300 64500 86200 90300 119000 160000
2020-07-16 16:00 17.81 90400 261000 (1993) 36700 (2006) 72700 38300 39700 41900 43300 64500 86200 90300 119000 160000
2020-07-16 15:00 17.88 90900 261000 (1993) 36700 (2006) 72700 38300 39700 41900 43300 64500 86200 90300 119000 160000
2020-07-16 14:00 17.94 91400 261000 (1993) 36700 (2006) 72700 38300 39700 41900 43300 64500 86200 90300 119000 160000
2020-07-16 13:00 18.00 91900 261000 (1993) 36700 (2006) 72700 38300 39700 41900 43300 64500 86200 90300 119000 160000
2020-07-16 12:00 17.97 91600 261000 (1993) 36700 (2006) 72700 38300 39700 41900 43300 64500 86200 90300 119000 160000
2020-07-16 11:00 17.99 91800 261000 (1993) 36700 (2006) 72700 38300 39700 41900 43300 64500 86200 90300 119000 160000
2020-07-16 10:00 18.00 91900 261000 (1993) 36700 (2006) 72700 38300 39700 41900 43300 64500 86200 90300 119000 160000
2020-07-16 09:00 18.04 92200 261000 (1993) 36700 (2006) 72700 38300 39700 41900 43300 64500 86200 90300 119000 160000
2020-07-16 08:00 18.08 92500 261000 (1993) 36700 (2006) 72700 38300 39700 41900 43300 64500 86200 90300 119000 160000
2020-07-16 07:00 18.09 92600 261000 (1993) 36700 (2006) 72700 38300 39700 41900 43300 64500 86200 90300 119000 160000
2020-07-16 06:00 18.07 92500 261000 (1993) 36700 (2006) 72700 38300 39700 41900 43300 64500 86200 90300 119000 160000
2020-07-16 05:00 18.07 92500 261000 (1993) 36700 (2006) 72700 38300 39700 41900 43300 64500 86200 90300 119000 160000
2020-07-16 04:00 18.04 92200 261000 (1993) 36700 (2006) 72700 38300 39700 41900 43300 64500 86200 90300 119000 160000
2020-07-16 03:00 17.98 91700 261000 (1993) 36700 (2006) 72700 38300 39700 41900 43300 64500 86200 90300 119000 160000
2020-07-16 02:00 17.93 91300 261000 (1993) 36700 (2006) 72700 38300 39700 41900 43300 64500 86200 90300 119000 160000
2020-07-16 01:00 17.86 90800 261000 (1993) 36700 (2006) 72700 38300 39700 41900 43300 64500 86200 90300 119000 160000
2020-07-16 00:00 17.78 90100 261000 (1993) 36700 (2006) 72700 38300 39700 41900 43300 64500 86200 90300 119000 160000
2020-07-15 23:00 17.66 89100 254000 (1993) 36000 (2002) 74500 37800 38800 42400 43400 61700 88900 95200 130000 161000
2020-07-15 22:00 17.53 88100 254000 (1993) 36000 (2002) 74500 37800 38800 42400 43400 61700 88900 95200 130000 161000
2020-07-15 21:00 17.37 86900 254000 (1993) 36000 (2002) 74500 37800 38800 42400 43400 61700 88900 95200 130000 161000
2020-07-15 20:00 17.20 85500 254000 (1993) 36000 (2002) 74500 37800 38800 42400 43400 61700 88900 95200 130000 161000
2020-07-15 19:00 17.03 84200 254000 (1993) 36000 (2002) 74500 37800 38800 42400 43400 61700 88900 95200 130000 161000
2020-07-15 18:00 16.88 83100 254000 (1993) 36000 (2002) 74500 37800 38800 42400 43400 61700 88900 95200 130000 161000
2020-07-15 17:00 16.70 81700 254000 (1993) 36000 (2002) 74500 37800 38800 42400 43400 61700 88900 95200 130000 161000
2020-07-15 16:00 16.53 80400 254000 (1993) 36000 (2002) 74500 37800 38800 42400 43400 61700 88900 95200 130000 161000
2020-07-15 15:00 16.38 79300 254000 (1993) 36000 (2002) 74500 37800 38800 42400 43400 61700 88900 95200 130000 161000
2020-07-15 14:00 16.27 78500 254000 (1993) 36000 (2002) 74500 37800 38800 42400 43400 61700 88900 95200 130000 161000
2020-07-15 13:00 16.14 79800 254000 (1993) 36000 (2002) 74500 37800 38800 42400 43400 61700 88900 95200 130000 161000
2020-07-15 12:00 15.97 78500 254000 (1993) 36000 (2002) 74500 37800 38800 42400 43400 61700 88900 95200 130000 161000
2020-07-15 11:00 15.78 77100 254000 (1993) 36000 (2002) 74500 37800 38800 42400 43400 61700 88900 95200 130000 161000
2020-07-15 10:00 15.67 76400 254000 (1993) 36000 (2002) 74500 37800 38800 42400 43400 61700 88900 95200 130000 161000
2020-07-15 09:00 15.52 75300 254000 (1993) 36000 (2002) 74500 37800 38800 42400 43400 61700 88900 95200 130000 161000
2020-07-15 08:00 15.48 75000 254000 (1993) 36000 (2002) 74500 37800 38800 42400 43400 61700 88900 95200 130000 161000
2020-07-15 07:00 15.29 73700 254000 (1993) 36000 (2002) 74500 37800 38800 42400 43400 61700 88900 95200 130000 161000
2020-07-15 06:00 15.14 72600 254000 (1993) 36000 (2002) 74500 37800 38800 42400 43400 61700 88900 95200 130000 161000
2020-07-15 05:00 14.94 71200 254000 (1993) 36000 (2002) 74500 37800 38800 42400 43400 61700 88900 95200 130000 161000
2020-07-15 04:00 15.11 72400 254000 (1993) 36000 (2002) 74500 37800 38800 42400 43400 61700 88900 95200 130000 161000
2020-07-15 03:00 15.10 72300 254000 (1993) 36000 (2002) 74500 37800 38800 42400 43400 61700 88900 95200 130000 161000
2020-07-15 02:00 15.09 72300 254000 (1993) 36000 (2002) 74500 37800 38800 42400 43400 61700 88900 95200 130000 161000
2020-07-15 01:00 15.10 72300 254000 (1993) 36000 (2002) 74500 37800 38800 42400 43400 61700 88900 95200 130000 161000
2020-07-15 00:00 15.04 71900 254000 (1993) 36000 (2002) 74500 37800 38800 42400 43400 61700 88900 95200 130000 161000
2020-07-14 23:00 15.05 72000 252000 (1993) 35100 (2002) 76500 37900 38900 42600 43600 65000 91100 98500 127000 165000
2020-07-14 22:00 15.12 72500 252000 (1993) 35100 (2002) 76500 37900 38900 42600 43600 65000 91100 98500 127000 165000
2020-07-14 21:00 15.14 72600 252000 (1993) 35100 (2002) 76500 37900 38900 42600 43600 65000 91100 98500 127000 165000
2020-07-14 20:00 15.16 72800 252000 (1993) 35100 (2002) 76500 37900 38900 42600 43600 65000 91100 98500 127000 165000
2020-07-14 19:00 15.13 72600 252000 (1993) 35100 (2002) 76500 37900 38900 42600 43600 65000 91100 98500 127000 165000
2020-07-14 18:00 15.00 71700 252000 (1993) 35100 (2002) 76500 37900 38900 42600 43600 65000 91100 98500 127000 165000
2020-07-14 17:00 15.05 72000 252000 (1993) 35100 (2002) 76500 37900 38900 42600 43600 65000 91100 98500 127000 165000
2020-07-14 16:00 15.13 72600 252000 (1993) 35100 (2002) 76500 37900 38900 42600 43600 65000 91100 98500 127000 165000
2020-07-14 15:00 15.11 72400 252000 (1993) 35100 (2002) 76500 37900 38900 42600 43600 65000 91100 98500 127000 165000
2020-07-14 14:00 15.14 72600 252000 (1993) 35100 (2002) 76500 37900 38900 42600 43600 65000 91100 98500 127000 165000
2020-07-14 13:00 15.10 72300 252000 (1993) 35100 (2002) 76500 37900 38900 42600 43600 65000 91100 98500 127000 165000
2020-07-14 12:00 15.18 72900 252000 (1993) 35100 (2002) 76500 37900 38900 42600 43600 65000 91100 98500 127000 165000
2020-07-14 11:00 15.03 71900 252000 (1993) 35100 (2002) 76500 37900 38900 42600 43600 65000 91100 98500 127000 165000
2020-07-14 10:00 15.02 71800 252000 (1993) 35100 (2002) 76500 37900 38900 42600 43600 65000 91100 98500 127000 165000
2020-07-14 09:00 15.18 72900 252000 (1993) 35100 (2002) 76500 37900 38900 42600 43600 65000 91100 98500 127000 165000
2020-07-14 08:00 15.14 72600 252000 (1993) 35100 (2002) 76500 37900 38900 42600 43600 65000 91100 98500 127000 165000
2020-07-14 07:00 15.20 73000 252000 (1993) 35100 (2002) 76500 37900 38900 42600 43600 65000 91100 98500 127000 165000
2020-07-14 06:00 15.20 73000 252000 (1993) 35100 (2002) 76500 37900 38900 42600 43600 65000 91100 98500 127000 165000
2020-07-14 05:00 15.18 72900 252000 (1993) 35100 (2002) 76500 37900 38900 42600 43600 65000 91100 98500 127000 165000
2020-07-14 04:00 15.18 72900 252000 (1993) 35100 (2002) 76500 37900 38900 42600 43600 65000 91100 98500 127000 165000
2020-07-14 03:00 15.19 73000 252000 (1993) 35100 (2002) 76500 37900 38900 42600 43600 65000 91100 98500 127000 165000
2020-07-14 02:00 15.17 72800 252000 (1993) 35100 (2002) 76500 37900 38900 42600 43600 65000 91100 98500 127000 165000
2020-07-14 01:00 15.18 72900 252000 (1993) 35100 (2002) 76500 37900 38900 42600 43600 65000 91100 98500 127000 165000
2020-07-14 00:00 15.17 72800 252000 (1993) 35100 (2002) 76500 37900 38900 42600 43600 65000 91100 98500 127000 165000
2020-07-13 23:00 15.15 72700 257000 (1993) 35000 (2002) 77600 38500 39800 42300 43900 61800 95200 98000 144000 171000
2020-07-13 22:00 15.15 72700 257000 (1993) 35000 (2002) 77600 38500 39800 42300 43900 61800 95200 98000 144000 171000
2020-07-13 21:00 15.14 72600 257000 (1993) 35000 (2002) 77600 38500 39800 42300 43900 61800 95200 98000 144000 171000
2020-07-13 20:00 15.13 72600 257000 (1993) 35000 (2002) 77600 38500 39800 42300 43900 61800 95200 98000 144000 171000
2020-07-13 19:00 15.15 72700 257000 (1993) 35000 (2002) 77600 38500 39800 42300 43900 61800 95200 98000 144000 171000
2020-07-13 18:00 15.12 72500 257000 (1993) 35000 (2002) 77600 38500 39800 42300 43900 61800 95200 98000 144000 171000
2020-07-13 17:00 15.05 72000 257000 (1993) 35000 (2002) 77600 38500 39800 42300 43900 61800 95200 98000 144000 171000
2020-07-13 16:00 15.01 71700 257000 (1993) 35000 (2002) 77600 38500 39800 42300 43900 61800 95200 98000 144000 171000
2020-07-13 15:00 15.02 71800 257000 (1993) 35000 (2002) 77600 38500 39800 42300 43900 61800 95200 98000 144000 171000
2020-07-13 14:00 15.03 71900 257000 (1993) 35000 (2002) 77600 38500 39800 42300 43900 61800 95200 98000 144000 171000
2020-07-13 13:00 15.04 71900 257000 (1993) 35000 (2002) 77600 38500 39800 42300 43900 61800 95200 98000 144000 171000
2020-07-13 12:00 15.00 71700 257000 (1993) 35000 (2002) 77600 38500 39800 42300 43900 61800 95200 98000 144000 171000
2020-07-13 11:00 15.03 71900 257000 (1993) 35000 (2002) 77600 38500 39800 42300 43900 61800 95200 98000 144000 171000
2020-07-13 10:00 15.02 71800 257000 (1993) 35000 (2002) 77600 38500 39800 42300 43900 61800 95200 98000 144000 171000
2020-07-13 09:00 15.01 71700 257000 (1993) 35000 (2002) 77600 38500 39800 42300 43900 61800 95200 98000 144000 171000
2020-07-13 08:00 14.99 71600 257000 (1993) 35000 (2002) 77600 38500 39800 42300 43900 61800 95200 98000 144000 171000
2020-07-13 07:00 14.97 71500 257000 (1993) 35000 (2002) 77600 38500 39800 42300 43900 61800 95200 98000 144000 171000
2020-07-13 06:00 14.97 71500 257000 (1993) 35000 (2002) 77600 38500 39800 42300 43900 61800 95200 98000 144000 171000
2020-07-13 05:00 14.97 71500 257000 (1993) 35000 (2002) 77600 38500 39800 42300 43900 61800 95200 98000 144000 171000
2020-07-13 04:00 14.97 71500 257000 (1993) 35000 (2002) 77600 38500 39800 42300 43900 61800 95200 98000 144000 171000
2020-07-13 03:00 14.95 71300 257000 (1993) 35000 (2002) 77600 38500 39800 42300 43900 61800 95200 98000 144000 171000
2020-07-13 02:00 14.96 71400 257000 (1993) 35000 (2002) 77600 38500 39800 42300 43900 61800 95200 98000 144000 171000
2020-07-13 01:00 14.97 71500 257000 (1993) 35000 (2002) 77600 38500 39800 42300 43900 61800 95200 98000 144000 171000
2020-07-13 00:00 14.97 71500 257000 (1993) 35000 (2002) 77600 38500 39800 42300 43900 61800 95200 98000 144000 171000
2020-07-12 23:00 14.98 71500 251000 (1993) 35500 (2002) 77900 38700 40200 42400 44000 62000 96400 103000 148000 171000
2020-07-12 22:00 14.98 71500 251000 (1993) 35500 (2002) 77900 38700 40200 42400 44000 62000 96400 103000 148000 171000
2020-07-12 21:00 14.98 71500 251000 (1993) 35500 (2002) 77900 38700 40200 42400 44000 62000 96400 103000 148000 171000
2020-07-12 20:00 14.98 71500 251000 (1993) 35500 (2002) 77900 38700 40200 42400 44000 62000 96400 103000 148000 171000
2020-07-12 19:00 15.01 71700 251000 (1993) 35500 (2002) 77900 38700 40200 42400 44000 62000 96400 103000 148000 171000
2020-07-12 18:00 15.02 71800 251000 (1993) 35500 (2002) 77900 38700 40200 42400 44000 62000 96400 103000 148000 171000
2020-07-12 17:00 15.04 71900 251000 (1993) 35500 (2002) 77900 38700 40200 42400 44000 62000 96400 103000 148000 171000
2020-07-12 16:00 14.97 71500 251000 (1993) 35500 (2002) 77900 38700 40200 42400 44000 62000 96400 103000 148000 171000
2020-07-12 15:00 14.97 71500 251000 (1993) 35500 (2002) 77900 38700 40200 42400 44000 62000 96400 103000 148000 171000
2020-07-12 14:00 15.10 72300 251000 (1993) 35500 (2002) 77900 38700 40200 42400 44000 62000 96400 103000 148000 171000
2020-07-12 13:00 15.10 72300 251000 (1993) 35500 (2002) 77900 38700 40200 42400 44000 62000 96400 103000 148000 171000
2020-07-12 12:00 15.06 72100 251000 (1993) 35500 (2002) 77900 38700 40200 42400 44000 62000 96400 103000 148000 171000
2020-07-12 11:00 15.15 72700 251000 (1993) 35500 (2002) 77900 38700 40200 42400 44000 62000 96400 103000 148000 171000
2020-07-12 10:00 15.17 72800 251000 (1993) 35500 (2002) 77900 38700 40200 42400 44000 62000 96400 103000 148000 171000
2020-07-12 09:00 15.19 73000 251000 (1993) 35500 (2002) 77900 38700 40200 42400 44000 62000 96400 103000 148000 171000
2020-07-12 08:00 15.19 73000 251000 (1993) 35500 (2002) 77900 38700 40200 42400 44000 62000 96400 103000 148000 171000
2020-07-12 07:00 15.19 73000 251000 (1993) 35500 (2002) 77900 38700 40200 42400 44000 62000 96400 103000 148000 171000
2020-07-12 06:00 15.26 73500 251000 (1993) 35500 (2002) 77900 38700 40200 42400 44000 62000 96400 103000 148000 171000
2020-07-12 05:00 15.27 73500 251000 (1993) 35500 (2002) 77900 38700 40200 42400 44000 62000 96400 103000 148000 171000
2020-07-12 04:00 15.28 73600 251000 (1993) 35500 (2002) 77900 38700 40200 42400 44000 62000 96400 103000 148000 171000
2020-07-12 03:00 15.27 73500 251000 (1993) 35500 (2002) 77900 38700 40200 42400 44000 62000 96400 103000 148000 171000
2020-07-12 02:00 15.34 74000 251000 (1993) 35500 (2002) 77900 38700 40200 42400 44000 62000 96400 103000 148000 171000
2020-07-12 01:00 15.35 74100 251000 (1993) 35500 (2002) 77900 38700 40200 42400 44000 62000 96400 103000 148000 171000
2020-07-12 00:00 15.38 74300 251000 (1993) 35500 (2002) 77900 38700 40200 42400 44000 62000 96400 103000 148000 171000
2020-07-11 23:00 15.38 74300 248000 (2011) 34900 (2002) 77300 39200 40100 42500 44300 65000 98300 106000 126000 172000
2020-07-11 22:00 15.41 74500 248000 (2011) 34900 (2002) 77300 39200 40100 42500 44300 65000 98300 106000 126000 172000
2020-07-11 21:00 15.40 74400 248000 (2011) 34900 (2002) 77300 39200 40100 42500 44300 65000 98300 106000 126000 172000
2020-07-11 20:00 15.41 74500 248000 (2011) 34900 (2002) 77300 39200 40100 42500 44300 65000 98300 106000 126000 172000
2020-07-11 19:00 15.45 74800 248000 (2011) 34900 (2002) 77300 39200 40100 42500 44300 65000 98300 106000 126000 172000
2020-07-11 18:00 15.47 74900 248000 (2011) 34900 (2002) 77300 39200 40100 42500 44300 65000 98300 106000 126000 172000
2020-07-11 17:00 15.48 75000 248000 (2011) 34900 (2002) 77300 39200 40100 42500 44300 65000 98300 106000 126000 172000
2020-07-11 16:00 15.48 75000 248000 (2011) 34900 (2002) 77300 39200 40100 42500 44300 65000 98300 106000 126000 172000
2020-07-11 15:00 15.49 75100 248000 (2011) 34900 (2002) 77300 39200 40100 42500 44300 65000 98300 106000 126000 172000
2020-07-11 14:00 15.50 75100 248000 (2011) 34900 (2002) 77300 39200 40100 42500 44300 65000 98300 106000 126000 172000
2020-07-11 13:00 15.50 75100 248000 (2011) 34900 (2002) 77300 39200 40100 42500 44300 65000 98300 106000 126000 172000
2020-07-11 12:00 15.49 75100 248000 (2011) 34900 (2002) 77300 39200 40100 42500 44300 65000 98300 106000 126000 172000
2020-07-11 11:00 15.53 75400 248000 (2011) 34900 (2002) 77300 39200 40100 42500 44300 65000 98300 106000 126000 172000
2020-07-11 10:00 15.54 75400 248000 (2011) 34900 (2002) 77300 39200 40100 42500 44300 65000 98300 106000 126000 172000
2020-07-11 09:00 15.55 75500 248000 (2011) 34900 (2002) 77300 39200 40100 42500 44300 65000 98300 106000 126000 172000
2020-07-11 08:00 15.54 75400 248000 (2011) 34900 (2002) 77300 39200 40100 42500 44300 65000 98300 106000 126000 172000
2020-07-11 07:00 15.53 75400 248000 (2011) 34900 (2002) 77300 39200 40100 42500 44300 65000 98300 106000 126000 172000
2020-07-11 06:00 15.53 75400 248000 (2011) 34900 (2002) 77300 39200 40100 42500 44300 65000 98300 106000 126000 172000
2020-07-11 05:00 15.55 75500 248000 (2011) 34900 (2002) 77300 39200 40100 42500 44300 65000 98300 106000 126000 172000
2020-07-11 04:00 15.56 75600 248000 (2011) 34900 (2002) 77300 39200 40100 42500 44300 65000 98300 106000 126000 172000
2020-07-11 03:00 15.56 75600 248000 (2011) 34900 (2002) 77300 39200 40100 42500 44300 65000 98300 106000 126000 172000
2020-07-11 02:00 15.56 75600 248000 (2011) 34900 (2002) 77300 39200 40100 42500 44300 65000 98300 106000 126000 172000
2020-07-11 01:00 15.58 75700 248000 (2011) 34900 (2002) 77300 39200 40100 42500 44300 65000 98300 106000 126000 172000
2020-07-11 00:00 15.57 75600 248000 (2011) 34900 (2002) 77300 39200 40100 42500 44300 65000 98300 106000 126000 172000
2020-07-10 23:00 15.57 75600 256000 (2011) 34600 (2006) 77500 37400 40300 44300 45700 61400 98100 110000 130000 178000
2020-07-10 22:00 15.58 75700 256000 (2011) 34600 (2006) 77500 37400 40300 44300 45700 61400 98100 110000 130000 178000
2020-07-10 21:00 15.58 75700 256000 (2011) 34600 (2006) 77500 37400 40300 44300 45700 61400 98100 110000 130000 178000
2020-07-10 20:00 15.60 75900 256000 (2011) 34600 (2006) 77500 37400 40300 44300 45700 61400 98100 110000 130000 178000
2020-07-10 19:00 15.61 75900 256000 (2011) 34600 (2006) 77500 37400 40300 44300 45700 61400 98100 110000 130000 178000
2020-07-10 18:00 15.63 76100 256000 (2011) 34600 (2006) 77500 37400 40300 44300 45700 61400 98100 110000 130000 178000
2020-07-10 17:00 15.60 75900 256000 (2011) 34600 (2006) 77500 37400 40300 44300 45700 61400 98100 110000 130000 178000
2020-07-10 16:00 15.65 76200 256000 (2011) 34600 (2006) 77500 37400 40300 44300 45700 61400 98100 110000 130000 178000
2020-07-10 15:00 15.66 76300 256000 (2011) 34600 (2006) 77500 37400 40300 44300 45700 61400 98100 110000 130000 178000
2020-07-10 14:00 15.67 76400 256000 (2011) 34600 (2006) 77500 37400 40300 44300 45700 61400 98100 110000 130000 178000
2020-07-10 13:00 15.70 76600 256000 (2011) 34600 (2006) 77500 37400 40300 44300 45700 61400 98100 110000 130000 178000
2020-07-10 12:00 15.70 76600 256000 (2011) 34600 (2006) 77500 37400 40300 44300 45700 61400 98100 110000 130000 178000
2020-07-10 11:00 15.72 76700 256000 (2011) 34600 (2006) 77500 37400 40300 44300 45700 61400 98100 110000 130000 178000
2020-07-10 10:00 15.73 76800 256000 (2011) 34600 (2006) 77500 37400 40300 44300 45700 61400 98100 110000 130000 178000
2020-07-10 09:00 15.74 76900 256000 (2011) 34600 (2006) 77500 37400 40300 44300 45700 61400 98100 110000 130000 178000
2020-07-10 08:00 15.75 76900 256000 (2011) 34600 (2006) 77500 37400 40300 44300 45700 61400 98100 110000 130000 178000
2020-07-10 07:00 15.77 77100 256000 (2011) 34600 (2006) 77500 37400 40300 44300 45700 61400 98100 110000 130000 178000
2020-07-10 06:00 15.80 77300 256000 (2011) 34600 (2006) 77500 37400 40300 44300 45700 61400 98100 110000 130000 178000
2020-07-10 05:00 15.81 77400 256000 (2011) 34600 (2006) 77500 37400 40300 44300 45700 61400 98100 110000 130000 178000
2020-07-10 04:00 15.82 77400 256000 (2011) 34600 (2006) 77500 37400 40300 44300 45700 61400 98100 110000 130000 178000
2020-07-10 03:00 15.81 77400 256000 (2011) 34600 (2006) 77500 37400 40300 44300 45700 61400 98100 110000 130000 178000
2020-07-10 02:00 15.82 77400 256000 (2011) 34600 (2006) 77500 37400 40300 44300 45700 61400 98100 110000 130000 178000
2020-07-10 01:00 15.82 77400 256000 (2011) 34600 (2006) 77500 37400 40300 44300 45700 61400 98100 110000 130000 178000
2020-07-10 00:00 15.83 77500 256000 (2011) 34600 (2006) 77500 37400 40300 44300 45700 61400 98100 110000 130000 178000
2020-07-09 23:00 15.84 77600 261000 (2011) 34500 (2006) 78400 37800 40300 45900 46900 64400 99500 114000 142000 181000
2020-07-09 22:00 15.87 77800 261000 (2011) 34500 (2006) 78400 37800 40300 45900 46900 64400 99500 114000 142000 181000
2020-07-09 21:00 15.89 77900 261000 (2011) 34500 (2006) 78400 37800 40300 45900 46900 64400 99500 114000 142000 181000
2020-07-09 20:00 15.83 77500 261000 (2011) 34500 (2006) 78400 37800 40300 45900 46900 64400 99500 114000 142000 181000
2020-07-09 19:00 15.87 77800 261000 (2011) 34500 (2006) 78400 37800 40300 45900 46900 64400 99500 114000 142000 181000
2020-07-09 18:00 15.89 77900 261000 (2011) 34500 (2006) 78400 37800 40300 45900 46900 64400 99500 114000 142000 181000
2020-07-09 17:00 15.91 78100 261000 (2011) 34500 (2006) 78400 37800 40300 45900 46900 64400 99500 114000 142000 181000
2020-07-09 16:00 15.95 78400 261000 (2011) 34500 (2006) 78400 37800 40300 45900 46900 64400 99500 114000 142000 181000
2020-07-09 15:00 15.94 78300 261000 (2011) 34500 (2006) 78400 37800 40300 45900 46900 64400 99500 114000 142000 181000
2020-07-09 14:00 15.95 78400 261000 (2011) 34500 (2006) 78400 37800 40300 45900 46900 64400 99500 114000 142000 181000
2020-07-09 13:00 15.95 78400 261000 (2011) 34500 (2006) 78400 37800 40300 45900 46900 64400 99500 114000 142000 181000
2020-07-09 12:00 15.99 78700 261000 (2011) 34500 (2006) 78400 37800 40300 45900 46900 64400 99500 114000 142000 181000
2020-07-09 11:00 15.98 78600 261000 (2011) 34500 (2006) 78400 37800 40300 45900 46900 64400 99500 114000 142000 181000
2020-07-09 10:00 15.99 78700 261000 (2011) 34500 (2006) 78400 37800 40300 45900 46900 64400 99500 114000 142000 181000
2020-07-09 09:00 16.03 79000 261000 (2011) 34500 (2006) 78400 37800 40300 45900 46900 64400 99500 114000 142000 181000
2020-07-09 08:00 16.02 78900 261000 (2011) 34500 (2006) 78400 37800 40300 45900 46900 64400 99500 114000 142000 181000
2020-07-09 07:00 16.08 79300 261000 (2011) 34500 (2006) 78400 37800 40300 45900 46900 64400 99500 114000 142000 181000
2020-07-09 06:00 16.10 79500 261000 (2011) 34500 (2006) 78400 37800 40300 45900 46900 64400 99500 114000 142000 181000
2020-07-09 05:00 16.09 79400 261000 (2011) 34500 (2006) 78400 37800 40300 45900 46900 64400 99500 114000 142000 181000
2020-07-09 04:00 16.09 79400 261000 (2011) 34500 (2006) 78400 37800 40300 45900 46900 64400 99500 114000 142000 181000
2020-07-09 03:00 16.10 79500 261000 (2011) 34500 (2006) 78400 37800 40300 45900 46900 64400 99500 114000 142000 181000
2020-07-09 02:00 16.12 79600 261000 (2011) 34500 (2006) 78400 37800 40300 45900 46900 64400 99500 114000 142000 181000
2020-07-09 01:00 16.13 79700 261000 (2011) 34500 (2006) 78400 37800 40300 45900 46900 64400 99500 114000 142000 181000
2020-07-09 00:00 16.16 79900 261000 (2011) 34500 (2006) 78400 37800 40300 45900 46900 64400 99500 114000 142000 181000
2020-07-08 23:00 16.16 79900 255000 (2011) 34900 (2006) 81100 37000 42100 46600 48300 64600 108000 113000 157000 184000
2020-07-08 22:00 16.15 79900 255000 (2011) 34900 (2006) 81100 37000 42100 46600 48300 64600 108000 113000 157000 184000
2020-07-08 21:00 16.18 80100 255000 (2011) 34900 (2006) 81100 37000 42100 46600 48300 64600 108000 113000 157000 184000
2020-07-08 20:00 16.14 79800 255000 (2011) 34900 (2006) 81100 37000 42100 46600 48300 64600 108000 113000 157000 184000
2020-07-08 19:00 16.20 80200 255000 (2011) 34900 (2006) 81100 37000 42100 46600 48300 64600 108000 113000 157000 184000
2020-07-08 18:00 16.21 80300 255000 (2011) 34900 (2006) 81100 37000 42100 46600 48300 64600 108000 113000 157000 184000
2020-07-08 17:00 16.19 80100 255000 (2011) 34900 (2006) 81100 37000 42100 46600 48300 64600 108000 113000 157000 184000
2020-07-08 16:00 16.20 78700 255000 (2011) 34900 (2006) 81100 37000 42100 46600 48300 64600 108000 113000 157000 184000
2020-07-08 15:00 16.21 78800 255000 (2011) 34900 (2006) 81100 37000 42100 46600 48300 64600 108000 113000 157000 184000
2020-07-08 14:00 16.21 78800 255000 (2011) 34900 (2006) 81100 37000 42100 46600 48300 64600 108000 113000 157000 184000
2020-07-08 13:00 16.20 78700 255000 (2011) 34900 (2006) 81100 37000 42100 46600 48300 64600 108000 113000 157000 184000
2020-07-08 12:00 16.20 78700 255000 (2011) 34900 (2006) 81100 37000 42100 46600 48300 64600 108000 113000 157000 184000
2020-07-08 11:00 16.18 78600 255000 (2011) 34900 (2006) 81100 37000 42100 46600 48300 64600 108000 113000 157000 184000
2020-07-08 10:00 16.18 78600 255000 (2011) 34900 (2006) 81100 37000 42100 46600 48300 64600 108000 113000 157000 184000
2020-07-08 09:00 16.16 78500 255000 (2011) 34900 (2006) 81100 37000 42100 46600 48300 64600 108000 113000 157000 184000
2020-07-08 08:00 16.04 77600 255000 (2011) 34900 (2006) 81100 37000 42100 46600 48300 64600 108000 113000 157000 184000
2020-07-08 07:00 16.14 78300 255000 (2011) 34900 (2006) 81100 37000 42100 46600 48300 64600 108000 113000 157000 184000
2020-07-08 06:00 16.16 78500 255000 (2011) 34900 (2006) 81100 37000 42100 46600 48300 64600 108000 113000 157000 184000
2020-07-08 05:00 16.17 78500 255000 (2011) 34900 (2006) 81100 37000 42100 46600 48300 64600 108000 113000 157000 184000
2020-07-08 04:00 16.16 78500 255000 (2011) 34900 (2006) 81100 37000 42100 46600 48300 64600 108000 113000 157000 184000
2020-07-08 03:00 16.16 78500 255000 (2011) 34900 (2006) 81100 37000 42100 46600 48300 64600 108000 113000 157000 184000
2020-07-08 02:00 16.15 78400 255000 (2011) 34900 (2006) 81100 37000 42100 46600 48300 64600 108000 113000 157000 184000
2020-07-08 01:00 16.17 78500 255000 (2011) 34900 (2006) 81100 37000 42100 46600 48300 64600 108000 113000 157000 184000
2020-07-08 00:00 16.17 78500 255000 (2011) 34900 (2006) 81100 37000 42100 46600 48300 64600 108000 113000 157000 184000
2020-07-07 23:00 16.18 78600 246000 (2011) 35500 (2006) 80900 38200 41600 46500 49800 66500 98000 108000 140000 185000
2020-07-07 22:00 16.19 78700 246000 (2011) 35500 (2006) 80900 38200 41600 46500 49800 66500 98000 108000 140000 185000
2020-07-07 21:00 16.17 78500 246000 (2011) 35500 (2006) 80900 38200 41600 46500 49800 66500 98000 108000 140000 185000
2020-07-07 20:00 16.10 78000 246000 (2011) 35500 (2006) 80900 38200 41600 46500 49800 66500 98000 108000 140000 185000
2020-07-07 19:00 16.26 79200 246000 (2011) 35500 (2006) 80900 38200 41600 46500 49800 66500 98000 108000 140000 185000
2020-07-07 18:00 16.27 79300 246000 (2011) 35500 (2006) 80900 38200 41600 46500 49800 66500 98000 108000 140000 185000
2020-07-07 17:00 16.22 78900 246000 (2011) 35500 (2006) 80900 38200 41600 46500 49800 66500 98000 108000 140000 185000
2020-07-07 16:00 16.30 79500 246000 (2011) 35500 (2006) 80900 38200 41600 46500 49800 66500 98000 108000 140000 185000
2020-07-07 15:00 16.32 79600 246000 (2011) 35500 (2006) 80900 38200 41600 46500 49800 66500 98000 108000 140000 185000
2020-07-07 14:00 16.34 79800 246000 (2011) 35500 (2006) 80900 38200 41600 46500 49800 66500 98000 108000 140000 185000
2020-07-07 13:00 16.37 80000 246000 (2011) 35500 (2006) 80900 38200 41600 46500 49800 66500 98000 108000 140000 185000
2020-07-07 12:00 16.37 80000 246000 (2011) 35500 (2006) 80900 38200 41600 46500 49800 66500 98000 108000 140000 185000
2020-07-07 11:00 16.38 80100 246000 (2011) 35500 (2006) 80900 38200 41600 46500 49800 66500 98000 108000 140000 185000
2020-07-07 10:00 16.41 80300 246000 (2011) 35500 (2006) 80900 38200 41600 46500 49800 66500 98000 108000 140000 185000
2020-07-07 09:00 16.45 80600 246000 (2011) 35500 (2006) 80900 38200 41600 46500 49800 66500 98000 108000 140000 185000
2020-07-07 08:00 16.48 80800 246000 (2011) 35500 (2006) 80900 38200 41600 46500 49800 66500 98000 108000 140000 185000
2020-07-07 07:00 16.51 81000 246000 (2011) 35500 (2006) 80900 38200 41600 46500 49800 66500 98000 108000 140000 185000
2020-07-07 06:00 16.52 81100 246000 (2011) 35500 (2006) 80900 38200 41600 46500 49800 66500 98000 108000 140000 185000
2020-07-07 05:00 16.54 81300 246000 (2011) 35500 (2006) 80900 38200 41600 46500 49800 66500 98000 108000 140000 185000
2020-07-07 04:00 16.56 81400 246000 (2011) 35500 (2006) 80900 38200 41600 46500 49800 66500 98000 108000 140000 185000
2020-07-07 03:00 16.58 81600 246000 (2011) 35500 (2006) 80900 38200 41600 46500 49800 66500 98000 108000 140000 185000
2020-07-07 02:00 16.58 81600 246000 (2011) 35500 (2006) 80900 38200 41600 46500 49800 66500 98000 108000 140000 185000
2020-07-07 01:00 16.57 81500 246000 (2011) 35500 (2006) 80900 38200 41600 46500 49800 66500 98000 108000 140000 185000
2020-07-07 00:00 16.62 81900 246000 (2011) 35500 (2006) 80900 38200 41600 46500 49800 66500 98000 108000 140000 185000
2020-07-06 23:00 16.66 82200 240000 (2011) 36200 (2002) 79700 39000 42300 46400 50700 69100 90300 101000 135000 189000
2020-07-06 22:00 16.69 82400 240000 (2011) 36200 (2002) 79700 39000 42300 46400 50700 69100 90300 101000 135000 189000
2020-07-06 21:00 16.73 82700 240000 (2011) 36200 (2002) 79700 39000 42300 46400 50700 69100 90300 101000 135000 189000
2020-07-06 20:00 16.72 82600 240000 (2011) 36200 (2002) 79700 39000 42300 46400 50700 69100 90300 101000 135000 189000
2020-07-06 19:00 16.77 83000 240000 (2011) 36200 (2002) 79700 39000 42300 46400 50700 69100 90300 101000 135000 189000
2020-07-06 18:00 16.81 83300 240000 (2011) 36200 (2002) 79700 39000 42300 46400 50700 69100 90300 101000 135000 189000
2020-07-06 17:00 16.84 83500 240000 (2011) 36200 (2002) 79700 39000 42300 46400 50700 69100 90300 101000 135000 189000
2020-07-06 16:00 16.77 83000 240000 (2011) 36200 (2002) 79700 39000 42300 46400 50700 69100 90300 101000 135000 189000
2020-07-06 15:00 16.87 83800 240000 (2011) 36200 (2002) 79700 39000 42300 46400 50700 69100 90300 101000 135000 189000
2020-07-06 14:00 16.90 84000 240000 (2011) 36200 (2002) 79700 39000 42300 46400 50700 69100 90300 101000 135000 189000
2020-07-06 13:00 16.91 84100 240000 (2011) 36200 (2002) 79700 39000 42300 46400 50700 69100 90300 101000 135000 189000
2020-07-06 12:00 16.93 84200 240000 (2011) 36200 (2002) 79700 39000 42300 46400 50700 69100 90300 101000 135000 189000
2020-07-06 11:00 16.95 84400 240000 (2011) 36200 (2002) 79700 39000 42300 46400 50700 69100 90300 101000 135000 189000
2020-07-06 10:00 16.99 84700 240000 (2011) 36200 (2002) 79700 39000 42300 46400 50700 69100 90300 101000 135000 189000
2020-07-06 09:00 17.00 84800 240000 (2011) 36200 (2002) 79700 39000 42300 46400 50700 69100 90300 101000 135000 189000
2020-07-06 08:00 17.01 84800 240000 (2011) 36200 (2002) 79700 39000 42300 46400 50700 69100 90300 101000 135000 189000
2020-07-06 07:00 17.08 85400 240000 (2011) 36200 (2002) 79700 39000 42300 46400 50700 69100 90300 101000 135000 189000
2020-07-06 06:00 17.11 85600 240000 (2011) 36200 (2002) 79700 39000 42300 46400 50700 69100 90300 101000 135000 189000
2020-07-06 05:00 17.14 85800 240000 (2011) 36200 (2002) 79700 39000 42300 46400 50700 69100 90300 101000 135000 189000
2020-07-06 04:00 17.16 86000 240000 (2011) 36200 (2002) 79700 39000 42300 46400 50700 69100 90300 101000 135000 189000
2020-07-06 03:00 17.18 86200 240000 (2011) 36200 (2002) 79700 39000 42300 46400 50700 69100 90300 101000 135000 189000
2020-07-06 02:00 17.21 86400 240000 (2011) 36200 (2002) 79700 39000 42300 46400 50700 69100 90300 101000 135000 189000
2020-07-06 01:00 17.23 86500 240000 (2011) 36200 (2002) 79700 39000 42300 46400 50700 69100 90300 101000 135000 189000
2020-07-06 00:00 17.24 86600 240000 (2011) 36200 (2002) 79700 39000 42300 46400 50700 69100 90300 101000 135000 189000
2020-07-05 23:00 17.27 86900 236000 (2011) 37100 (2002) 80900 38800 42300 46400 50000 67700 99400 110000 136000 188000
2020-07-05 22:00 17.28 86900 236000 (2011) 37100 (2002) 80900 38800 42300 46400 50000 67700 99400 110000 136000 188000
2020-07-05 21:00 17.33 87300 236000 (2011) 37100 (2002) 80900 38800 42300 46400 50000 67700 99400 110000 136000 188000
2020-07-05 20:00 17.40 87900 236000 (2011) 37100 (2002) 80900 38800 42300 46400 50000 67700 99400 110000 136000 188000
2020-07-05 19:00 17.43 88100 236000 (2011) 37100 (2002) 80900 38800 42300 46400 50000 67700 99400 110000 136000 188000
2020-07-05 18:00 17.50 88700 236000 (2011) 37100 (2002) 80900 38800 42300 46400 50000 67700 99400 110000 136000 188000
2020-07-05 17:00 17.55 89100 236000 (2011) 37100 (2002) 80900 38800 42300 46400 50000 67700 99400 110000 136000 188000
2020-07-05 16:00 17.54 89000 236000 (2011) 37100 (2002) 80900 38800 42300 46400 50000 67700 99400 110000 136000 188000
2020-07-05 15:00 17.62 89600 236000 (2011) 37100 (2002) 80900 38800 42300 46400 50000 67700 99400 110000 136000 188000
2020-07-05 14:00 17.72 90400 236000 (2011) 37100 (2002) 80900 38800 42300 46400 50000 67700 99400 110000 136000 188000
2020-07-05 13:00 17.76 90800 236000 (2011) 37100 (2002) 80900 38800 42300 46400 50000 67700 99400 110000 136000 188000
2020-07-05 12:00 17.81 91200 236000 (2011) 37100 (2002) 80900 38800 42300 46400 50000 67700 99400 110000 136000 188000
2020-07-05 11:00 17.80 91100 236000 (2011) 37100 (2002) 80900 38800 42300 46400 50000 67700 99400 110000 136000 188000
2020-07-05 10:00 17.79 91000 236000 (2011) 37100 (2002) 80900 38800 42300 46400 50000 67700 99400 110000 136000 188000
2020-07-05 09:00 17.87 91600 236000 (2011) 37100 (2002) 80900 38800 42300 46400 50000 67700 99400 110000 136000 188000
2020-07-05 08:00 17.88 91700 236000 (2011) 37100 (2002) 80900 38800 42300 46400 50000 67700 99400 110000 136000 188000
2020-07-05 07:00 18.02 92900 236000 (2011) 37100 (2002) 80900 38800 42300 46400 50000 67700 99400 110000 136000 188000
2020-07-05 06:00 18.06 93200 236000 (2011) 37100 (2002) 80900 38800 42300 46400 50000 67700 99400 110000 136000 188000
2020-07-05 05:00 18.10 93500 236000 (2011) 37100 (2002) 80900 38800 42300 46400 50000 67700 99400 110000 136000 188000
2020-07-05 04:00 18.13 93800 236000 (2011) 37100 (2002) 80900 38800 42300 46400 50000 67700 99400 110000 136000 188000
2020-07-05 03:00 18.12 93700 236000 (2011) 37100 (2002) 80900 38800 42300 46400 50000 67700 99400 110000 136000 188000
2020-07-05 02:00 18.17 94100 236000 (2011) 37100 (2002) 80900 38800 42300 46400 50000 67700 99400 110000 136000 188000
2020-07-05 01:00 18.14 93900 236000 (2011) 37100 (2002) 80900 38800 42300 46400 50000 67700 99400 110000 136000 188000
2020-07-05 00:00 18.20 94400 236000 (2011) 37100 (2002) 80900 38800 42300 46400 50000 67700 99400 110000 136000 188000
2020-07-04 23:00 18.16 94000 239000 (2011) 36000 (2006) 82400 39500 41800 47500 51000 67600 104000 108000 141000 187000
2020-07-04 22:00 18.16 94000 239000 (2011) 36000 (2006) 82400 39500 41800 47500 51000 67600 104000 108000 141000 187000
2020-07-04 21:00 18.12 93700 239000 (2011) 36000 (2006) 82400 39500 41800 47500 51000 67600 104000 108000 141000 187000
2020-07-04 20:00 18.12 93700 239000 (2011) 36000 (2006) 82400 39500 41800 47500 51000 67600 104000 108000 141000 187000
2020-07-04 19:00 18.15 93900 239000 (2011) 36000 (2006) 82400 39500 41800 47500 51000 67600 104000 108000 141000 187000
2020-07-04 18:00 18.15 93900 239000 (2011) 36000 (2006) 82400 39500 41800 47500 51000 67600 104000 108000 141000 187000
2020-07-04 17:00 18.08 93400 239000 (2011) 36000 (2006) 82400 39500 41800 47500 51000 67600 104000 108000 141000 187000
2020-07-04 16:00 18.11 93600 239000 (2011) 36000 (2006) 82400 39500 41800 47500 51000 67600 104000 108000 141000 187000
2020-07-04 15:00 18.07 93300 239000 (2011) 36000 (2006) 82400 39500 41800 47500 51000 67600 104000 108000 141000 187000
2020-07-04 14:00 18.09 93400 239000 (2011) 36000 (2006) 82400 39500 41800 47500 51000 67600 104000 108000 141000 187000
2020-07-04 13:00 18.06 93200 239000 (2011) 36000 (2006) 82400 39500 41800 47500 51000 67600 104000 108000 141000 187000
2020-07-04 12:00 18.01 92800 239000 (2011) 36000 (2006) 82400 39500 41800 47500 51000 67600 104000 108000 141000 187000
2020-07-04 11:00 18.03 93000 239000 (2011) 36000 (2006) 82400 39500 41800 47500 51000 67600 104000 108000 141000 187000
2020-07-04 10:00 17.99 92600 239000 (2011) 36000 (2006) 82400 39500 41800 47500 51000 67600 104000 108000 141000 187000
2020-07-04 09:00 18.05 93100 239000 (2011) 36000 (2006) 82400 39500 41800 47500 51000 67600 104000 108000 141000 187000
2020-07-04 08:00 17.94 92200 239000 (2011) 36000 (2006) 82400 39500 41800 47500 51000 67600 104000 108000 141000 187000
2020-07-04 07:00 17.94 92200 239000 (2011) 36000 (2006) 82400 39500 41800 47500 51000 67600 104000 108000 141000 187000
2020-07-04 06:00 18.07 93300 239000 (2011) 36000 (2006) 82400 39500 41800 47500 51000 67600 104000 108000 141000 187000
2020-07-04 05:00 18.09 93400 239000 (2011) 36000 (2006) 82400 39500 41800 47500 51000 67600 104000 108000 141000 187000
2020-07-04 04:00 18.10 93500 239000 (2011) 36000 (2006) 82400 39500 41800 47500 51000 67600 104000 108000 141000 187000
2020-07-04 03:00 18.12 93700 239000 (2011) 36000 (2006) 82400 39500 41800 47500 51000 67600 104000 108000 141000 187000
2020-07-04 02:00 18.14 93900 239000 (2011) 36000 (2006) 82400 39500 41800 47500 51000 67600 104000 108000 141000 187000
2020-07-04 01:00 18.15 93900 239000 (2011) 36000 (2006) 82400 39500 41800 47500 51000 67600 104000 108000 141000 187000
2020-07-04 00:00 18.15 93900 239000 (2011) 36000 (2006) 82400 39500 41800 47500 51000 67600 104000 108000 141000 187000
2020-07-03 23:00 18.11 93600 233000 (2011) 36000 (2006) 83600 37100 42300 47100 49900 68000 108000 116000 149000 192000
2020-07-03 22:00 18.17 94100 233000 (2011) 36000 (2006) 83600 37100 42300 47100 49900 68000 108000 116000 149000 192000
2020-07-03 21:00 18.13 93800 233000 (2011) 36000 (2006) 83600 37100 42300 47100 49900 68000 108000 116000 149000 192000
2020-07-03 20:00 18.15 93900 233000 (2011) 36000 (2006) 83600 37100 42300 47100 49900 68000 108000 116000 149000 192000
2020-07-03 19:00 18.19 94300 233000 (2011) 36000 (2006) 83600 37100 42300 47100 49900 68000 108000 116000 149000 192000
2020-07-03 18:00 18.21 94400 233000 (2011) 36000 (2006) 83600 37100 42300 47100 49900 68000 108000 116000 149000 192000
2020-07-03 17:00 18.14 93900 233000 (2011) 36000 (2006) 83600 37100 42300 47100 49900 68000 108000 116000 149000 192000
2020-07-03 16:00 18.13 93800 233000 (2011) 36000 (2006) 83600 37100 42300 47100 49900 68000 108000 116000 149000 192000
2020-07-03 15:00 18.17 94100 233000 (2011) 36000 (2006) 83600 37100 42300 47100 49900 68000 108000 116000 149000 192000
2020-07-03 14:00 18.14 93900 233000 (2011) 36000 (2006) 83600 37100 42300 47100 49900 68000 108000 116000 149000 192000
2020-07-03 13:00 18.14 93900 233000 (2011) 36000 (2006) 83600 37100 42300 47100 49900 68000 108000 116000 149000 192000
2020-07-03 12:00 18.03 93000 233000 (2011) 36000 (2006) 83600 37100 42300 47100 49900 68000 108000 116000 149000 192000
2020-07-03 11:00 17.98 92500 233000 (2011) 36000 (2006) 83600 37100 42300 47100 49900 68000 108000 116000 149000 192000
2020-07-03 10:00 17.98 92500 233000 (2011) 36000 (2006) 83600 37100 42300 47100 49900 68000 108000 116000 149000 192000
2020-07-03 09:00 17.99 92600 233000 (2011) 36000 (2006) 83600 37100 42300 47100 49900 68000 108000 116000 149000 192000
2020-07-03 08:00 18.06 93200 233000 (2011) 36000 (2006) 83600 37100 42300 47100 49900 68000 108000 116000 149000 192000
2020-07-03 07:00 18.05 93100 233000 (2011) 36000 (2006) 83600 37100 42300 47100 49900 68000 108000 116000 149000 192000
2020-07-03 06:00 18.03 93000 233000 (2011) 36000 (2006) 83600 37100 42300 47100 49900 68000 108000 116000 149000 192000
2020-07-03 05:00 17.98 92500 233000 (2011) 36000 (2006) 83600 37100 42300 47100 49900 68000 108000 116000 149000 192000
2020-07-03 04:00 17.95 92300 233000 (2011) 36000 (2006) 83600 37100 42300 47100 49900 68000 108000 116000 149000 192000
2020-07-03 03:00 17.91 92000 233000 (2011) 36000 (2006) 83600 37100 42300 47100 49900 68000 108000 116000 149000 192000
2020-07-03 02:00 17.88 91700 233000 (2011) 36000 (2006) 83600 37100 42300 47100 49900 68000 108000 116000 149000 192000
2020-07-03 01:00 17.91 92000 233000 (2011) 36000 (2006) 83600 37100 42300 47100 49900 68000 108000 116000 149000 192000
2020-07-03 00:00 17.90 91900 233000 (2011) 36000 (2006) 83600 37100 42300 47100 49900 68000 108000 116000 149000 192000
2020-07-02 23:00 17.90 91900 238000 (2011) 35200 (1958) 84600 37400 42400 46400 49100 67900 111000 117000 163000 189000
2020-07-02 22:00 17.91 92000 238000 (2011) 35200 (1958) 84600 37400 42400 46400 49100 67900 111000 117000 163000 189000
2020-07-02 21:00 17.84 91400 238000 (2011) 35200 (1958) 84600 37400 42400 46400 49100 67900 111000 117000 163000 189000
2020-07-02 20:00 17.84 91400 238000 (2011) 35200 (1958) 84600 37400 42400 46400 49100 67900 111000 117000 163000 189000
2020-07-02 19:00 17.74 90600 238000 (2011) 35200 (1958) 84600 37400 42400 46400 49100 67900 111000 117000 163000 189000
2020-07-02 18:00 17.87 91600 238000 (2011) 35200 (1958) 84600 37400 42400 46400 49100 67900 111000 117000 163000 189000
2020-07-02 17:00 17.89 91800 238000 (2011) 35200 (1958) 84600 37400 42400 46400 49100 67900 111000 117000 163000 189000
2020-07-02 16:00 17.79 91000 238000 (2011) 35200 (1958) 84600 37400 42400 46400 49100 67900 111000 117000 163000 189000
2020-07-02 15:00 17.79 91000 238000 (2011) 35200 (1958) 84600 37400 42400 46400 49100 67900 111000 117000 163000 189000
2020-07-02 14:00 17.87 91600 238000 (2011) 35200 (1958) 84600 37400 42400 46400 49100 67900 111000 117000 163000 189000
2020-07-02 13:00 17.87 91600 238000 (2011) 35200 (1958) 84600 37400 42400 46400 49100 67900 111000 117000 163000 189000
2020-07-02 12:00 17.84 91400 238000 (2011) 35200 (1958) 84600 37400 42400 46400 49100 67900 111000 117000 163000 189000
2020-07-02 11:00 17.84 91400 238000 (2011) 35200 (1958) 84600 37400 42400 46400 49100 67900 111000 117000 163000 189000
2020-07-02 10:00 17.93 92100 238000 (2011) 35200 (1958) 84600 37400 42400 46400 49100 67900 111000 117000 163000 189000
2020-07-02 09:00 17.96 92400 238000 (2011) 35200 (1958) 84600 37400 42400 46400 49100 67900 111000 117000 163000 189000
2020-07-02 08:00 18.01 92800 238000 (2011) 35200 (1958) 84600 37400 42400 46400 49100 67900 111000 117000 163000 189000
2020-07-02 07:00 18.04 93000 238000 (2011) 35200 (1958) 84600 37400 42400 46400 49100 67900 111000 117000 163000 189000
2020-07-02 06:00 18.05 93100 238000 (2011) 35200 (1958) 84600 37400 42400 46400 49100 67900 111000 117000 163000 189000
2020-07-02 05:00 18.08 93400 238000 (2011) 35200 (1958) 84600 37400 42400 46400 49100 67900 111000 117000 163000 189000
2020-07-02 04:00 18.10 93500 238000 (2011) 35200 (1958) 84600 37400 42400 46400 49100 67900 111000 117000 163000 189000
2020-07-02 03:00 18.11 93600 238000 (2011) 35200 (1958) 84600 37400 42400 46400 49100 67900 111000 117000 163000 189000
2020-07-02 02:00 18.16 94000 238000 (2011) 35200 (1958) 84600 37400 42400 46400 49100 67900 111000 117000 163000 189000
2020-07-02 01:00 18.17 94100 238000 (2011) 35200 (1958) 84600 37400 42400 46400 49100 67900 111000 117000 163000 189000
2020-07-02 00:00 18.15 93900 238000 (2011) 35200 (1958) 84600 37400 42400 46400 49100 67900 111000 117000 163000 189000
2020-07-01 23:00 18.13 93800 245000 (2011) 37200 (2006) 86000 38000 42900 47200 51900 68900 114000 123000 156000 207000
2020-07-01 22:00 18.09 93400 245000 (2011) 37200 (2006) 86000 38000 42900 47200 51900 68900 114000 123000 156000 207000
2020-07-01 21:00 18.04 93000 245000 (2011) 37200 (2006) 86000 38000 42900 47200 51900 68900 114000 123000 156000 207000
2020-07-01 20:00 17.91 92000 245000 (2011) 37200 (2006) 86000 38000 42900 47200 51900 68900 114000 123000 156000 207000
2020-07-01 19:00 17.89 91800 245000 (2011) 37200 (2006) 86000 38000 42900 47200 51900 68900 114000 123000 156000 207000
2020-07-01 18:00 17.88 91700 245000 (2011) 37200 (2006) 86000 38000 42900 47200 51900 68900 114000 123000 156000 207000
2020-07-01 17:00 17.80 91100 245000 (2011) 37200 (2006) 86000 38000 42900 47200 51900 68900 114000 123000 156000 207000
2020-07-01 16:00 17.72 90400 245000 (2011) 37200 (2006) 86000 38000 42900 47200 51900 68900 114000 123000 156000 207000
2020-07-01 15:00 17.62 89600 245000 (2011) 37200 (2006) 86000 38000 42900 47200 51900 68900 114000 123000 156000 207000
2020-07-01 14:00 17.57 92500 245000 (2011) 37200 (2006) 86000 38000 42900 47200 51900 68900 114000 123000 156000 207000
2020-07-01 13:00 17.51 92000 245000 (2011) 37200 (2006) 86000 38000 42900 47200 51900 68900 114000 123000 156000 207000
2020-07-01 12:00 17.40 91100 245000 (2011) 37200 (2006) 86000 38000 42900 47200 51900 68900 114000 123000 156000 207000
2020-07-01 11:00 17.40 91100 245000 (2011) 37200 (2006) 86000 38000 42900 47200 51900 68900 114000 123000 156000 207000
2020-07-01 10:00 17.29 90200 245000 (2011) 37200 (2006) 86000 38000 42900 47200 51900 68900 114000 123000 156000 207000
2020-07-01 09:00 17.15 89100 245000 (2011) 37200 (2006) 86000 38000 42900 47200 51900 68900 114000 123000 156000 207000
2020-07-01 08:00 17.31 90400 245000 (2011) 37200 (2006) 86000 38000 42900 47200 51900 68900 114000 123000 156000 207000
2020-07-01 07:00 17.38 90900 245000 (2011) 37200 (2006) 86000 38000 42900 47200 51900 68900 114000 123000 156000 207000
2020-07-01 06:00 17.34 90600 245000 (2011) 37200 (2006) 86000 38000 42900 47200 51900 68900 114000 123000 156000 207000
2020-07-01 05:00 17.32 90400 245000 (2011) 37200 (2006) 86000 38000 42900 47200 51900 68900 114000 123000 156000 207000
2020-07-01 04:00 17.31 90400 245000 (2011) 37200 (2006) 86000 38000 42900 47200 51900 68900 114000 123000 156000 207000
2020-07-01 03:00 17.38 90900 245000 (2011) 37200 (2006) 86000 38000 42900 47200 51900 68900 114000 123000 156000 207000
2020-07-01 02:00 17.38 90900 245000 (2011) 37200 (2006) 86000 38000 42900 47200 51900 68900 114000 123000 156000 207000
2020-07-01 01:00 17.41 91200 245000 (2011) 37200 (2006) 86000 38000 42900 47200 51900 68900 114000 123000 156000 207000
2020-07-01 00:00 17.38 90900 245000 (2011) 37200 (2006) 86000 38000 42900 47200 51900 68900 114000 123000 156000 207000
2020-06-30 23:00 17.40 91100 227000 (1999) 36600 (1988) 87300 38800 43000 48500 54000 68900 120000 125000 163000 213000
2020-06-30 22:00 17.44 91400 227000 (1999) 36600 (1988) 87300 38800 43000 48500 54000 68900 120000 125000 163000 213000
2020-06-30 21:00 17.44 91400 227000 (1999) 36600 (1988) 87300 38800 43000 48500 54000 68900 120000 125000 163000 213000
2020-06-30 20:00 17.44 91400 227000 (1999) 36600 (1988) 87300 38800 43000 48500 54000 68900 120000 125000 163000 213000
2020-06-30 19:00 17.61 92800 227000 (1999) 36600 (1988) 87300 38800 43000 48500 54000 68900 120000 125000 163000 213000
2020-06-30 18:00 17.61 92800 227000 (1999) 36600 (1988) 87300 38800 43000 48500 54000 68900 120000 125000 163000 213000
2020-06-30 17:00 17.66 93200 227000 (1999) 36600 (1988) 87300 38800 43000 48500 54000 68900 120000 125000 163000 213000
2020-06-30 16:00 17.68 93400 227000 (1999) 36600 (1988) 87300 38800 43000 48500 54000 68900 120000 125000 163000 213000
2020-06-30 15:00 17.68 93400 227000 (1999) 36600 (1988) 87300 38800 43000 48500 54000 68900 120000 125000 163000 213000
2020-06-30 14:00 17.74 93900 227000 (1999) 36600 (1988) 87300 38800 43000 48500 54000 68900 120000 125000 163000 213000
2020-06-30 13:00 17.80 94400 227000 (1999) 36600 (1988) 87300 38800 43000 48500 54000 68900 120000 125000 163000 213000
2020-06-30 12:00 17.81 94400 227000 (1999) 36600 (1988) 87300 38800 43000 48500 54000 68900 120000 125000 163000 213000
2020-06-30 11:00 17.86 94900 227000 (1999) 36600 (1988) 87300 38800 43000 48500 54000 68900 120000 125000 163000 213000
2020-06-30 10:00 17.90 95200 227000 (1999) 36600 (1988) 87300 38800 43000 48500 54000 68900 120000 125000 163000 213000
2020-06-30 09:00 17.92 95400 227000 (1999) 36600 (1988) 87300 38800 43000 48500 54000 68900 120000 125000 163000 213000
2020-06-30 08:00 17.96 95700 227000 (1999) 36600 (1988) 87300 38800 43000 48500 54000 68900 120000 125000 163000 213000
2020-06-30 07:00 18.00 96000 227000 (1999) 36600 (1988) 87300 38800 43000 48500 54000 68900 120000 125000 163000 213000
2020-06-30 06:00 18.06 96500 227000 (1999) 36600 (1988) 87300 38800 43000 48500 54000 68900 120000 125000 163000 213000
2020-06-30 05:00 18.11 97000 227000 (1999) 36600 (1988) 87300 38800 43000 48500 54000 68900 120000 125000 163000 213000
2020-06-30 04:00 18.18 97500 227000 (1999) 36600 (1988) 87300 38800 43000 48500 54000 68900 120000 125000 163000 213000
2020-06-30 03:00 18.22 97900 227000 (1999) 36600 (1988) 87300 38800 43000 48500 54000 68900 120000 125000 163000 213000
2020-06-30 02:00 18.14 97200 227000 (1999) 36600 (1988) 87300 38800 43000 48500 54000 68900 120000 125000 163000 213000
2020-06-30 01:00 18.31 98700 227000 (1999) 36600 (1988) 87300 38800 43000 48500 54000 68900 120000 125000 163000 213000
2020-06-30 00:00 18.33 98800 227000 (1999) 36600 (1988) 87300 38800 43000 48500 54000 68900 120000 125000 163000 213000
2020-06-29 23:00 18.35 99000 219000 (2019) 36200 (1988) 85900 39900 42900 49700 53600 69500 118000 124000 155000 192000
2020-06-29 22:00 18.42 99600 219000 (2019) 36200 (1988) 85900 39900 42900 49700 53600 69500 118000 124000 155000 192000
2020-06-29 21:00 18.47 100000 219000 (2019) 36200 (1988) 85900 39900 42900 49700 53600 69500 118000 124000 155000 192000
2020-06-29 20:00 18.51 100000 219000 (2019) 36200 (1988) 85900 39900 42900 49700 53600 69500 118000 124000 155000 192000
2020-06-29 19:00 18.57 101000 219000 (2019) 36200 (1988) 85900 39900 42900 49700 53600 69500 118000 124000 155000 192000
2020-06-29 18:00 18.59 101000 219000 (2019) 36200 (1988) 85900 39900 42900 49700 53600 69500 118000 124000 155000 192000
2020-06-29 17:00 18.64 102000 219000 (2019) 36200 (1988) 85900 39900 42900 49700 53600 69500 118000 124000 155000 192000
2020-06-29 16:00 18.67 102000 219000 (2019) 36200 (1988) 85900 39900 42900 49700 53600 69500 118000 124000 155000 192000
2020-06-29 15:00 18.69 102000 219000 (2019) 36200 (1988) 85900 39900 42900 49700 53600 69500 118000 124000 155000 192000
2020-06-29 14:00 18.76 103000 219000 (2019) 36200 (1988) 85900 39900 42900 49700 53600 69500 118000 124000 155000 192000
2020-06-29 13:00 18.82 103000 219000 (2019) 36200 (1988) 85900 39900 42900 49700 53600 69500 118000 124000 155000 192000
2020-06-29 12:00 18.85 103000 219000 (2019) 36200 (1988) 85900 39900 42900 49700 53600 69500 118000 124000 155000 192000
2020-06-29 11:00 18.79 103000 219000 (2019) 36200 (1988) 85900 39900 42900 49700 53600 69500 118000 124000 155000 192000
2020-06-29 10:00 18.89 104000 219000 (2019) 36200 (1988) 85900 39900 42900 49700 53600 69500 118000 124000 155000 192000
2020-06-29 09:00 18.92 104000 219000 (2019) 36200 (1988) 85900 39900 42900 49700 53600 69500 118000 124000 155000 192000
2020-06-29 08:00 18.94 104000 219000 (2019) 36200 (1988) 85900 39900 42900 49700 53600 69500 118000 124000 155000 192000
2020-06-29 07:00 18.95 104000 219000 (2019) 36200 (1988) 85900 39900 42900 49700 53600 69500 118000 124000 155000 192000
2020-06-29 06:00 18.95 104000 219000 (2019) 36200 (1988) 85900 39900 42900 49700 53600 69500 118000 124000 155000 192000
2020-06-29 05:00 18.97 104000 219000 (2019) 36200 (1988) 85900 39900 42900 49700 53600 69500 118000 124000 155000 192000
2020-06-29 04:00 18.99 105000 219000 (2019) 36200 (1988) 85900 39900 42900 49700 53600 69500 118000 124000 155000 192000
2020-06-29 03:00 18.98 105000 219000 (2019) 36200 (1988) 85900 39900 42900 49700 53600 69500 118000 124000 155000 192000
2020-06-29 02:00 18.99 105000 219000 (2019) 36200 (1988) 85900 39900 42900 49700 53600 69500 118000 124000 155000 192000
2020-06-29 01:00 18.99 105000 219000 (2019) 36200 (1988) 85900 39900 42900 49700 53600 69500 118000 124000 155000 192000
2020-06-29 00:00 19.01 105000 219000 (2019) 36200 (1988) 85900 39900 42900 49700 53600 69500 118000 124000 155000 192000
2020-06-28 23:00 19.00 105000 226000 (2019) 36600 (1988) 86000 40800 45000 51800 53800 70800 113000 120000 157000 186000
2020-06-28 22:00 19.01 105000 226000 (2019) 36600 (1988) 86000 40800 45000 51800 53800 70800 113000 120000 157000 186000
2020-06-28 21:00 18.99 105000 226000 (2019) 36600 (1988) 86000 40800 45000 51800 53800 70800 113000 120000 157000 186000
2020-06-28 20:00 18.99 105000 226000 (2019) 36600 (1988) 86000 40800 45000 51800 53800 70800 113000 120000 157000 186000
2020-06-28 19:00 18.90 104000 226000 (2019) 36600 (1988) 86000 40800 45000 51800 53800 70800 113000 120000 157000 186000
2020-06-28 18:00 18.88 104000 226000 (2019) 36600 (1988) 86000 40800 45000 51800 53800 70800 113000 120000 157000 186000
2020-06-28 17:00 18.85 103000 226000 (2019) 36600 (1988) 86000 40800 45000 51800 53800 70800 113000 120000 157000 186000
2020-06-28 16:00 18.79 103000 226000 (2019) 36600 (1988) 86000 40800 45000 51800 53800 70800 113000 120000 157000 186000
2020-06-28 15:00 18.74 102000 226000 (2019) 36600 (1988) 86000 40800 45000 51800 53800 70800 113000 120000 157000 186000
2020-06-28 14:00 18.61 101000 226000 (2019) 36600 (1988) 86000 40800 45000 51800 53800 70800 113000 120000 157000 186000
2020-06-28 13:00 18.54 101000 226000 (2019) 36600 (1988) 86000 40800 45000 51800 53800 70800 113000 120000 157000 186000
2020-06-28 12:00 18.42 99600 226000 (2019) 36600 (1988) 86000 40800 45000 51800 53800 70800 113000 120000 157000 186000
2020-06-28 11:00 18.42 99600 226000 (2019) 36600 (1988) 86000 40800 45000 51800 53800 70800 113000 120000 157000 186000
2020-06-28 10:00 18.33 98800 226000 (2019) 36600 (1988) 86000 40800 45000 51800 53800 70800 113000 120000 157000 186000
2020-06-28 09:00 18.29 98500 226000 (2019) 36600 (1988) 86000 40800 45000 51800 53800 70800 113000 120000 157000 186000
2020-06-28 08:00 18.26 98200 226000 (2019) 36600 (1988) 86000 40800 45000 51800 53800 70800 113000 120000 157000 186000
2020-06-28 07:00 18.15 97300 226000 (2019) 36600 (1988) 86000 40800 45000 51800 53800 70800 113000 120000 157000 186000
2020-06-28 06:00 18.06 96500 226000 (2019) 36600 (1988) 86000 40800 45000 51800 53800 70800 113000 120000 157000 186000
2020-06-28 05:00 17.97 95800 226000 (2019) 36600 (1988) 86000 40800 45000 51800 53800 70800 113000 120000 157000 186000
2020-06-28 04:00 17.86 94900 226000 (2019) 36600 (1988) 86000 40800 45000 51800 53800 70800 113000 120000 157000 186000
2020-06-28 03:00 17.80 94400 226000 (2019) 36600 (1988) 86000 40800 45000 51800 53800 70800 113000 120000 157000 186000
2020-06-28 02:00 17.71 93600 226000 (2019) 36600 (1988) 86000 40800 45000 51800 53800 70800 113000 120000 157000 186000
2020-06-28 01:00 17.66 93200 226000 (2019) 36600 (1988) 86000 40800 45000 51800 53800 70800 113000 120000 157000 186000
2020-06-28 00:00 17.60 92700 226000 (2019) 36600 (1988) 86000 40800 45000 51800 53800 70800 113000 120000 157000 186000
2020-06-27 23:00 17.51 92000 241000 (2019) 37200 (1988) 86800 41900 48000 50600 51900 70100 100000 122000 171000 191000
2020-06-27 22:00 17.42 91200 241000 (2019) 37200 (1988) 86800 41900 48000 50600 51900 70100 100000 122000 171000 191000
2020-06-27 21:00 17.41 91200 241000 (2019) 37200 (1988) 86800 41900 48000 50600 51900 70100 100000 122000 171000 191000
2020-06-27 20:00 17.40 91100 241000 (2019) 37200 (1988) 86800 41900 48000 50600 51900 70100 100000 122000 171000 191000
2020-06-27 19:00 17.36 90800 241000 (2019) 37200 (1988) 86800 41900 48000 50600 51900 70100 100000 122000 171000 191000
2020-06-27 18:00 17.26 89900 241000 (2019) 37200 (1988) 86800 41900 48000 50600 51900 70100 100000 122000 171000 191000
2020-06-27 17:00 17.28 90100 241000 (2019) 37200 (1988) 86800 41900 48000 50600 51900 70100 100000 122000 171000 191000
2020-06-27 16:00 17.20 89500 241000 (2019) 37200 (1988) 86800 41900 48000 50600 51900 70100 100000 122000 171000 191000
2020-06-27 15:00 17.22 89600 241000 (2019) 37200 (1988) 86800 41900 48000 50600 51900 70100 100000 122000 171000 191000
2020-06-27 14:00 17.14 89000 241000 (2019) 37200 (1988) 86800 41900 48000 50600 51900 70100 100000 122000 171000 191000
2020-06-27 13:00 17.18 89300 241000 (2019) 37200 (1988) 86800 41900 48000 50600 51900 70100 100000 122000 171000 191000
2020-06-27 12:00 17.04 88200 241000 (2019) 37200 (1988) 86800 41900 48000 50600 51900 70100 100000 122000 171000 191000
2020-06-27 11:00 17.10 88700 241000 (2019) 37200 (1988) 86800 41900 48000 50600 51900 70100 100000 122000 171000 191000
2020-06-27 10:00 17.02 88000 241000 (2019) 37200 (1988) 86800 41900 48000 50600 51900 70100 100000 122000 171000 191000
2020-06-27 09:00 17.09 88600 241000 (2019) 37200 (1988) 86800 41900 48000 50600 51900 70100 100000 122000 171000 191000
2020-06-27 08:00 17.09 88600 241000 (2019) 37200 (1988) 86800 41900 48000 50600 51900 70100 100000 122000 171000 191000
2020-06-27 07:00 17.08 88500 241000 (2019) 37200 (1988) 86800 41900 48000 50600 51900 70100 100000 122000 171000 191000
2020-06-27 06:00 17.08 88500 241000 (2019) 37200 (1988) 86800 41900 48000 50600 51900 70100 100000 122000 171000 191000
2020-06-27 05:00 17.00 87900 241000 (2019) 37200 (1988) 86800 41900 48000 50600 51900 70100 100000 122000 171000 191000
2020-06-27 04:00 17.08 88500 241000 (2019) 37200 (1988) 86800 41900 48000 50600 51900 70100 100000 122000 171000 191000
2020-06-27 03:00 17.06 88400 241000 (2019) 37200 (1988) 86800 41900 48000 50600 51900 70100 100000 122000 171000 191000
2020-06-27 02:00 17.07 88400 241000 (2019) 37200 (1988) 86800 41900 48000 50600 51900 70100 100000 122000 171000 191000
2020-06-27 01:00 17.05 88300 241000 (2019) 37200 (1988) 86800 41900 48000 50600 51900 70100 100000 122000 171000 191000
2020-06-27 00:00 17.08 88500 241000 (2019) 37200 (1988) 86800 41900 48000 50600 51900 70100 100000 122000 171000 191000
2020-06-26 23:00 17.08 88500 253000 (2019) 37500 (1988) 87100 41400 44900 52000 53700 71000 106000 116000 164000 195000
2020-06-26 22:00 17.09 88600 253000 (2019) 37500 (1988) 87100 41400 44900 52000 53700 71000 106000 116000 164000 195000
2020-06-26 21:00 17.09 88600 253000 (2019) 37500 (1988) 87100 41400 44900 52000 53700 71000 106000 116000 164000 195000
2020-06-26 20:00 17.07 88400 253000 (2019) 37500 (1988) 87100 41400 44900 52000 53700 71000 106000 116000 164000 195000
2020-06-26 19:00 17.05 88300 253000 (2019) 37500 (1988) 87100 41400 44900 52000 53700 71000 106000 116000 164000 195000
2020-06-26 18:00 16.95 87500 253000 (2019) 37500 (1988) 87100 41400 44900 52000 53700 71000 106000 116000 164000 195000
2020-06-26 17:00 17.10 88700 253000 (2019) 37500 (1988) 87100 41400 44900 52000 53700 71000 106000 116000 164000 195000
2020-06-26 16:00 17.01 88000 253000 (2019) 37500 (1988) 87100 41400 44900 52000 53700 71000 106000 116000 164000 195000
2020-06-26 15:00 17.07 88400 253000 (2019) 37500 (1988) 87100 41400 44900 52000 53700 71000 106000 116000 164000 195000
2020-06-26 14:00 17.11 88800 253000 (2019) 37500 (1988) 87100 41400 44900 52000 53700 71000 106000 116000 164000 195000
2020-06-26 13:00 17.05 88300 253000 (2019) 37500 (1988) 87100 41400 44900 52000 53700 71000 106000 116000 164000 195000
2020-06-26 12:00 17.07 88400 253000 (2019) 37500 (1988) 87100 41400 44900 52000 53700 71000 106000 116000 164000 195000
2020-06-26 11:00 17.08 88500 253000 (2019) 37500 (1988) 87100 41400 44900 52000 53700 71000 106000 116000 164000 195000
2020-06-26 10:00 17.09 88600 253000 (2019) 37500 (1988) 87100 41400 44900 52000 53700 71000 106000 116000 164000 195000
2020-06-26 09:00 17.05 88300 253000 (2019) 37500 (1988) 87100 41400 44900 52000 53700 71000 106000 116000 164000 195000
2020-06-26 08:00 17.08 88500 253000 (2019) 37500 (1988) 87100 41400 44900 52000 53700 71000 106000 116000 164000 195000
2020-06-26 07:00 17.09 88600 253000 (2019) 37500 (1988) 87100 41400 44900 52000 53700 71000 106000 116000 164000 195000
2020-06-26 06:00 17.06 88400 253000 (2019) 37500 (1988) 87100 41400 44900 52000 53700 71000 106000 116000 164000 195000
2020-06-26 05:00 17.08 88500 253000 (2019) 37500 (1988) 87100 41400 44900 52000 53700 71000 106000 116000 164000 195000
2020-06-26 04:00 17.07 88400 253000 (2019) 37500 (1988) 87100 41400 44900 52000 53700 71000 106000 116000 164000 195000
2020-06-26 03:00 17.07 88400 253000 (2019) 37500 (1988) 87100 41400 44900 52000 53700 71000 106000 116000 164000 195000
2020-06-26 02:00 17.05 88300 253000 (2019) 37500 (1988) 87100 41400 44900 52000 53700 71000 106000 116000 164000 195000
2020-06-26 01:00 17.04 88200 253000 (2019) 37500 (1988) 87100 41400 44900 52000 53700 71000 106000 116000 164000 195000
2020-06-26 00:00 17.04 88200 253000 (2019) 37500 (1988) 87100 41400 44900 52000 53700 71000 106000 116000 164000 195000
2020-06-25 23:00 17.05 88300 257000 (2019) 37800 (1988) 88000 39900 43300 51400 53900 74300 106000 115000 163000 206000
2020-06-25 22:00 17.05 88300 257000 (2019) 37800 (1988) 88000 39900 43300 51400 53900 74300 106000 115000 163000 206000
2020-06-25 21:00 17.04 88200 257000 (2019) 37800 (1988) 88000 39900 43300 51400 53900 74300 106000 115000 163000 206000
2020-06-25 20:00 16.94 87400 257000 (2019) 37800 (1988) 88000 39900 43300 51400 53900 74300 106000 115000 163000 206000
2020-06-25 19:00 17.02 88000 257000 (2019) 37800 (1988) 88000 39900 43300 51400 53900 74300 106000 115000 163000 206000
2020-06-25 18:00 17.03 88100 257000 (2019) 37800 (1988) 88000 39900 43300 51400 53900 74300 106000 115000 163000 206000
2020-06-25 17:00 17.01 88000 257000 (2019) 37800 (1988) 88000 39900 43300 51400 53900 74300 106000 115000 163000 206000
2020-06-25 16:00 17.01 88000 257000 (2019) 37800 (1988) 88000 39900 43300 51400 53900 74300 106000 115000 163000 206000
2020-06-25 15:00 17.02 88000 257000 (2019) 37800 (1988) 88000 39900 43300 51400 53900 74300 106000 115000 163000 206000
2020-06-25 14:00 16.92 87200 257000 (2019) 37800 (1988) 88000 39900 43300 51400 53900 74300 106000 115000 163000 206000
2020-06-25 13:00 17.01 88000 257000 (2019) 37800 (1988) 88000 39900 43300 51400 53900 74300 106000 115000 163000 206000
2020-06-25 12:00 17.00 87900 257000 (2019) 37800 (1988) 88000 39900 43300 51400 53900 74300 106000 115000 163000 206000
2020-06-25 11:00 16.97 87600 257000 (2019) 37800 (1988) 88000 39900 43300 51400 53900 74300 106000 115000 163000 206000
2020-06-25 10:00 17.02 84500 257000 (2019) 37800 (1988) 88000 39900 43300 51400 53900 74300 106000 115000 163000 206000
2020-06-25 09:00 17.01 84400 257000 (2019) 37800 (1988) 88000 39900 43300 51400 53900 74300 106000 115000 163000 206000
2020-06-25 08:00 17.00 84400 257000 (2019) 37800 (1988) 88000 39900 43300 51400 53900 74300 106000 115000 163000 206000
2020-06-25 07:00 17.01 84400 257000 (2019) 37800 (1988) 88000 39900 43300 51400 53900 74300 106000 115000 163000 206000
2020-06-25 06:00 17.04 84700 257000 (2019) 37800 (1988) 88000 39900 43300 51400 53900 74300 106000 115000 163000 206000
2020-06-25 05:00 17.06 84800 257000 (2019) 37800 (1988) 88000 39900 43300 51400 53900 74300 106000 115000 163000 206000
2020-06-25 04:00 17.08 85000 257000 (2019) 37800 (1988) 88000 39900 43300 51400 53900 74300 106000 115000 163000 206000
2020-06-25 03:00 17.07 84900 257000 (2019) 37800 (1988) 88000 39900 43300 51400 53900 74300 106000 115000 163000 206000
2020-06-25 02:00 17.08 85000 257000 (2019) 37800 (1988) 88000 39900 43300 51400 53900 74300 106000 115000 163000 206000
2020-06-25 01:00 17.09 85100 257000 (2019) 37800 (1988) 88000 39900 43300 51400 53900 74300 106000 115000 163000 206000
2020-06-25 00:00 17.08 85000 257000 (2019) 37800 (1988) 88000 39900 43300 51400 53900 74300 106000 115000 163000 206000
2020-06-24 23:00 17.08 85000 241000 (2019) 37300 (1989) 88600 38300 40400 51200 53900 73100 108000 120000 149000 221000
2020-06-24 22:00 17.09 85100 241000 (2019) 37300 (1989) 88600 38300 40400 51200 53900 73100 108000 120000 149000 221000
2020-06-24 21:00 17.10 85100 241000 (2019) 37300 (1989) 88600 38300 40400 51200 53900 73100 108000 120000 149000 221000
2020-06-24 20:00 17.04 84700 241000 (2019) 37300 (1989) 88600 38300 40400 51200 53900 73100 108000 120000 149000 221000
2020-06-24 19:00 17.12 85300 241000 (2019) 37300 (1989) 88600 38300 40400 51200 53900 73100 108000 120000 149000 221000
2020-06-24 18:00 17.12 85300 241000 (2019) 37300 (1989) 88600 38300 40400 51200 53900 73100 108000 120000 149000 221000
2020-06-24 17:00 17.13 85400 241000 (2019) 37300 (1989) 88600 38300 40400 51200 53900 73100 108000 120000 149000 221000
2020-06-24 16:00 17.11 85200 241000 (2019) 37300 (1989) 88600 38300 40400 51200 53900 73100 108000 120000 149000 221000
2020-06-24 15:00 17.16 85600 241000 (2019) 37300 (1989) 88600 38300 40400 51200 53900 73100 108000 120000 149000 221000
2020-06-24 14:00 17.17 85700 241000 (2019) 37300 (1989) 88600 38300 40400 51200 53900 73100 108000 120000 149000 221000
2020-06-24 13:00 17.13 85400 241000 (2019) 37300 (1989) 88600 38300 40400 51200 53900 73100 108000 120000 149000 221000
2020-06-24 12:00 17.18 85800 241000 (2019) 37300 (1989) 88600 38300 40400 51200 53900 73100 108000 120000 149000 221000
2020-06-24 11:00 17.15 85500 241000 (2019) 37300 (1989) 88600 38300 40400 51200 53900 73100 108000 120000 149000 221000
2020-06-24 10:00 17.15 85500 241000 (2019) 37300 (1989) 88600 38300 40400 51200 53900 73100 108000 120000 149000 221000
2020-06-24 09:00 17.17 85700 241000 (2019) 37300 (1989) 88600 38300 40400 51200 53900 73100 108000 120000 149000 221000
2020-06-24 08:00 17.16 85600 241000 (2019) 37300 (1989) 88600 38300 40400 51200 53900 73100 108000 120000 149000 221000
2020-06-24 07:00 17.17 85700 241000 (2019) 37300 (1989) 88600 38300 40400 51200 53900 73100 108000 120000 149000 221000
2020-06-24 06:00 17.20 85900 241000 (2019) 37300 (1989) 88600 38300 40400 51200 53900 73100 108000 120000 149000 221000
2020-06-24 05:00 17.22 86100 241000 (2019) 37300 (1989) 88600 38300 40400 51200 53900 73100 108000 120000 149000 221000
2020-06-24 04:00 17.22 86100 241000 (2019) 37300 (1989) 88600 38300 40400 51200 53900 73100 108000 120000 149000 221000
2020-06-24 03:00 17.23 86200 241000 (2019) 37300 (1989) 88600 38300 40400 51200 53900 73100 108000 120000 149000 221000
2020-06-24 02:00 17.25 86300 241000 (2019) 37300 (1989) 88600 38300 40400 51200 53900 73100 108000 120000 149000 221000
2020-06-24 01:00 17.26 86400 241000 (2019) 37300 (1989) 88600 38300 40400 51200 53900 73100 108000 120000 149000 221000
2020-06-24 00:00 17.28 86500 241000 (2019) 37300 (1989) 88600 38300 40400 51200 53900 73100 108000 120000 149000 221000
2020-06-23 23:00 17.28 86500 242000 (1984) 36000 (1963) 88900 38100 39600 51800 53600 72000 114000 123000 146000 209000
2020-06-23 22:00 17.30 86700 242000 (1984) 36000 (1963) 88900 38100 39600 51800 53600 72000 114000 123000 146000 209000
2020-06-23 21:00 17.27 86500 242000 (1984) 36000 (1963) 88900 38100 39600 51800 53600 72000 114000 123000 146000 209000
2020-06-23 20:00 17.33 86900 242000 (1984) 36000 (1963) 88900 38100 39600 51800 53600 72000 114000 123000 146000 209000
2020-06-23 19:00 17.22 86100 242000 (1984) 36000 (1963) 88900 38100 39600 51800 53600 72000 114000 123000 146000 209000
2020-06-23 18:00 17.41 87600 242000 (1984) 36000 (1963) 88900 38100 39600 51800 53600 72000 114000 123000 146000 209000
2020-06-23 17:00 17.45 87900 242000 (1984) 36000 (1963) 88900 38100 39600 51800 53600 72000 114000 123000 146000 209000
2020-06-23 16:00 17.41 87600 242000 (1984) 36000 (1963) 88900 38100 39600 51800 53600 72000 114000 123000 146000 209000
2020-06-23 15:00 17.49 88200 242000 (1984) 36000 (1963) 88900 38100 39600 51800 53600 72000 114000 123000 146000 209000
2020-06-23 14:00 17.52 88400 242000 (1984) 36000 (1963) 88900 38100 39600 51800 53600 72000 114000 123000 146000 209000
2020-06-23 13:00 17.54 88600 242000 (1984) 36000 (1963) 88900 38100 39600 51800 53600 72000 114000 123000 146000 209000
2020-06-23 12:00 17.54 88600 242000 (1984) 36000 (1963) 88900 38100 39600 51800 53600 72000 114000 123000 146000 209000
2020-06-23 11:00 17.56 88800 242000 (1984) 36000 (1963) 88900 38100 39600 51800 53600 72000 114000 123000 146000 209000
2020-06-23 10:00 17.59 89000 242000 (1984) 36000 (1963) 88900 38100 39600 51800 53600 72000 114000 123000 146000 209000
2020-06-23 09:00 17.57 88800 242000 (1984) 36000 (1963) 88900 38100 39600 51800 53600 72000 114000 123000 146000 209000
2020-06-23 08:00 17.61 89100 242000 (1984) 36000 (1963) 88900 38100 39600 51800 53600 72000 114000 123000 146000 209000
2020-06-23 07:00 17.65 89500 242000 (1984) 36000 (1963) 88900 38100 39600 51800 53600 72000 114000 123000 146000 209000
2020-06-23 06:00 17.66 89500 242000 (1984) 36000 (1963) 88900 38100 39600 51800 53600 72000 114000 123000 146000 209000
2020-06-23 05:00 17.70 89900 242000 (1984) 36000 (1963) 88900 38100 39600 51800 53600 72000 114000 123000 146000 209000
2020-06-23 04:00 17.72 90000 242000 (1984) 36000 (1963) 88900 38100 39600 51800 53600 72000 114000 123000 146000 209000
2020-06-23 03:00 17.75 90300 242000 (1984) 36000 (1963) 88900 38100 39600 51800 53600 72000 114000 123000 146000 209000
2020-06-23 02:00 17.77 90400 242000 (1984) 36000 (1963) 88900 38100 39600 51800 53600 72000 114000 123000 146000 209000
2020-06-23 01:00 17.79 90600 242000 (1984) 36000 (1963) 88900 38100 39600 51800 53600 72000 114000 123000 146000 209000
2020-06-23 00:00 17.81 90800 242000 (1984) 36000 (1963) 88900 38100 39600 51800 53600 72000 114000 123000 146000 209000
2020-06-22 23:00 17.81 90800 236000 (1967) 36500 (1989) 89100 37300 40000 52800 55300 75000 113000 122000 165000 196000
2020-06-22 22:00 17.68 89700 236000 (1967) 36500 (1989) 89100 37300 40000 52800 55300 75000 113000 122000 165000 196000
2020-06-22 21:00 17.85 91100 236000 (1967) 36500 (1989) 89100 37300 40000 52800 55300 75000 113000 122000 165000 196000
2020-06-22 20:00 17.86 91200 236000 (1967) 36500 (1989) 89100 37300 40000 52800 55300 75000 113000 122000 165000 196000
2020-06-22 19:00 17.84 91000 236000 (1967) 36500 (1989) 89100 37300 40000 52800 55300 75000 113000 122000 165000 196000
2020-06-22 18:00 17.89 91400 236000 (1967) 36500 (1989) 89100 37300 40000 52800 55300 75000 113000 122000 165000 196000
2020-06-22 17:00 17.89 91400 236000 (1967) 36500 (1989) 89100 37300 40000 52800 55300 75000 113000 122000 165000 196000
2020-06-22 16:00 17.76 90400 236000 (1967) 36500 (1989) 89100 37300 40000 52800 55300 75000 113000 122000 165000 196000
2020-06-22 15:00 17.78 90500 236000 (1967) 36500 (1989) 89100 37300 40000 52800 55300 75000 113000 122000 165000 196000
2020-06-22 14:00 17.90 91500 236000 (1967) 36500 (1989) 89100 37300 40000 52800 55300 75000 113000 122000 165000 196000
2020-06-22 13:00 17.90 91500 236000 (1967) 36500 (1989) 89100 37300 40000 52800 55300 75000 113000 122000 165000 196000
2020-06-22 12:00 17.89 91400 236000 (1967) 36500 (1989) 89100 37300 40000 52800 55300 75000 113000 122000 165000 196000
2020-06-22 11:00 17.90 91500 236000 (1967) 36500 (1989) 89100 37300 40000 52800 55300 75000 113000 122000 165000 196000
2020-06-22 10:00 17.89 91400 236000 (1967) 36500 (1989) 89100 37300 40000 52800 55300 75000 113000 122000 165000 196000
2020-06-22 09:00 17.88 91300 236000 (1967) 36500 (1989) 89100 37300 40000 52800 55300 75000 113000 122000 165000 196000
2020-06-22 08:00 17.87 91200 236000 (1967) 36500 (1989) 89100 37300 40000 52800 55300 75000 113000 122000 165000 196000
2020-06-22 07:00 17.89 91400 236000 (1967) 36500 (1989) 89100 37300 40000 52800 55300 75000 113000 122000 165000 196000
2020-06-22 06:00 17.89 91400 236000 (1967) 36500 (1989) 89100 37300 40000 52800 55300 75000 113000 122000 165000 196000
2020-06-22 05:00 17.90 91500 236000 (1967) 36500 (1989) 89100 37300 40000 52800 55300 75000 113000 122000 165000 196000
2020-06-22 04:00 17.88 91300 236000 (1967) 36500 (1989) 89100 37300 40000 52800 55300 75000 113000 122000 165000 196000
2020-06-22 03:00 17.86 91200 236000 (1967) 36500 (1989) 89100 37300 40000 52800 55300 75000 113000 122000 165000 196000
2020-06-22 02:00 17.86 91200 236000 (1967) 36500 (1989) 89100 37300 40000 52800 55300 75000 113000 122000 165000 196000
2020-06-22 01:00 17.84 91000 236000 (1967) 36500 (1989) 89100 37300 40000 52800 55300 75000 113000 122000 165000 196000
2020-06-22 00:00 17.81 90800 236000 (1967) 36500 (1989) 89100 37300 40000 52800 55300 75000 113000 122000 165000 196000
2020-06-21 23:00 17.81 90800 228000 (1984) 35900 (2006) 88500 38200 41700 52500 58100 72800 104000 126000 157000 194000
2020-06-21 22:00 17.78 90500 228000 (1984) 35900 (2006) 88500 38200 41700 52500 58100 72800 104000 126000 157000 194000
2020-06-21 21:00 17.79 90600 228000 (1984) 35900 (2006) 88500 38200 41700 52500 58100 72800 104000 126000 157000 194000
2020-06-21 20:00 17.78 90500 228000 (1984) 35900 (2006) 88500 38200 41700 52500 58100 72800 104000 126000 157000 194000
2020-06-21 19:00 17.75 90300 228000 (1984) 35900 (2006) 88500 38200 41700 52500 58100 72800 104000 126000 157000 194000
2020-06-21 18:00 17.75 90300 228000 (1984) 35900 (2006) 88500 38200 41700 52500 58100 72800 104000 126000 157000 194000
2020-06-21 17:00 17.74 90200 228000 (1984) 35900 (2006) 88500 38200 41700 52500 58100 72800 104000 126000 157000 194000
2020-06-21 16:00 17.71 89900 228000 (1984) 35900 (2006) 88500 38200 41700 52500 58100 72800 104000 126000 157000 194000
2020-06-21 15:00 17.69 89800 228000 (1984) 35900 (2006) 88500 38200 41700 52500 58100 72800 104000 126000 157000 194000
2020-06-21 14:00 17.67 89600 228000 (1984) 35900 (2006) 88500 38200 41700 52500 58100 72800 104000 126000 157000 194000
2020-06-21 13:00 17.61 89100 228000 (1984) 35900 (2006) 88500 38200 41700 52500 58100 72800 104000 126000 157000 194000
2020-06-21 12:00 17.65 89500 228000 (1984) 35900 (2006) 88500 38200 41700 52500 58100 72800 104000 126000 157000 194000
2020-06-21 11:00 17.64 89400 228000 (1984) 35900 (2006) 88500 38200 41700 52500 58100 72800 104000 126000 157000 194000
2020-06-21 10:00 17.65 89500 228000 (1984) 35900 (2006) 88500 38200 41700 52500 58100 72800 104000 126000 157000 194000
2020-06-21 09:00 17.63 89300 228000 (1984) 35900 (2006) 88500 38200 41700 52500 58100 72800 104000 126000 157000 194000
2020-06-21 08:00 17.64 89400 228000 (1984) 35900 (2006) 88500 38200 41700 52500 58100 72800 104000 126000 157000 194000
2020-06-21 07:00 17.60 89100 228000 (1984) 35900 (2006) 88500 38200 41700 52500 58100 72800 104000 126000 157000 194000
2020-06-21 06:00 17.64 89400 228000 (1984) 35900 (2006) 88500 38200 41700 52500 58100 72800 104000 126000 157000 194000
2020-06-21 05:00 17.63 89300 228000 (1984) 35900 (2006) 88500 38200 41700 52500 58100 72800 104000 126000 157000 194000
2020-06-21 04:00 17.61 89100 228000 (1984) 35900 (2006) 88500 38200 41700 52500 58100 72800 104000 126000 157000 194000
2020-06-21 03:00 17.59 89000 228000 (1984) 35900 (2006) 88500 38200 41700 52500 58100 72800 104000 126000 157000 194000
2020-06-21 02:00 17.57 88800 228000 (1984) 35900 (2006) 88500 38200 41700 52500 58100 72800 104000 126000 157000 194000
2020-06-21 01:00 17.57 88800 228000 (1984) 35900 (2006) 88500 38200 41700 52500 58100 72800 104000 126000 157000 194000
2020-06-21 00:00 17.55 88700 228000 (1984) 35900 (2006) 88500 38200 41700 52500 58100 72800 104000 126000 157000 194000
2020-06-20 23:00 17.53 88500 223000 (1984) 35900 (2006) 88900 38800 42400 54000 56900 73200 112000 125000 159000 194000
2020-06-20 22:00 17.47 88000 223000 (1984) 35900 (2006) 88900 38800 42400 54000 56900 73200 112000 125000 159000 194000
2020-06-20 21:00 17.54 88600 223000 (1984) 35900 (2006) 88900 38800 42400 54000 56900 73200 112000 125000 159000 194000
2020-06-20 20:00 17.51 88400 223000 (1984) 35900 (2006) 88900 38800 42400 54000 56900 73200 112000 125000 159000 194000
2020-06-20 19:00 17.52 88400 223000 (1984) 35900 (2006) 88900 38800 42400 54000 56900 73200 112000 125000 159000 194000
2020-06-20 18:00 17.45 87900 223000 (1984) 35900 (2006) 88900 38800 42400 54000 56900 73200 112000 125000 159000 194000
2020-06-20 17:00 17.50 88300 223000 (1984) 35900 (2006) 88900 38800 42400 54000 56900 73200 112000 125000 159000 194000
2020-06-20 16:00 17.50 88300 223000 (1984) 35900 (2006) 88900 38800 42400 54000 56900 73200 112000 125000 159000 194000
2020-06-20 15:00 17.50 88300 223000 (1984) 35900 (2006) 88900 38800 42400 54000 56900 73200 112000 125000 159000 194000
2020-06-20 14:00 17.49 88200 223000 (1984) 35900 (2006) 88900 38800 42400 54000 56900 73200 112000 125000 159000 194000
2020-06-20 13:00 17.49 88200 223000 (1984) 35900 (2006) 88900 38800 42400 54000 56900 73200 112000 125000 159000 194000
2020-06-20 12:00 17.49 88200 223000 (1984) 35900 (2006) 88900 38800 42400 54000 56900 73200 112000 125000 159000 194000
2020-06-20 11:00 17.48 88100 223000 (1984) 35900 (2006) 88900 38800 42400 54000 56900 73200 112000 125000 159000 194000
2020-06-20 10:00 17.43 87700 223000 (1984) 35900 (2006) 88900 38800 42400 54000 56900 73200 112000 125000 159000 194000
2020-06-20 09:00 17.44 87800 223000 (1984) 35900 (2006) 88900 38800 42400 54000 56900 73200 112000 125000 159000 194000
2020-06-20 08:00 17.46 88000 223000 (1984) 35900 (2006) 88900 38800 42400 54000 56900 73200 112000 125000 159000 194000
2020-06-20 07:00 17.44 87800 223000 (1984) 35900 (2006) 88900 38800 42400 54000 56900 73200 112000 125000 159000 194000
2020-06-20 06:00 17.45 87900 223000 (1984) 35900 (2006) 88900 38800 42400 54000 56900 73200 112000 125000 159000 194000
2020-06-20 05:00 17.43 87700 223000 (1984) 35900 (2006) 88900 38800 42400 54000 56900 73200 112000 125000 159000 194000
2020-06-20 04:00 17.44 87800 223000 (1984) 35900 (2006) 88900 38800 42400 54000 56900 73200 112000 125000 159000 194000
2020-06-20 03:00 17.43 87700 223000 (1984) 35900 (2006) 88900 38800 42400 54000 56900 73200 112000 125000 159000 194000
2020-06-20 02:00 17.41 87600 223000 (1984) 35900 (2006) 88900 38800 42400 54000 56900 73200 112000 125000 159000 194000
2020-06-20 01:00 17.41 87600 223000 (1984) 35900 (2006) 88900 38800 42400 54000 56900 73200 112000 125000 159000 194000
2020-06-20 00:00 17.39 87400 223000 (1984) 35900 (2006) 88900 38800 42400 54000 56900 73200 112000 125000 159000 194000
2020-06-19 23:00 17.38 87300 221000 (1984) 36200 (2006) 90400 39500 43200 54200 58300 73900 113000 135000 172000 184000
2020-06-19 22:00 17.36 87200 221000 (1984) 36200 (2006) 90400 39500 43200 54200 58300 73900 113000 135000 172000 184000
2020-06-19 21:00 17.35 87100 221000 (1984) 36200 (2006) 90400 39500 43200 54200 58300 73900 113000 135000 172000 184000
2020-06-19 20:00 17.35 87100 221000 (1984) 36200 (2006) 90400 39500 43200 54200 58300 73900 113000 135000 172000 184000
2020-06-19 19:00 17.33 86900 221000 (1984) 36200 (2006) 90400 39500 43200 54200 58300 73900 113000 135000 172000 184000
2020-06-19 18:00 17.31 86800 221000 (1984) 36200 (2006) 90400 39500 43200 54200 58300 73900 113000 135000 172000 184000
2020-06-19 17:00 17.30 86700 221000 (1984) 36200 (2006) 90400 39500 43200 54200 58300 73900 113000 135000 172000 184000
2020-06-19 16:00 17.30 86700 221000 (1984) 36200 (2006) 90400 39500 43200 54200 58300 73900 113000 135000 172000 184000
2020-06-19 15:00 17.32 86900 221000 (1984) 36200 (2006) 90400 39500 43200 54200 58300 73900 113000 135000 172000 184000
2020-06-19 14:00 17.20 86300 221000 (1984) 36200 (2006) 90400 39500 43200 54200 58300 73900 113000 135000 172000 184000
2020-06-19 13:00 17.22 86500 221000 (1984) 36200 (2006) 90400 39500 43200 54200 58300 73900 113000 135000 172000 184000
2020-06-19 12:00 17.18 86200 221000 (1984) 36200 (2006) 90400 39500 43200 54200 58300 73900 113000 135000 172000 184000
2020-06-19 11:00 17.18 86200 221000 (1984) 36200 (2006) 90400 39500 43200 54200 58300 73900 113000 135000 172000 184000
2020-06-19 10:00 17.18 86200 221000 (1984) 36200 (2006) 90400 39500 43200 54200 58300 73900 113000 135000 172000 184000
2020-06-19 09:00 17.16 86000 221000 (1984) 36200 (2006) 90400 39500 43200 54200 58300 73900 113000 135000 172000 184000
2020-06-19 08:00 17.16 86000 221000 (1984) 36200 (2006) 90400 39500 43200 54200 58300 73900 113000 135000 172000 184000
2020-06-19 07:00 17.14 84300 221000 (1984) 36200 (2006) 90400 39500 43200 54200 58300 73900 113000 135000 172000 184000
2020-06-19 06:00 17.10 84000 221000 (1984) 36200 (2006) 90400 39500 43200 54200 58300 73900 113000 135000 172000 184000
2020-06-19 05:00 17.11 84100 221000 (1984) 36200 (2006) 90400 39500 43200 54200 58300 73900 113000 135000 172000 184000
2020-06-19 04:00 17.08 83800 221000 (1984) 36200 (2006) 90400 39500 43200 54200 58300 73900 113000 135000 172000 184000
2020-06-19 03:00 17.05 83600 221000 (1984) 36200 (2006) 90400 39500 43200 54200 58300 73900 113000 135000 172000 184000
2020-06-19 02:00 17.09 83900 221000 (1984) 36200 (2006) 90400 39500 43200 54200 58300 73900 113000 135000 172000 184000
2020-06-19 01:00 17.11 84100 221000 (1984) 36200 (2006) 90400 39500 43200 54200 58300 73900 113000 135000 172000 184000
2020-06-19 00:00 17.12 84100 221000 (1984) 36200 (2006) 90400 39500 43200 54200 58300 73900 113000 135000 172000 184000
2020-06-18 23:00 17.11 84100 223000 (1984) 35600 (2006) 92300 39800 45000 53900 58000 77800 107000 125000 172000 193000
2020-06-18 22:00 17.11 84100 223000 (1984) 35600 (2006) 92300 39800 45000 53900 58000 77800 107000 125000 172000 193000
2020-06-18 21:00 17.10 84000 223000 (1984) 35600 (2006) 92300 39800 45000 53900 58000 77800 107000 125000 172000 193000
2020-06-18 20:00 17.10 84000 223000 (1984) 35600 (2006) 92300 39800 45000 53900 58000 77800 107000 125000 172000 193000
2020-06-18 19:00 17.07 83800 223000 (1984) 35600 (2006) 92300 39800 45000 53900 58000 77800 107000 125000 172000 193000
2020-06-18 18:00 17.03 83500 223000 (1984) 35600 (2006) 92300 39800 45000 53900 58000 77800 107000 125000 172000 193000
2020-06-18 17:00 17.00 83200 223000 (1984) 35600 (2006) 92300 39800 45000 53900 58000 77800 107000 125000 172000 193000
2020-06-18 16:00 17.00 83200 223000 (1984) 35600 (2006) 92300 39800 45000 53900 58000 77800 107000 125000 172000 193000
2020-06-18 15:00 17.10 84000 223000 (1984) 35600 (2006) 92300 39800 45000 53900 58000 77800 107000 125000 172000 193000
2020-06-18 14:00 17.01 83300 223000 (1984) 35600 (2006) 92300 39800 45000 53900 58000 77800 107000 125000 172000 193000
2020-06-18 13:00 17.10 84000 223000 (1984) 35600 (2006) 92300 39800 45000 53900 58000 77800 107000 125000 172000 193000
2020-06-18 12:00 17.04 83500 223000 (1984) 35600 (2006) 92300 39800 45000 53900 58000 77800 107000 125000 172000 193000
2020-06-18 11:00 17.08 83800 223000 (1984) 35600 (2006) 92300 39800 45000 53900 58000 77800 107000 125000 172000 193000
2020-06-18 10:00 17.08 83800 223000 (1984) 35600 (2006) 92300 39800 45000 53900 58000 77800 107000 125000 172000 193000
2020-06-18 09:00 17.08 83800 223000 (1984) 35600 (2006) 92300 39800 45000 53900 58000 77800 107000 125000 172000 193000
2020-06-18 08:00 17.07 83800 223000 (1984) 35600 (2006) 92300 39800 45000 53900 58000 77800 107000 125000 172000 193000
2020-06-18 07:00 17.03 83500 223000 (1984) 35600 (2006) 92300 39800 45000 53900 58000 77800 107000 125000 172000 193000
2020-06-18 06:00 17.09 83900 223000 (1984) 35600 (2006) 92300 39800 45000 53900 58000 77800 107000 125000 172000 193000
2020-06-18 05:00 17.09 83900 223000 (1984) 35600 (2006) 92300 39800 45000 53900 58000 77800 107000 125000 172000 193000
2020-06-18 04:00 17.05 83600 223000 (1984) 35600 (2006) 92300 39800 45000 53900 58000 77800 107000 125000 172000 193000
2020-06-18 03:00 17.07 83800 223000 (1984) 35600 (2006) 92300 39800 45000 53900 58000 77800 107000 125000 172000 193000
2020-06-18 02:00 17.08 83800 223000 (1984) 35600 (2006) 92300 39800 45000 53900 58000 77800 107000 125000 172000 193000
2020-06-18 01:00 17.11 84100 223000 (1984) 35600 (2006) 92300 39800 45000 53900 58000 77800 107000 125000 172000 193000
2020-06-18 00:00 17.08 83800 223000 (1984) 35600 (2006) 92300 39800 45000 53900 58000 77800 107000 125000 172000 193000
2020-06-17 23:00 17.08 83800 212000 (1984) 35900 (2006) 94300 37800 46500 54800 62400 77500 121000 126000 170000 196000
2020-06-17 22:00 17.12 84100 212000 (1984) 35900 (2006) 94300 37800 46500 54800 62400 77500 121000 126000 170000 196000
2020-06-17 21:00 17.10 84000 212000 (1984) 35900 (2006) 94300 37800 46500 54800 62400 77500 121000 126000 170000 196000
2020-06-17 20:00 17.11 84100 212000 (1984) 35900 (2006) 94300 37800 46500 54800 62400 77500 121000 126000 170000 196000
2020-06-17 19:00 17.04 83500 212000 (1984) 35900 (2006) 94300 37800 46500 54800 62400 77500 121000 126000 170000 196000
2020-06-17 18:00 17.04 83500 212000 (1984) 35900 (2006) 94300 37800 46500 54800 62400 77500 121000 126000 170000 196000
2020-06-17 17:00 17.05 83600 212000 (1984) 35900 (2006) 94300 37800 46500 54800 62400 77500 121000 126000 170000 196000
2020-06-17 16:00 17.05 83600 212000 (1984) 35900 (2006) 94300 37800 46500 54800 62400 77500 121000 126000 170000 196000
2020-06-17 15:00 17.02 83400 212000 (1984) 35900 (2006) 94300 37800 46500 54800 62400 77500 121000 126000 170000 196000
2020-06-17 14:00 17.02 83400 212000 (1984) 35900 (2006) 94300 37800 46500 54800 62400 77500 121000 126000 170000 196000
2020-06-17 13:00 17.07 83800 212000 (1984) 35900 (2006) 94300 37800 46500 54800 62400 77500 121000 126000 170000 196000
2020-06-17 12:00 17.09 83900 212000 (1984) 35900 (2006) 94300 37800 46500 54800 62400 77500 121000 126000 170000 196000
2020-06-17 11:00 17.06 83700 212000 (1984) 35900 (2006) 94300 37800 46500 54800 62400 77500 121000 126000 170000 196000
2020-06-17 10:00 17.11 84100 212000 (1984) 35900 (2006) 94300 37800 46500 54800 62400 77500 121000 126000 170000 196000
2020-06-17 09:00 17.13 84200 212000 (1984) 35900 (2006) 94300 37800 46500 54800 62400 77500 121000 126000 170000 196000
2020-06-17 08:00 17.09 83900 212000 (1984) 35900 (2006) 94300 37800 46500 54800 62400 77500 121000 126000 170000 196000
2020-06-17 07:00 17.11 84100 212000 (1984) 35900 (2006) 94300 37800 46500 54800 62400 77500 121000 126000 170000 196000
2020-06-17 06:00 17.13 84200 212000 (1984) 35900 (2006) 94300 37800 46500 54800 62400 77500 121000 126000 170000 196000
2020-06-17 05:00 17.12 84100 212000 (1984) 35900 (2006) 94300 37800 46500 54800 62400 77500 121000 126000 170000 196000
2020-06-17 04:00 17.11 84100 212000 (1984) 35900 (2006) 94300 37800 46500 54800 62400 77500 121000 126000 170000 196000
2020-06-17 03:00 17.14 84300 212000 (1984) 35900 (2006) 94300 37800 46500 54800 62400 77500 121000 126000 170000 196000
2020-06-17 02:00 17.12 84100 212000 (1984) 35900 (2006) 94300 37800 46500 54800 62400 77500 121000 126000 170000 196000
2020-06-17 01:00 17.16 84400 212000 (1984) 35900 (2006) 94300 37800 46500 54800 62400 77500 121000 126000 170000 196000
2020-06-17 00:00 17.13 84200 212000 (1984) 35900 (2006) 94300 37800 46500 54800 62400 77500 121000 126000 170000 196000
2020-06-16 23:00 17.11 84100 201000 (2010) 36000 (1963) 93000 37600 45600 57300 62100 82400 108000 121000 165000 199000
2020-06-16 22:00 17.08 83800 201000 (2010) 36000 (1963) 93000 37600 45600 57300 62100 82400 108000 121000 165000 199000
2020-06-16 21:00 17.16 84400 201000 (2010) 36000 (1963) 93000 37600 45600 57300 62100 82400 108000 121000 165000 199000
2020-06-16 20:00 17.09 83900 201000 (2010) 36000 (1963) 93000 37600 45600 57300 62100 82400 108000 121000 165000 199000
2020-06-16 19:00 17.08 83800 201000 (2010) 36000 (1963) 93000 37600 45600 57300 62100 82400 108000 121000 165000 199000
2020-06-16 18:00 17.11 84100 201000 (2010) 36000 (1963) 93000 37600 45600 57300 62100 82400 108000 121000 165000 199000
2020-06-16 17:00 17.12 84100 201000 (2010) 36000 (1963) 93000 37600 45600 57300 62100 82400 108000 121000 165000 199000
2020-06-16 16:00 17.12 84100 201000 (2010) 36000 (1963) 93000 37600 45600 57300 62100 82400 108000 121000 165000 199000
2020-06-16 15:00 17.06 83700 201000 (2010) 36000 (1963) 93000 37600 45600 57300 62100 82400 108000 121000 165000 199000
2020-06-16 14:00 17.15 84400 201000 (2010) 36000 (1963) 93000 37600 45600 57300 62100 82400 108000 121000 165000 199000
2020-06-16 13:00 17.09 83900 201000 (2010) 36000 (1963) 93000 37600 45600 57300 62100 82400 108000 121000 165000 199000
2020-06-16 12:00 17.12 84100 201000 (2010) 36000 (1963) 93000 37600 45600 57300 62100 82400 108000 121000 165000 199000
2020-06-16 11:00 17.12 84100 201000 (2010) 36000 (1963) 93000 37600 45600 57300 62100 82400 108000 121000 165000 199000
2020-06-16 10:00 17.15 84400 201000 (2010) 36000 (1963) 93000 37600 45600 57300 62100 82400 108000 121000 165000 199000
2020-06-16 09:00 17.21 84800 201000 (2010) 36000 (1963) 93000 37600 45600 57300 62100 82400 108000 121000 165000 199000
2020-06-16 08:00 17.19 84700 201000 (2010) 36000 (1963) 93000 37600 45600 57300 62100 82400 108000 121000 165000 199000
2020-06-16 07:00 17.20 84800 201000 (2010) 36000 (1963) 93000 37600 45600 57300 62100 82400 108000 121000 165000 199000
2020-06-16 06:00 17.14 84300 201000 (2010) 36000 (1963) 93000 37600 45600 57300 62100 82400 108000 121000 165000 199000
2020-06-16 05:00 17.12 84100 201000 (2010) 36000 (1963) 93000 37600 45600 57300 62100 82400 108000 121000 165000 199000
2020-06-16 04:00 17.16 84400 201000 (2010) 36000 (1963) 93000 37600 45600 57300 62100 82400 108000 121000 165000 199000
2020-06-16 03:00 17.11 84100 201000 (2010) 36000 (1963) 93000 37600 45600 57300 62100 82400 108000 121000 165000 199000
2020-06-16 02:00 17.08 83800 201000 (2010) 36000 (1963) 93000 37600 45600 57300 62100 82400 108000 121000 165000 199000
2020-06-16 01:00 17.10 84000 201000 (2010) 36000 (1963) 93000 37600 45600 57300 62100 82400 108000 121000 165000 199000
2020-06-16 00:00 17.03 83500 201000 (2010) 36000 (1963) 93000 37600 45600 57300 62100 82400 108000 121000 165000 199000
2020-06-15 23:00 17.06 83700 216000 (1967) 37200 (1963) 91200 38000 46300 55500 60800 81400 101000 112000 178000 204000
2020-06-15 22:00 17.09 83900 216000 (1967) 37200 (1963) 91200 38000 46300 55500 60800 81400 101000 112000 178000 204000
2020-06-15 21:00 17.07 83800 216000 (1967) 37200 (1963) 91200 38000 46300 55500 60800 81400 101000 112000 178000 204000
2020-06-15 20:00 17.05 83600 216000 (1967) 37200 (1963) 91200 38000 46300 55500 60800 81400 101000 112000 178000 204000
2020-06-15 19:00 17.07 83800 216000 (1967) 37200 (1963) 91200 38000 46300 55500 60800 81400 101000 112000 178000 204000
2020-06-15 18:00 16.90 82500 216000 (1967) 37200 (1963) 91200 38000 46300 55500 60800 81400 101000 112000 178000 204000
2020-06-15 17:00 16.92 82600 216000 (1967) 37200 (1963) 91200 38000 46300 55500 60800 81400 101000 112000 178000 204000
2020-06-15 16:00 16.92 82600 216000 (1967) 37200 (1963) 91200 38000 46300 55500 60800 81400 101000 112000 178000 204000
2020-06-15 15:00 16.96 82900 216000 (1967) 37200 (1963) 91200 38000 46300 55500 60800 81400 101000 112000 178000 204000
2020-06-15 14:00 17.00 83200 216000 (1967) 37200 (1963) 91200 38000 46300 55500 60800 81400 101000 112000 178000 204000
2020-06-15 13:00 16.91 82500 216000 (1967) 37200 (1963) 91200 38000 46300 55500 60800 81400 101000 112000 178000 204000
2020-06-15 12:00 16.93 82700 216000 (1967) 37200 (1963) 91200 38000 46300 55500 60800 81400 101000 112000 178000 204000
2020-06-15 11:00 16.93 82700 216000 (1967) 37200 (1963) 91200 38000 46300 55500 60800 81400 101000 112000 178000 204000
2020-06-15 10:00 16.89 82400 216000 (1967) 37200 (1963) 91200 38000 46300 55500 60800 81400 101000 112000 178000 204000
2020-06-15 09:00 16.87 82200 216000 (1967) 37200 (1963) 91200 38000 46300 55500 60800 81400 101000 112000 178000 204000
2020-06-15 08:00 16.92 82600 216000 (1967) 37200 (1963) 91200 38000 46300 55500 60800 81400 101000 112000 178000 204000
2020-06-15 07:00 16.93 82700 216000 (1967) 37200 (1963) 91200 38000 46300 55500 60800 81400 101000 112000 178000 204000
2020-06-15 06:00 16.90 82500 216000 (1967) 37200 (1963) 91200 38000 46300 55500 60800 81400 101000 112000 178000 204000
2020-06-15 05:00 16.86 82200 216000 (1967) 37200 (1963) 91200 38000 46300 55500 60800 81400 101000 112000 178000 204000
2020-06-15 04:00 16.94 82800 216000 (1967) 37200 (1963) 91200 38000 46300 55500 60800 81400 101000 112000 178000 204000
2020-06-15 03:00 16.91 82500 216000 (1967) 37200 (1963) 91200 38000 46300 55500 60800 81400 101000 112000 178000 204000
2020-06-15 02:00 16.98 83100 216000 (1967) 37200 (1963) 91200 38000 46300 55500 60800 81400 101000 112000 178000 204000
2020-06-15 01:00 16.99 83200 216000 (1967) 37200 (1963) 91200 38000 46300 55500 60800 81400 101000 112000 178000 204000
2020-06-15 00:00 16.98 83100 216000 (1967) 37200 (1963) 91200 38000 46300 55500 60800 81400 101000 112000 178000 204000
2020-06-14 23:00 16.97 83000 242000 (1967) 37400 (2006) 92100 38400 48200 53100 59800 80600 112000 120000 173000 208000
2020-06-14 22:00 17.02 83400 242000 (1967) 37400 (2006) 92100 38400 48200 53100 59800 80600 112000 120000 173000 208000
2020-06-14 21:00 17.03 83500 242000 (1967) 37400 (2006) 92100 38400 48200 53100 59800 80600 112000 120000 173000 208000
2020-06-14 20:00 17.09 83900 242000 (1967) 37400 (2006) 92100 38400 48200 53100 59800 80600 112000 120000 173000 208000
2020-06-14 19:00 17.02 83400 242000 (1967) 37400 (2006) 92100 38400 48200 53100 59800 80600 112000 120000 173000 208000
2020-06-14 18:00 17.06 83700 242000 (1967) 37400 (2006) 92100 38400 48200 53100 59800 80600 112000 120000 173000 208000
2020-06-14 17:00 17.13 84200 242000 (1967) 37400 (2006) 92100 38400 48200 53100 59800 80600 112000 120000 173000 208000
2020-06-14 16:00 17.10 84000 242000 (1967) 37400 (2006) 92100 38400 48200 53100 59800 80600 112000 120000 173000 208000
2020-06-14 15:00 17.17 84500 242000 (1967) 37400 (2006) 92100 38400 48200 53100 59800 80600 112000 120000 173000 208000
2020-06-14 14:00 17.24 85100 242000 (1967) 37400 (2006) 92100 38400 48200 53100 59800 80600 112000 120000 173000 208000
2020-06-14 13:00 17.25 85100 242000 (1967) 37400 (2006) 92100 38400 48200 53100 59800 80600 112000 120000 173000 208000
2020-06-14 12:00 17.36 86000 242000 (1967) 37400 (2006) 92100 38400 48200 53100 59800 80600 112000 120000 173000 208000
2020-06-14 11:00 17.39 86200 242000 (1967) 37400 (2006) 92100 38400 48200 53100 59800 80600 112000 120000 173000 208000
2020-06-14 10:00 17.39 86200 242000 (1967) 37400 (2006) 92100 38400 48200 53100 59800 80600 112000 120000 173000 208000
2020-06-14 09:00 17.37 86100 242000 (1967) 37400 (2006) 92100 38400 48200 53100 59800 80600 112000 120000 173000 208000
2020-06-14 08:00 17.42 86500 242000 (1967) 37400 (2006) 92100 38400 48200 53100 59800 80600 112000 120000 173000 208000
2020-06-14 07:00 17.47 86900 242000 (1967) 37400 (2006) 92100 38400 48200 53100 59800 80600 112000 120000 173000 208000
2020-06-14 06:00 17.61 88000 242000 (1967) 37400 (2006) 92100 38400 48200 53100 59800 80600 112000 120000 173000 208000
2020-06-14 05:00 17.65 88300 242000 (1967) 37400 (2006) 92100 38400 48200 53100 59800 80600 112000 120000 173000 208000
2020-06-14 04:00 17.69 88600 242000 (1967) 37400 (2006) 92100 38400 48200 53100 59800 80600 112000 120000 173000 208000
2020-06-14 03:00 17.71 88800 242000 (1967) 37400 (2006) 92100 38400 48200 53100 59800 80600 112000 120000 173000 208000
2020-06-14 02:00 17.77 89200 242000 (1967) 37400 (2006) 92100 38400 48200 53100 59800 80600 112000 120000 173000 208000
2020-06-14 01:00 17.79 89400 242000 (1967) 37400 (2006) 92100 38400 48200 53100 59800 80600 112000 120000 173000 208000
2020-06-14 00:00 17.85 89900 242000 (1967) 37400 (2006) 92100 38400 48200 53100 59800 80600 112000 120000 173000 208000
2020-06-13 23:00 17.92 90400 240000 (1967) 36700 (2006) 90600 40000 46300 52100 56900 76800 106000 116000 178000 207000
2020-06-13 22:00 17.97 90800 240000 (1967) 36700 (2006) 90600 40000 46300 52100 56900 76800 106000 116000 178000 207000
2020-06-13 21:00 18.00 91100 240000 (1967) 36700 (2006) 90600 40000 46300 52100 56900 76800 106000 116000 178000 207000
2020-06-13 20:00 18.04 91400 240000 (1967) 36700 (2006) 90600 40000 46300 52100 56900 76800 106000 116000 178000 207000
2020-06-13 19:00 17.99 91000 240000 (1967) 36700 (2006) 90600 40000 46300 52100 56900 76800 106000 116000 178000 207000
2020-06-13 18:00 18.03 91300 240000 (1967) 36700 (2006) 90600 40000 46300 52100 56900 76800 106000 116000 178000 207000
2020-06-13 17:00 18.09 91800 240000 (1967) 36700 (2006) 90600 40000 46300 52100 56900 76800 106000 116000 178000 207000
2020-06-13 16:00 18.09 91800 240000 (1967) 36700 (2006) 90600 40000 46300 52100 56900 76800 106000 116000 178000 207000
2020-06-13 15:00 18.07 91600 240000 (1967) 36700 (2006) 90600 40000 46300 52100 56900 76800 106000 116000 178000 207000
2020-06-13 14:00 18.16 92400 240000 (1967) 36700 (2006) 90600 40000 46300 52100 56900 76800 106000 116000 178000 207000
2020-06-13 13:00 18.16 92400 240000 (1967) 36700 (2006) 90600 40000 46300 52100 56900 76800 106000 116000 178000 207000
2020-06-13 12:00 18.24 93000 240000 (1967) 36700 (2006) 90600 40000 46300 52100 56900 76800 106000 116000 178000 207000
2020-06-13 11:00 18.20 92700 240000 (1967) 36700 (2006) 90600 40000 46300 52100 56900 76800 106000 116000 178000 207000
2020-06-13 10:00 18.27 93300 240000 (1967) 36700 (2006) 90600 40000 46300 52100 56900 76800 106000 116000 178000 207000
2020-06-13 09:00 18.32 93700 240000 (1967) 36700 (2006) 90600 40000 46300 52100 56900 76800 106000 116000 178000 207000
2020-06-13 08:00 18.34 93900 240000 (1967) 36700 (2006) 90600 40000 46300 52100 56900 76800 106000 116000 178000 207000
2020-06-13 07:00 18.35 93900 240000 (1967) 36700 (2006) 90600 40000 46300 52100 56900 76800 106000 116000 178000 207000
2020-06-13 06:00 18.38 94200 240000 (1967) 36700 (2006) 90600 40000 46300 52100 56900 76800 106000 116000 178000 207000
2020-06-13 05:00 18.39 94300 240000 (1967) 36700 (2006) 90600 40000 46300 52100 56900 76800 106000 116000 178000 207000
2020-06-13 04:00 18.39 94300 240000 (1967) 36700 (2006) 90600 40000 46300 52100 56900 76800 106000 116000 178000 207000
2020-06-13 03:00 18.39 94300 240000 (1967) 36700 (2006) 90600 40000 46300 52100 56900 76800 106000 116000 178000 207000
2020-06-13 02:00 18.36 94000 240000 (1967) 36700 (2006) 90600 40000 46300 52100 56900 76800 106000 116000 178000 207000
2020-06-13 01:00 18.37 94100 240000 (1967) 36700 (2006) 90600 40000 46300 52100 56900 76800 106000 116000 178000 207000
2020-06-13 00:00 18.35 93900 240000 (1967) 36700 (2006) 90600 40000 46300 52100 56900 76800 106000 116000 178000 207000
2020-06-12 23:00 18.34 93900 236000 (2019) 35600 (2006) 88000 39700 44700 49000 54400 71600 108000 115000 163000 201000
2020-06-12 22:00 18.32 93700 236000 (2019) 35600 (2006) 88000 39700 44700 49000 54400 71600 108000 115000 163000 201000
2020-06-12 21:00 18.26 93200 236000 (2019) 35600 (2006) 88000 39700 44700 49000 54400 71600 108000 115000 163000 201000
2020-06-12 20:00 18.20 92700 236000 (2019) 35600 (2006) 88000 39700 44700 49000 54400 71600 108000 115000 163000 201000
2020-06-12 19:00 18.22 92900 236000 (2019) 35600 (2006) 88000 39700 44700 49000 54400 71600 108000 115000 163000 201000
2020-06-12 18:00 18.17 92500 236000 (2019) 35600 (2006) 88000 39700 44700 49000 54400 71600 108000 115000 163000 201000
2020-06-12 17:00 18.13 92100 236000 (2019) 35600 (2006) 88000 39700 44700 49000 54400 71600 108000 115000 163000 201000
2020-06-12 16:00 18.08 91700 236000 (2019) 35600 (2006) 88000 39700 44700 49000 54400 71600 108000 115000 163000 201000
2020-06-12 15:00 18.01 91200 236000 (2019) 35600 (2006) 88000 39700 44700 49000 54400 71600 108000 115000 163000 201000
2020-06-12 14:00 17.80 89500 236000 (2019) 35600 (2006) 88000 39700 44700 49000 54400 71600 108000 115000 163000 201000
2020-06-12 13:00 17.90 90300 236000 (2019) 35600 (2006) 88000 39700 44700 49000 54400 71600 108000 115000 163000 201000
2020-06-12 12:00 17.84 89800 236000 (2019) 35600 (2006) 88000 39700 44700 49000 54400 71600 108000 115000 163000 201000
2020-06-12 11:00 17.75 89100 236000 (2019) 35600 (2006) 88000 39700 44700 49000 54400 71600 108000 115000 163000 201000
2020-06-12 10:00 17.69 88600 236000 (2019) 35600 (2006) 88000 39700 44700 49000 54400 71600 108000 115000 163000 201000
2020-06-12 09:00 17.62 88000 236000 (2019) 35600 (2006) 88000 39700 44700 49000 54400 71600 108000 115000 163000 201000
2020-06-12 08:00 17.57 87600 236000 (2019) 35600 (2006) 88000 39700 44700 49000 54400 71600 108000 115000 163000 201000
2020-06-12 07:00 17.51 87200 236000 (2019) 35600 (2006) 88000 39700 44700 49000 54400 71600 108000 115000 163000 201000
2020-06-12 06:00 17.43 86500 236000 (2019) 35600 (2006) 88000 39700 44700 49000 54400 71600 108000 115000 163000 201000
2020-06-12 05:00 17.38 86200 236000 (2019) 35600 (2006) 88000 39700 44700 49000 54400 71600 108000 115000 163000 201000
2020-06-12 04:00 17.32 85700 236000 (2019) 35600 (2006) 88000 39700 44700 49000 54400 71600 108000 115000 163000 201000
2020-06-12 03:00 17.26 85200 236000 (2019) 35600 (2006) 88000 39700 44700 49000 54400 71600 108000 115000 163000 201000
2020-06-12 02:00 17.19 84700 236000 (2019) 35600 (2006) 88000 39700 44700 49000 54400 71600 108000 115000 163000 201000
2020-06-12 01:00 17.14 84300 236000 (2019) 35600 (2006) 88000 39700 44700 49000 54400 71600 108000 115000 163000 201000
2020-06-12 00:00 17.08 83800 236000 (2019) 35600 (2006) 88000 39700 44700 49000 54400 71600 108000 115000 163000 201000
2020-06-11 23:00 17.03 83500 241000 (2019) 35700 (2006) 87900 38800 40500 45500 53600 74300 107000 115000 161000 212000
2020-06-11 22:00 16.97 83000 241000 (2019) 35700 (2006) 87900 38800 40500 45500 53600 74300 107000 115000 161000 212000
2020-06-11 21:00 16.94 82800 241000 (2019) 35700 (2006) 87900 38800 40500 45500 53600 74300 107000 115000 161000 212000
2020-06-11 20:00 16.90 82500 241000 (2019) 35700 (2006) 87900 38800 40500 45500 53600 74300 107000 115000 161000 212000
2020-06-11 19:00 16.89 82400 241000 (2019) 35700 (2006) 87900 38800 40500 45500 53600 74300 107000 115000 161000 212000
2020-06-11 18:00 16.88 82300 241000 (2019) 35700 (2006) 87900 38800 40500 45500 53600 74300 107000 115000 161000 212000
2020-06-11 17:00 16.84 82000 241000 (2019) 35700 (2006) 87900 38800 40500 45500 53600 74300 107000 115000 161000 212000
2020-06-11 16:00 16.87 82200 241000 (2019) 35700 (2006) 87900 38800 40500 45500 53600 74300 107000 115000 161000 212000
2020-06-11 15:00 16.85 82100 241000 (2019) 35700 (2006) 87900 38800 40500 45500 53600 74300 107000 115000 161000 212000
2020-06-11 14:00 16.83 81900 241000 (2019) 35700 (2006) 87900 38800 40500 45500 53600 74300 107000 115000 161000 212000
2020-06-11 13:00 16.80 81700 241000 (2019) 35700 (2006) 87900 38800 40500 45500 53600 74300 107000 115000 161000 212000
2020-06-11 12:00 16.82 84900 241000 (2019) 35700 (2006) 87900 38800 40500 45500 53600 74300 107000 115000 161000 212000
2020-06-11 11:00 16.75 84400 241000 (2019) 35700 (2006) 87900 38800 40500 45500 53600 74300 107000 115000 161000 212000
2020-06-11 10:00 16.71 84100 241000 (2019) 35700 (2006) 87900 38800 40500 45500 53600 74300 107000 115000 161000 212000
2020-06-11 09:00 16.80 84800 241000 (2019) 35700 (2006) 87900 38800 40500 45500 53600 74300 107000 115000 161000 212000
2020-06-11 08:00 16.79 84700 241000 (2019) 35700 (2006) 87900 38800 40500 45500 53600 74300 107000 115000 161000 212000
2020-06-11 07:00 16.78 84600 241000 (2019) 35700 (2006) 87900 38800 40500 45500 53600 74300 107000 115000 161000 212000
2020-06-11 06:00 16.78 84600 241000 (2019) 35700 (2006) 87900 38800 40500 45500 53600 74300 107000 115000 161000 212000
2020-06-11 05:00 16.79 84700 241000 (2019) 35700 (2006) 87900 38800 40500 45500 53600 74300 107000 115000 161000 212000
2020-06-11 04:00 16.79 84700 241000 (2019) 35700 (2006) 87900 38800 40500 45500 53600 74300 107000 115000 161000 212000
2020-06-11 03:00 16.78 84600 241000 (2019) 35700 (2006) 87900 38800 40500 45500 53600 74300 107000 115000 161000 212000
2020-06-11 02:00 16.79 84700 241000 (2019) 35700 (2006) 87900 38800 40500 45500 53600 74300 107000 115000 161000 212000
2020-06-11 01:00 16.78 84600 241000 (2019) 35700 (2006) 87900 38800 40500 45500 53600 74300 107000 115000 161000 212000
2020-06-11 00:00 16.79 84700 241000 (2019) 35700 (2006) 87900 38800 40500 45500 53600 74300 107000 115000 161000 212000
2020-06-10 23:00 16.80 84800 248000 (2019) 36700 (2006) 87300 38800 39800 45000 52600 77300 104000 116000 159000 203000
2020-06-10 22:00 16.80 84800 248000 (2019) 36700 (2006) 87300 38800 39800 45000 52600 77300 104000 116000 159000 203000
2020-06-10 21:00 16.82 84900 248000 (2019) 36700 (2006) 87300 38800 39800 45000 52600 77300 104000 116000 159000 203000
2020-06-10 20:00 16.82 84900 248000 (2019) 36700 (2006) 87300 38800 39800 45000 52600 77300 104000 116000 159000 203000
2020-06-10 19:00 16.85 85100 248000 (2019) 36700 (2006) 87300 38800 39800 45000 52600 77300 104000 116000 159000 203000
2020-06-10 18:00 16.75 84400 248000 (2019) 36700 (2006) 87300 38800 39800 45000 52600 77300 104000 116000 159000 203000
2020-06-10 17:00 16.79 84700 248000 (2019) 36700 (2006) 87300 38800 39800 45000 52600 77300 104000 116000 159000 203000
2020-06-10 16:00 16.80 84800 248000 (2019) 36700 (2006) 87300 38800 39800 45000 52600 77300 104000 116000 159000 203000
2020-06-10 15:00 16.81 84800 248000 (2019) 36700 (2006) 87300 38800 39800 45000 52600 77300 104000 116000 159000 203000
2020-06-10 14:00 16.81 84800 248000 (2019) 36700 (2006) 87300 38800 39800 45000 52600 77300 104000 116000 159000 203000
2020-06-10 13:00 16.82 84900 248000 (2019) 36700 (2006) 87300 38800 39800 45000 52600 77300 104000 116000 159000 203000
2020-06-10 12:00 16.84 85100 248000 (2019) 36700 (2006) 87300 38800 39800 45000 52600 77300 104000 116000 159000 203000
2020-06-10 11:00 16.80 84800 248000 (2019) 36700 (2006) 87300 38800 39800 45000 52600 77300 104000 116000 159000 203000
2020-06-10 10:00 16.83 85000 248000 (2019) 36700 (2006) 87300 38800 39800 45000 52600 77300 104000 116000 159000 203000
2020-06-10 09:00 16.93 85800 248000 (2019) 36700 (2006) 87300 38800 39800 45000 52600 77300 104000 116000 159000 203000
2020-06-10 08:00 16.94 85800 248000 (2019) 36700 (2006) 87300 38800 39800 45000 52600 77300 104000 116000 159000 203000
2020-06-10 07:00 16.95 85900 248000 (2019) 36700 (2006) 87300 38800 39800 45000 52600 77300 104000 116000 159000 203000
2020-06-10 06:00 16.95 85900 248000 (2019) 36700 (2006) 87300 38800 39800 45000 52600 77300 104000 116000 159000 203000
2020-06-10 05:00 16.96 86000 248000 (2019) 36700 (2006) 87300 38800 39800 45000 52600 77300 104000 116000 159000 203000
2020-06-10 04:00 16.97 86100 248000 (2019) 36700 (2006) 87300 38800 39800 45000 52600 77300 104000 116000 159000 203000
2020-06-10 03:00 16.98 86200 248000 (2019) 36700 (2006) 87300 38800 39800 45000 52600 77300 104000 116000 159000 203000
2020-06-10 02:00 16.99 86200 248000 (2019) 36700 (2006) 87300 38800 39800 45000 52600 77300 104000 116000 159000 203000
2020-06-10 01:00 17.01 86400 248000 (2019) 36700 (2006) 87300 38800 39800 45000 52600 77300 104000 116000 159000 203000
2020-06-10 00:00 17.01 86400 248000 (2019) 36700 (2006) 87300 38800 39800 45000 52600 77300 104000 116000 159000 203000
2020-06-09 23:00 17.02 86500 256000 (2019) 36900 (2006) 86600 38600 42000 47400 55500 76300 103000 112000 149000 187000
2020-06-09 22:00 17.04 86600 256000 (2019) 36900 (2006) 86600 38600 42000 47400 55500 76300 103000 112000 149000 187000
2020-06-09 21:00 16.99 86200 256000 (2019) 36900 (2006) 86600 38600 42000 47400 55500 76300 103000 112000 149000 187000
2020-06-09 20:00 17.01 86400 256000 (2019) 36900 (2006) 86600 38600 42000 47400 55500 76300 103000 112000 149000 187000
2020-06-09 19:00 17.07 86900 256000 (2019) 36900 (2006) 86600 38600 42000 47400 55500 76300 103000 112000 149000 187000
2020-06-09 18:00 17.06 86800 256000 (2019) 36900 (2006) 86600 38600 42000 47400 55500 76300 103000 112000 149000 187000
2020-06-09 17:00 17.11 87200 256000 (2019) 36900 (2006) 86600 38600 42000 47400 55500 76300 103000 112000 149000 187000
2020-06-09 16:00 17.14 87400 256000 (2019) 36900 (2006) 86600 38600 42000 47400 55500 76300 103000 112000 149000 187000
2020-06-09 15:00 17.16 87600 256000 (2019) 36900 (2006) 86600 38600 42000 47400 55500 76300 103000 112000 149000 187000
2020-06-09 14:00 17.18 87700 256000 (2019) 36900 (2006) 86600 38600 42000 47400 55500 76300 103000 112000 149000 187000
2020-06-09 13:00 17.19 87800 256000 (2019) 36900 (2006) 86600 38600 42000 47400 55500 76300 103000 112000 149000 187000
2020-06-09 12:00 17.20 87900 256000 (2019) 36900 (2006) 86600 38600 42000 47400 55500 76300 103000 112000 149000 187000
2020-06-09 11:00 17.22 88000 256000 (2019) 36900 (2006) 86600 38600 42000 47400 55500 76300 103000 112000 149000 187000
2020-06-09 10:00 17.23 88100 256000 (2019) 36900 (2006) 86600 38600 42000 47400 55500 76300 103000 112000 149000 187000
2020-06-09 09:00 17.24 88200 256000 (2019) 36900 (2006) 86600 38600 42000 47400 55500 76300 103000 112000 149000 187000
2020-06-09 08:00 17.23 88100 256000 (2019) 36900 (2006) 86600 38600 42000 47400 55500 76300 103000 112000 149000 187000
2020-06-09 07:00 17.31 88800 256000 (2019) 36900 (2006) 86600 38600 42000 47400 55500 76300 103000 112000 149000 187000
2020-06-09 06:00 17.26 88400 256000 (2019) 36900 (2006) 86600 38600 42000 47400 55500 76300 103000 112000 149000 187000
2020-06-09 05:00 17.29 88600 256000 (2019) 36900 (2006) 86600 38600 42000 47400 55500 76300 103000 112000 149000 187000
2020-06-09 04:00 17.34 89000 256000 (2019) 36900 (2006) 86600 38600 42000 47400 55500 76300 103000 112000 149000 187000
2020-06-09 03:00 17.34 89000 256000 (2019) 36900 (2006) 86600 38600 42000 47400 55500 76300 103000 112000 149000 187000
2020-06-09 02:00 17.37 89200 256000 (2019) 36900 (2006) 86600 38600 42000 47400 55500 76300 103000 112000 149000 187000
2020-06-09 01:00 17.38 89300 256000 (2019) 36900 (2006) 86600 38600 42000 47400 55500 76300 103000 112000 149000 187000
2020-06-09 00:00 17.37 89200 256000 (2019) 36900 (2006) 86600 38600 42000 47400 55500 76300 103000 112000 149000 187000
2020-06-08 23:00 17.42 89600 263000 (2019) 38200 (2006) 87100 38700 42300 47200 53300 76200 106000 115000 150000 187000
2020-06-08 22:00 17.41 89500 263000 (2019) 38200 (2006) 87100 38700 42300 47200 53300 76200 106000 115000 150000 187000
2020-06-08 21:00 17.41 89500 263000 (2019) 38200 (2006) 87100 38700 42300 47200 53300 76200 106000 115000 150000 187000
2020-06-08 20:00 17.43 89700 263000 (2019) 38200 (2006) 87100 38700 42300 47200 53300 76200 106000 115000 150000 187000
2020-06-08 19:00 17.43 89700 263000 (2019) 38200 (2006) 87100 38700 42300 47200 53300 76200 106000 115000 150000 187000
2020-06-08 18:00 17.47 90000 263000 (2019) 38200 (2006) 87100 38700 42300 47200 53300 76200 106000 115000 150000 187000
2020-06-08 17:00 17.49 90200 263000 (2019) 38200 (2006) 87100 38700 42300 47200 53300 76200 106000 115000 150000 187000
2020-06-08 16:00 17.52 90400 263000 (2019) 38200 (2006) 87100 38700 42300 47200 53300 76200 106000 115000 150000 187000
2020-06-08 15:00 17.46 89900 263000 (2019) 38200 (2006) 87100 38700 42300 47200 53300 76200 106000 115000 150000 187000
2020-06-08 14:00 17.49 90200 263000 (2019) 38200 (2006) 87100 38700 42300 47200 53300 76200 106000 115000 150000 187000
2020-06-08 13:00 17.48 90100 263000 (2019) 38200 (2006) 87100 38700 42300 47200 53300 76200 106000 115000 150000 187000
2020-06-08 12:00 17.62 91200 263000 (2019) 38200 (2006) 87100 38700 42300 47200 53300 76200 106000 115000 150000 187000
2020-06-08 11:00 17.60 91100 263000 (2019) 38200 (2006) 87100 38700 42300 47200 53300 76200 106000 115000 150000 187000
2020-06-08 10:00 17.65 91500 263000 (2019) 38200 (2006) 87100 38700 42300 47200 53300 76200 106000 115000 150000 187000
2020-06-08 09:00 17.64 91400 263000 (2019) 38200 (2006) 87100 38700 42300 47200 53300 76200 106000 115000 150000 187000
2020-06-08 08:00 17.72 92100 263000 (2019) 38200 (2006) 87100 38700 42300 47200 53300 76200 106000 115000 150000 187000
2020-06-08 07:00 17.73 92100 263000 (2019) 38200 (2006) 87100 38700 42300 47200 53300 76200 106000 115000 150000 187000
2020-06-08 06:00 17.79 92600 263000 (2019) 38200 (2006) 87100 38700 42300 47200 53300 76200 106000 115000 150000 187000
2020-06-08 05:00 17.85 93100 263000 (2019) 38200 (2006) 87100 38700 42300 47200 53300 76200 106000 115000 150000 187000
2020-06-08 04:00 17.86 93200 263000 (2019) 38200 (2006) 87100 38700 42300 47200 53300 76200 106000 115000 150000 187000
2020-06-08 03:00 17.91 93600 263000 (2019) 38200 (2006) 87100 38700 42300 47200 53300 76200 106000 115000 150000 187000
2020-06-08 02:00 17.94 93900 263000 (2019) 38200 (2006) 87100 38700 42300 47200 53300 76200 106000 115000 150000 187000
2020-06-08 01:00 17.94 93900 263000 (2019) 38200 (2006) 87100 38700 42300 47200 53300 76200 106000 115000 150000 187000
2020-06-08 00:00 17.99 94300 263000 (2019) 38200 (2006) 87100 38700 42300 47200 53300 76200 106000 115000 150000 187000
2020-06-07 23:00 17.99 94300 270000 (2019) 38800 (1968) 88700 39600 41200 49000 56000 75600 106000 115000 160000 192000
2020-06-07 22:00 18.09 95100 270000 (2019) 38800 (1968) 88700 39600 41200 49000 56000 75600 106000 115000 160000 192000
2020-06-07 21:00 18.10 95200 270000 (2019) 38800 (1968) 88700 39600 41200 49000 56000 75600 106000 115000 160000 192000
2020-06-07 20:00 18.06 94900 270000 (2019) 38800 (1968) 88700 39600 41200 49000 56000 75600 106000 115000 160000 192000
2020-06-07 19:00 18.07 94900 270000 (2019) 38800 (1968) 88700 39600 41200 49000 56000 75600 106000 115000 160000 192000
2020-06-07 18:00 18.16 95700 270000 (2019) 38800 (1968) 88700 39600 41200 49000 56000 75600 106000 115000 160000 192000
2020-06-07 17:00 18.10 95200 270000 (2019) 38800 (1968) 88700 39600 41200 49000 56000 75600 106000 115000 160000 192000
2020-06-07 16:00 18.18 95900 270000 (2019) 38800 (1968) 88700 39600 41200 49000 56000 75600 106000 115000 160000 192000
2020-06-07 15:00 18.28 96700 270000 (2019) 38800 (1968) 88700 39600 41200 49000 56000 75600 106000 115000 160000 192000
2020-06-07 14:00 18.31 97000 270000 (2019) 38800 (1968) 88700 39600 41200 49000 56000 75600 106000 115000 160000 192000
2020-06-07 13:00 18.26 96500 270000 (2019) 38800 (1968) 88700 39600 41200 49000 56000 75600 106000 115000 160000 192000
2020-06-07 12:00 18.34 97200 270000 (2019) 38800 (1968) 88700 39600 41200 49000 56000 75600 106000 115000 160000 192000
2020-06-07 11:00 18.40 97700 270000 (2019) 38800 (1968) 88700 39600 41200 49000 56000 75600 106000 115000 160000 192000
2020-06-07 10:00 18.43 98000 270000 (2019) 38800 (1968) 88700 39600 41200 49000 56000 75600 106000 115000 160000 192000
2020-06-07 09:00 18.43 98000 270000 (2019) 38800 (1968) 88700 39600 41200 49000 56000 75600 106000 115000 160000 192000
2020-06-07 08:00 18.47 98300 270000 (2019) 38800 (1968) 88700 39600 41200 49000 56000 75600 106000 115000 160000 192000
2020-06-07 07:00 18.51 98700 270000 (2019) 38800 (1968) 88700 39600 41200 49000 56000 75600 106000 115000 160000 192000
2020-06-07 06:00 18.55 99000 270000 (2019) 38800 (1968) 88700 39600 41200 49000 56000 75600 106000 115000 160000 192000
2020-06-07 05:00 18.56 99100 270000 (2019) 38800 (1968) 88700 39600 41200 49000 56000 75600 106000 115000 160000 192000
2020-06-07 04:00 18.60 99400 270000 (2019) 38800 (1968) 88700 39600 41200 49000 56000 75600 106000 115000 160000 192000
2020-06-07 03:00 18.65 99900 270000 (2019) 38800 (1968) 88700 39600 41200 49000 56000 75600 106000 115000 160000 192000
2020-06-07 02:00 18.68 100000 270000 (2019) 38800 (1968) 88700 39600 41200 49000 56000 75600 106000 115000 160000 192000
2020-06-07 01:00 18.66 99900 270000 (2019) 38800 (1968) 88700 39600 41200 49000 56000 75600 106000 115000 160000 192000
2020-06-07 00:00 18.71 100000 270000 (2019) 38800 (1968) 88700 39600 41200 49000 56000 75600 106000 115000 160000 192000
2020-06-06 23:00 18.73 101000 285000 (2019) 36900 (2006) 88700 39400 42700 49400 54200 73800 107000 117000 144000 193000
2020-06-06 22:00 18.75 101000 285000 (2019) 36900 (2006) 88700 39400 42700 49400 54200 73800 107000 117000 144000 193000
2020-06-06 21:00 18.70 100000 285000 (2019) 36900 (2006) 88700 39400 42700 49400 54200 73800 107000 117000 144000 193000
2020-06-06 20:00 18.75 101000 285000 (2019) 36900 (2006) 88700 39400 42700 49400 54200 73800 107000 117000 144000 193000
2020-06-06 19:00 18.73 101000 285000 (2019) 36900 (2006) 88700 39400 42700 49400 54200 73800 107000 117000 144000 193000
2020-06-06 18:00 18.72 100000 285000 (2019) 36900 (2006) 88700 39400 42700 49400 54200 73800 107000 117000 144000 193000
2020-06-06 17:00 18.78 101000 285000 (2019) 36900 (2006) 88700 39400 42700 49400 54200 73800 107000 117000 144000 193000
2020-06-06 16:00 18.79 101000 285000 (2019) 36900 (2006) 88700 39400 42700 49400 54200 73800 107000 117000 144000 193000
2020-06-06 15:00 18.86 102000 285000 (2019) 36900 (2006) 88700 39400 42700 49400 54200 73800 107000 117000 144000 193000
2020-06-06 14:00 18.85 102000 285000 (2019) 36900 (2006) 88700 39400 42700 49400 54200 73800 107000 117000 144000 193000
2020-06-06 13:00 18.89 102000 285000 (2019) 36900 (2006) 88700 39400 42700 49400 54200 73800 107000 117000 144000 193000
2020-06-06 12:00 18.91 102000 285000 (2019) 36900 (2006) 88700 39400 42700 49400 54200 73800 107000 117000 144000 193000
2020-06-06 11:00 18.92 102000 285000 (2019) 36900 (2006) 88700 39400 42700 49400 54200 73800 107000 117000 144000 193000
2020-06-06 10:00 18.97 103000 285000 (2019) 36900 (2006) 88700 39400 42700 49400 54200 73800 107000 117000 144000 193000
2020-06-06 09:00 18.99 103000 285000 (2019) 36900 (2006) 88700 39400 42700 49400 54200 73800 107000 117000 144000 193000
2020-06-06 08:00 19.03 103000 285000 (2019) 36900 (2006) 88700 39400 42700 49400 54200 73800 107000 117000 144000 193000
2020-06-06 07:00 19.05 103000 285000 (2019) 36900 (2006) 88700 39400 42700 49400 54200 73800 107000 117000 144000 193000
2020-06-06 06:00 19.11 104000 285000 (2019) 36900 (2006) 88700 39400 42700 49400 54200 73800 107000 117000 144000 193000
2020-06-06 05:00 19.18 105000 285000 (2019) 36900 (2006) 88700 39400 42700 49400 54200 73800 107000 117000 144000 193000
2020-06-06 04:00 19.19 105000 285000 (2019) 36900 (2006) 88700 39400 42700 49400 54200 73800 107000 117000 144000 193000
2020-06-06 03:00 19.25 105000 285000 (2019) 36900 (2006) 88700 39400 42700 49400 54200 73800 107000 117000 144000 193000
2020-06-06 02:00 19.28 105000 285000 (2019) 36900 (2006) 88700 39400 42700 49400 54200 73800 107000 117000 144000 193000
2020-06-06 01:00 19.33 106000 285000 (2019) 36900 (2006) 88700 39400 42700 49400 54200 73800 107000 117000 144000 193000
2020-06-06 00:00 19.34 106000 285000 (2019) 36900 (2006) 88700 39400 42700 49400 54200 73800 107000 117000 144000 193000
2020-06-05 23:00 19.39 106000 302000 (2019) 37300 (2006) 88400 40600 42200 49300 51500 78800 107000 121000 140000 189000
2020-06-05 22:00 19.42 107000 302000 (2019) 37300 (2006) 88400 40600 42200 49300 51500 78800 107000 121000 140000 189000
2020-06-05 21:00 19.38 106000 302000 (2019) 37300 (2006) 88400 40600 42200 49300 51500 78800 107000 121000 140000 189000
2020-06-05 20:00 19.42 107000 302000 (2019) 37300 (2006) 88400 40600 42200 49300 51500 78800 107000 121000 140000 189000
2020-06-05 19:00 19.44 107000 302000 (2019) 37300 (2006) 88400 40600 42200 49300 51500 78800 107000 121000 140000 189000
2020-06-05 18:00 19.48 107000 302000 (2019) 37300 (2006) 88400 40600 42200 49300 51500 78800 107000 121000 140000 189000
2020-06-05 17:00 19.50 107000 302000 (2019) 37300 (2006) 88400 40600 42200 49300 51500 78800 107000 121000 140000 189000
2020-06-05 16:00 19.45 107000 302000 (2019) 37300 (2006) 88400 40600 42200 49300 51500 78800 107000 121000 140000 189000
2020-06-05 15:00 19.52 108000 302000 (2019) 37300 (2006) 88400 40600 42200 49300 51500 78800 107000 121000 140000 189000
2020-06-05 14:00 19.53 108000 302000 (2019) 37300 (2006) 88400 40600 42200 49300 51500 78800 107000 121000 140000 189000
2020-06-05 13:00 19.51 107000 302000 (2019) 37300 (2006) 88400 40600 42200 49300 51500 78800 107000 121000 140000 189000
2020-06-05 12:00 19.52 108000 302000 (2019) 37300 (2006) 88400 40600 42200 49300 51500 78800 107000 121000 140000 189000
2020-06-05 11:00 19.54 108000 302000 (2019) 37300 (2006) 88400 40600 42200 49300 51500 78800 107000 121000 140000 189000
2020-06-05 10:00 19.50 107000 302000 (2019) 37300 (2006) 88400 40600 42200 49300 51500 78800 107000 121000 140000 189000
2020-06-05 09:00 19.56 108000 302000 (2019) 37300 (2006) 88400 40600 42200 49300 51500 78800 107000 121000 140000 189000
2020-06-05 08:00 19.62 108000 302000 (2019) 37300 (2006) 88400 40600 42200 49300 51500 78800 107000 121000 140000 189000
2020-06-05 07:00 19.64 109000 302000 (2019) 37300 (2006) 88400 40600 42200 49300 51500 78800 107000 121000 140000 189000
2020-06-05 06:00 19.63 109000 302000 (2019) 37300 (2006) 88400 40600 42200 49300 51500 78800 107000 121000 140000 189000
2020-06-05 05:00 19.59 108000 302000 (2019) 37300 (2006) 88400 40600 42200 49300 51500 78800 107000 121000 140000 189000
2020-06-05 04:00 19.69 109000 302000 (2019) 37300 (2006) 88400 40600 42200 49300 51500 78800 107000 121000 140000 189000
2020-06-05 03:00 19.73 109000 302000 (2019) 37300 (2006) 88400 40600 42200 49300 51500 78800 107000 121000 140000 189000
2020-06-05 02:00 19.78 110000 302000 (2019) 37300 (2006) 88400 40600 42200 49300 51500 78800 107000 121000 140000 189000
2020-06-05 01:00 19.80 110000 302000 (2019) 37300 (2006) 88400 40600 42200 49300 51500 78800 107000 121000 140000 189000
2020-06-05 00:00 19.83 110000 302000 (2019) 37300 (2006) 88400 40600 42200 49300 51500 78800 107000 121000 140000 189000
2020-06-04 23:00 19.81 110000 321000 (2019) 37800 (1963) 87400 39400 41900 49200 50800 77000 103000 110000 140000 191000
2020-06-04 22:00 19.86 111000 321000 (2019) 37800 (1963) 87400 39400 41900 49200 50800 77000 103000 110000 140000 191000
2020-06-04 21:00 19.84 110000 321000 (2019) 37800 (1963) 87400 39400 41900 49200 50800 77000 103000 110000 140000 191000
2020-06-04 20:00 19.89 111000 321000 (2019) 37800 (1963) 87400 39400 41900 49200 50800 77000 103000 110000 140000 191000
2020-06-04 19:00 19.90 111000 321000 (2019) 37800 (1963) 87400 39400 41900 49200 50800 77000 103000 110000 140000 191000
2020-06-04 18:00 19.86 111000 321000 (2019) 37800 (1963) 87400 39400 41900 49200 50800 77000 103000 110000 140000 191000
2020-06-04 17:00 19.85 111000 321000 (2019) 37800 (1963) 87400 39400 41900 49200 50800 77000 103000 110000 140000 191000
2020-06-04 16:00 19.83 110000 321000 (2019) 37800 (1963) 87400 39400 41900 49200 50800 77000 103000 110000 140000 191000
2020-06-04 15:00 19.77 110000 321000 (2019) 37800 (1963) 87400 39400 41900 49200 50800 77000 103000 110000 140000 191000
2020-06-04 14:00 19.73 109000 321000 (2019) 37800 (1963) 87400 39400 41900 49200 50800 77000 103000 110000 140000 191000
2020-06-04 13:00 19.67 109000 321000 (2019) 37800 (1963) 87400 39400 41900 49200 50800 77000 103000 110000 140000 191000
2020-06-04 12:00 19.62 108000 321000 (2019) 37800 (1963) 87400 39400 41900 49200 50800 77000 103000 110000 140000 191000
2020-06-04 11:00 19.53 108000 321000 (2019) 37800 (1963) 87400 39400 41900 49200 50800 77000 103000 110000 140000 191000
2020-06-04 10:00 19.43 107000 321000 (2019) 37800 (1963) 87400 39400 41900 49200 50800 77000 103000 110000 140000 191000
2020-06-04 09:00 19.34 106000 321000 (2019) 37800 (1963) 87400 39400 41900 49200 50800 77000 103000 110000 140000 191000
2020-06-04 08:00 19.25 105000 321000 (2019) 37800 (1963) 87400 39400 41900 49200 50800 77000 103000 110000 140000 191000
2020-06-04 07:00 19.13 104000 321000 (2019) 37800 (1963) 87400 39400 41900 49200 50800 77000 103000 110000 140000 191000
2020-06-04 06:00 18.96 103000 321000 (2019) 37800 (1963) 87400 39400 41900 49200 50800 77000 103000 110000 140000 191000
2020-06-04 05:00 18.97 103000 321000 (2019) 37800 (1963) 87400 39400 41900 49200 50800 77000 103000 110000 140000 191000
2020-06-04 04:00 18.87 102000 321000 (2019) 37800 (1963) 87400 39400 41900 49200 50800 77000 103000 110000 140000 191000
2020-06-04 03:00 18.71 100000 321000 (2019) 37800 (1963) 87400 39400 41900 49200 50800 77000 103000 110000 140000 191000
2020-06-04 02:00 18.69 100000 321000 (2019) 37800 (1963) 87400 39400 41900 49200 50800 77000 103000 110000 140000 191000
2020-06-04 01:00 18.67 100000 321000 (2019) 37800 (1963) 87400 39400 41900 49200 50800 77000 103000 110000 140000 191000
2020-06-04 00:00 18.81 101000 321000 (2019) 37800 (1963) 87400 39400 41900 49200 50800 77000 103000 110000 140000 191000
2020-06-03 23:00 18.83 101000 327000 (2019) 37500 (1963) 86800 40100 43000 48600 51900 72800 104000 113000 136000 175000
2020-06-03 22:00 18.86 102000 327000 (2019) 37500 (1963) 86800 40100 43000 48600 51900 72800 104000 113000 136000 175000
2020-06-03 21:00 18.92 102000 327000 (2019) 37500 (1963) 86800 40100 43000 48600 51900 72800 104000 113000 136000 175000
2020-06-03 20:00 18.95 102000 327000 (2019) 37500 (1963) 86800 40100 43000 48600 51900 72800 104000 113000 136000 175000
2020-06-03 19:00 18.97 103000 327000 (2019) 37500 (1963) 86800 40100 43000 48600 51900 72800 104000 113000 136000 175000
2020-06-03 18:00 19.00 103000 327000 (2019) 37500 (1963) 86800 40100 43000 48600 51900 72800 104000 113000 136000 175000
2020-06-03 17:00 19.04 103000 327000 (2019) 37500 (1963) 86800 40100 43000 48600 51900 72800 104000 113000 136000 175000
2020-06-03 16:00 19.06 103000 327000 (2019) 37500 (1963) 86800 40100 43000 48600 51900 72800 104000 113000 136000 175000
2020-06-03 15:00 19.09 104000 327000 (2019) 37500 (1963) 86800 40100 43000 48600 51900 72800 104000 113000 136000 175000
2020-06-03 14:00 19.11 107000 327000 (2019) 37500 (1963) 86800 40100 43000 48600 51900 72800 104000 113000 136000 175000
2020-06-03 13:00 19.18 108000 327000 (2019) 37500 (1963) 86800 40100 43000 48600 51900 72800 104000 113000 136000 175000
2020-06-03 12:00 19.22 108000 327000 (2019) 37500 (1963) 86800 40100 43000 48600 51900 72800 104000 113000 136000 175000
2020-06-03 11:00 19.24 109000 327000 (2019) 37500 (1963) 86800 40100 43000 48600 51900 72800 104000 113000 136000 175000
2020-06-03 10:00 19.24 109000 327000 (2019) 37500 (1963) 86800 40100 43000 48600 51900 72800 104000 113000 136000 175000
2020-06-03 09:00 19.29 109000 327000 (2019) 37500 (1963) 86800 40100 43000 48600 51900 72800 104000 113000 136000 175000
2020-06-03 08:00 19.30 109000 327000 (2019) 37500 (1963) 86800 40100 43000 48600 51900 72800 104000 113000 136000 175000
2020-06-03 07:00 19.35 110000 327000 (2019) 37500 (1963) 86800 40100 43000 48600 51900 72800 104000 113000 136000 175000
2020-06-03 06:00 19.39 110000 327000 (2019) 37500 (1963) 86800 40100 43000 48600 51900 72800 104000 113000 136000 175000
2020-06-03 05:00 19.42 110000 327000 (2019) 37500 (1963) 86800 40100 43000 48600 51900 72800 104000 113000 136000 175000
2020-06-03 04:00 19.47 111000 327000 (2019) 37500 (1963) 86800 40100 43000 48600 51900 72800 104000 113000 136000 175000
2020-06-03 03:00 19.50 111000 327000 (2019) 37500 (1963) 86800 40100 43000 48600 51900 72800 104000 113000 136000 175000
2020-06-03 02:00 19.52 111000 327000 (2019) 37500 (1963) 86800 40100 43000 48600 51900 72800 104000 113000 136000 175000
2020-06-03 01:00 19.54 111000 327000 (2019) 37500 (1963) 86800 40100 43000 48600 51900 72800 104000 113000 136000 175000
2020-06-03 00:00 19.56 112000 327000 (2019) 37500 (1963) 86800 40100 43000 48600 51900 72800 104000 113000 136000 175000
2020-06-02 23:00 19.60 112000 317000 (2019) 38100 (1966) 88000 40400 42600 49300 52900 76800 102000 113000 156000 180000
2020-06-02 22:00 19.61 112000 317000 (2019) 38100 (1966) 88000 40400 42600 49300 52900 76800 102000 113000 156000 180000
2020-06-02 21:00 19.64 112000 317000 (2019) 38100 (1966) 88000 40400 42600 49300 52900 76800 102000 113000 156000 180000
2020-06-02 20:00 19.68 113000 317000 (2019) 38100 (1966) 88000 40400 42600 49300 52900 76800 102000 113000 156000 180000
2020-06-02 19:00 19.69 113000 317000 (2019) 38100 (1966) 88000 40400 42600 49300 52900 76800 102000 113000 156000 180000
2020-06-02 18:00 19.71 113000 317000 (2019) 38100 (1966) 88000 40400 42600 49300 52900 76800 102000 113000 156000 180000
2020-06-02 17:00 19.76 113000 317000 (2019) 38100 (1966) 88000 40400 42600 49300 52900 76800 102000 113000 156000 180000
2020-06-02 16:00 19.79 114000 317000 (2019) 38100 (1966) 88000 40400 42600 49300 52900 76800 102000 113000 156000 180000
2020-06-02 15:00 19.83 114000 317000 (2019) 38100 (1966) 88000 40400 42600 49300 52900 76800 102000 113000 156000 180000
2020-06-02 14:00 19.85 114000 317000 (2019) 38100 (1966) 88000 40400 42600 49300 52900 76800 102000 113000 156000 180000
2020-06-02 13:00 19.87 115000 317000 (2019) 38100 (1966) 88000 40400 42600 49300 52900 76800 102000 113000 156000 180000
2020-06-02 12:00 19.80 114000 317000 (2019) 38100 (1966) 88000 40400 42600 49300 52900 76800 102000 113000 156000 180000
2020-06-02 11:00 19.97 115000 317000 (2019) 38100 (1966) 88000 40400 42600 49300 52900 76800 102000 113000 156000 180000
2020-06-02 10:00 19.96 115000 317000 (2019) 38100 (1966) 88000 40400 42600 49300 52900 76800 102000 113000 156000 180000
2020-06-02 09:00 2 116000 317000 (2019) 38100 (1966) 88000 40400 42600 49300 52900 76800 102000 113000 156000 180000
2020-06-02 08:00 20.03 116000 317000 (2019) 38100 (1966) 88000 40400 42600 49300 52900 76800 102000 113000 156000 180000
2020-06-02 07:00 20.02 116000 317000 (2019) 38100 (1966) 88000 40400 42600 49300 52900 76800 102000 113000 156000 180000
2020-06-02 06:00 20.06 116000 317000 (2019) 38100 (1966) 88000 40400 42600 49300 52900 76800 102000 113000 156000 180000
2020-06-02 05:00 20.09 117000 317000 (2019) 38100 (1966) 88000 40400 42600 49300 52900 76800 102000 113000 156000 180000
2020-06-02 04:00 20.12 117000 317000 (2019) 38100 (1966) 88000 40400 42600 49300 52900 76800 102000 113000 156000 180000
2020-06-02 03:00 20.17 117000 317000 (2019) 38100 (1966) 88000 40400 42600 49300 52900 76800 102000 113000 156000 180000
2020-06-02 02:00 20.26 118000 317000 (2019) 38100 (1966) 88000 40400 42600 49300 52900 76800 102000 113000 156000 180000
2020-06-02 01:00 20.31 119000 317000 (2019) 38100 (1966) 88000 40400 42600 49300 52900 76800 102000 113000 156000 180000
2020-06-02 00:00 20.36 119000 317000 (2019) 38100 (1966) 88000 40400 42600 49300 52900 76800 102000 113000 156000 180000
2020-06-01 23:00 20.38 119000 315000 (2019) 38100 (1966) 90300 40700 41800 49600 53600 77000 112000 120000 154000 202000
2020-06-01 22:00 20.41 120000 315000 (2019) 38100 (1966) 90300 40700 41800 49600 53600 77000 112000 120000 154000 202000
2020-06-01 21:00 20.41 120000 315000 (2019) 38100 (1966) 90300 40700 41800 49600 53600 77000 112000 120000 154000 202000
2020-06-01 20:00 20.48 120000 315000 (2019) 38100 (1966) 90300 40700 41800 49600 53600 77000 112000 120000 154000 202000
2020-06-01 19:00 20.55 121000 315000 (2019) 38100 (1966) 90300 40700 41800 49600 53600 77000 112000 120000 154000 202000
2020-06-01 18:00 20.60 122000 315000 (2019) 38100 (1966) 90300 40700 41800 49600 53600 77000 112000 120000 154000 202000
2020-06-01 17:00 20.67 122000 315000 (2019) 38100 (1966) 90300 40700 41800 49600 53600 77000 112000 120000 154000 202000
2020-06-01 16:00 20.73 123000 315000 (2019) 38100 (1966) 90300 40700 41800 49600 53600 77000 112000 120000 154000 202000
2020-06-01 15:00 20.79 123000 315000 (2019) 38100 (1966) 90300 40700 41800 49600 53600 77000 112000 120000 154000 202000
2020-06-01 14:00 20.81 124000 315000 (2019) 38100 (1966) 90300 40700 41800 49600 53600 77000 112000 120000 154000 202000
2020-06-01 13:00 20.88 124000 315000 (2019) 38100 (1966) 90300 40700 41800 49600 53600 77000 112000 120000 154000 202000
2020-06-01 12:00 21.00 126000 315000 (2019) 38100 (1966) 90300 40700 41800 49600 53600 77000 112000 120000 154000 202000
2020-06-01 11:00 21.06 126000 315000 (2019) 38100 (1966) 90300 40700 41800 49600 53600 77000 112000 120000 154000 202000
2020-06-01 10:00 21.16 127000 315000 (2019) 38100 (1966) 90300 40700 41800 49600 53600 77000 112000 120000 154000 202000
2020-06-01 09:00 21.21 128000 315000 (2019) 38100 (1966) 90300 40700 41800 49600 53600 77000 112000 120000 154000 202000
2020-06-01 08:00 21.24 128000 315000 (2019) 38100 (1966) 90300 40700 41800 49600 53600 77000 112000 120000 154000 202000
2020-06-01 07:00 21.32 129000 315000 (2019) 38100 (1966) 90300 40700 41800 49600 53600 77000 112000 120000 154000 202000
2020-06-01 06:00 21.36 129000 315000 (2019) 38100 (1966) 90300 40700 41800 49600 53600 77000 112000 120000 154000 202000
2020-06-01 05:00 21.48 131000 315000 (2019) 38100 (1966) 90300 40700 41800 49600 53600 77000 112000 120000 154000 202000
2020-06-01 04:00 21.54 131000 315000 (2019) 38100 (1966) 90300 40700 41800 49600 53600 77000 112000 120000 154000 202000
2020-06-01 03:00 21.62 132000 315000 (2019) 38100 (1966) 90300 40700 41800 49600 53600 77000 112000 120000 154000 202000
2020-06-01 02:00 21.76 133000 315000 (2019) 38100 (1966) 90300 40700 41800 49600 53600 77000 112000 120000 154000 202000
2020-06-01 01:00 21.83 134000 315000 (2019) 38100 (1966) 90300 40700 41800 49600 53600 77000 112000 120000 154000 202000
2020-06-01 00:00 21.86 135000 315000 (2019) 38100 (1966) 90300 40700 41800 49600 53600 77000 112000 120000 154000 202000
2020-05-31 23:00 21.93 135000 290000 (2019) 38600 (2006) 89700 39400 42900 50700 54100 72500 114000 118000 173000 193000
2020-05-31 22:00 22.03 136000 290000 (2019) 38600 (2006) 89700 39400 42900 50700 54100 72500 114000 118000 173000 193000
2020-05-31 21:00 22.10 137000 290000 (2019) 38600 (2006) 89700 39400 42900 50700 54100 72500 114000 118000 173000 193000
2020-05-31 20:00 22.15 138000 290000 (2019) 38600 (2006) 89700 39400 42900 50700 54100 72500 114000 118000 173000 193000
2020-05-31 19:00 22.15 138000 290000 (2019) 38600 (2006) 89700 39400 42900 50700 54100 72500 114000 118000 173000 193000
2020-05-31 18:00 22.22 138000 290000 (2019) 38600 (2006) 89700 39400 42900 50700 54100 72500 114000 118000 173000 193000
2020-05-31 17:00 22.25 139000 290000 (2019) 38600 (2006) 89700 39400 42900 50700 54100 72500 114000 118000 173000 193000
2020-05-31 16:00 22.33 140000 290000 (2019) 38600 (2006) 89700 39400 42900 50700 54100 72500 114000 118000 173000 193000
2020-05-31 15:00 22.38 140000 290000 (2019) 38600 (2006) 89700 39400 42900 50700 54100 72500 114000 118000 173000 193000
2020-05-31 14:00 22.43 141000 290000 (2019) 38600 (2006) 89700 39400 42900 50700 54100 72500 114000 118000 173000 193000
2020-05-31 13:00 22.46 141000 290000 (2019) 38600 (2006) 89700 39400 42900 50700 54100 72500 114000 118000 173000 193000
2020-05-31 12:00 22.51 142000 290000 (2019) 38600 (2006) 89700 39400 42900 50700 54100 72500 114000 118000 173000 193000
2020-05-31 11:00 22.55 142000 290000 (2019) 38600 (2006) 89700 39400 42900 50700 54100 72500 114000 118000 173000 193000
2020-05-31 10:00 22.69 144000 290000 (2019) 38600 (2006) 89700 39400 42900 50700 54100 72500 114000 118000 173000 193000
2020-05-31 09:00 22.73 144000 290000 (2019) 38600 (2006) 89700 39400 42900 50700 54100 72500 114000 118000 173000 193000
2020-05-31 08:00 22.81 145000 290000 (2019) 38600 (2006) 89700 39400 42900 50700 54100 72500 114000 118000 173000 193000
2020-05-31 07:00 22.88 146000 290000 (2019) 38600 (2006) 89700 39400 42900 50700 54100 72500 114000 118000 173000 193000
2020-05-31 06:00 23.00 147000 290000 (2019) 38600 (2006) 89700 39400 42900 50700 54100 72500 114000 118000 173000 193000
2020-05-31 05:00 23.09 148000 290000 (2019) 38600 (2006) 89700 39400 42900 50700 54100 72500 114000 118000 173000 193000
2020-05-31 04:00 23.24 150000 290000 (2019) 38600 (2006) 89700 39400 42900 50700 54100 72500 114000 118000 173000 193000
2020-05-31 03:00 23.33 151000 290000 (2019) 38600 (2006) 89700 39400 42900 50700 54100 72500 114000 118000 173000 193000
2020-05-31 02:00 23.39 151000 290000 (2019) 38600 (2006) 89700 39400 42900 50700 54100 72500 114000 118000 173000 193000
2020-05-31 01:00 23.47 152000 290000 (2019) 38600 (2006) 89700 39400 42900 50700 54100 72500 114000 118000 173000 193000
2020-05-31 00:00 23.55 153000 290000 (2019) 38600 (2006) 89700 39400 42900 50700 54100 72500 114000 118000 173000 193000
2020-05-30 23:00 23.61 154000 273000 (2019) 37400 (2006) 89100 39700 43400 49600 52600 72800 110000 119000 166000 235000
2020-05-30 22:00 23.68 155000 273000 (2019) 37400 (2006) 89100 39700 43400 49600 52600 72800 110000 119000 166000 235000
2020-05-30 21:00 23.84 157000 273000 (2019) 37400 (2006) 89100 39700 43400 49600 52600 72800 110000 119000 166000 235000
2020-05-30 20:00 24.03 159000 273000 (2019) 37400 (2006) 89100 39700 43400 49600 52600 72800 110000 119000 166000 235000
2020-05-30 19:00 24.16 160000 273000 (2019) 37400 (2006) 89100 39700 43400 49600 52600 72800 110000 119000 166000 235000
2020-05-30 18:00 24.20 161000 273000 (2019) 37400 (2006) 89100 39700 43400 49600 52600 72800 110000 119000 166000 235000
2020-05-30 17:00 24.23 161000 273000 (2019) 37400 (2006) 89100 39700 43400 49600 52600 72800 110000 119000 166000 235000
2020-05-30 16:00 24.39 163000 273000 (2019) 37400 (2006) 89100 39700 43400 49600 52600 72800 110000 119000 166000 235000
2020-05-30 15:00 24.43 164000 273000 (2019) 37400 (2006) 89100 39700 43400 49600 52600 72800 110000 119000 166000 235000
2020-05-30 14:00 24.60 166000 273000 (2019) 37400 (2006) 89100 39700 43400 49600 52600 72800 110000 119000 166000 235000
2020-05-30 13:00 24.64 166000 273000 (2019) 37400 (2006) 89100 39700 43400 49600 52600 72800 110000 119000 166000 235000
2020-05-30 12:00 24.79 168000 273000 (2019) 37400 (2006) 89100 39700 43400 49600 52600 72800 110000 119000 166000 235000
2020-05-30 11:00 24.89 169000 273000 (2019) 37400 (2006) 89100 39700 43400 49600 52600 72800 110000 119000 166000 235000
2020-05-30 10:00 25.04 171000 273000 (2019) 37400 (2006) 89100 39700 43400 49600 52600 72800 110000 119000 166000 235000
2020-05-30 09:00 25.18 173000 273000 (2019) 37400 (2006) 89100 39700 43400 49600 52600 72800 110000 119000 166000 235000
2020-05-30 08:00 25.24 174000 273000 (2019) 37400 (2006) 89100 39700 43400 49600 52600 72800 110000 119000 166000 235000
2020-05-30 07:00 25.35 175000 273000 (2019) 37400 (2006) 89100 39700 43400 49600 52600 72800 110000 119000 166000 235000
2020-05-30 06:00 25.60 178000 273000 (2019) 37400 (2006) 89100 39700 43400 49600 52600 72800 110000 119000 166000 235000
2020-05-30 05:00 25.74 180000 273000 (2019) 37400 (2006) 89100 39700 43400 49600 52600 72800 110000 119000 166000 235000
2020-05-30 04:00 25.93 183000 273000 (2019) 37400 (2006) 89100 39700 43400 49600 52600 72800 110000 119000 166000 235000
2020-05-30 03:00 26.05 184000 273000 (2019) 37400 (2006) 89100 39700 43400 49600 52600 72800 110000 119000 166000 235000
2020-05-30 02:00 26.14 185000 273000 (2019) 37400 (2006) 89100 39700 43400 49600 52600 72800 110000 119000 166000 235000
2020-05-30 01:00 26.21 186000 273000 (2019) 37400 (2006) 89100 39700 43400 49600 52600 72800 110000 119000 166000 235000
2020-05-30 00:00 26.23 187000 273000 (2019) 37400 (2006) 89100 39700 43400 49600 52600 72800 110000 119000 166000 235000
2020-05-29 23:00 26.30 188000 286000 (2016) 37800 (1967) 88600 39700 44400 49400 53400 70000 105000 119000 153000 243000
2020-05-29 22:00 26.48 190000 286000 (2016) 37800 (1967) 88600 39700 44400 49400 53400 70000 105000 119000 153000 243000
2020-05-29 21:00 26.67 193000 286000 (2016) 37800 (1967) 88600 39700 44400 49400 53400 70000 105000 119000 153000 243000
2020-05-29 20:00 26.84 195000 286000 (2016) 37800 (1967) 88600 39700 44400 49400 53400 70000 105000 119000 153000 243000
2020-05-29 19:00 26.97 197000 286000 (2016) 37800 (1967) 88600 39700 44400 49400 53400 70000 105000 119000 153000 243000
2020-05-29 18:00 26.96 196000 286000 (2016) 37800 (1967) 88600 39700 44400 49400 53400 70000 105000 119000 153000 243000
2020-05-29 17:00 26.87 195000 286000 (2016) 37800 (1967) 88600 39700 44400 49400 53400 70000 105000 119000 153000 243000
2020-05-29 16:00 26.97 197000 286000 (2016) 37800 (1967) 88600 39700 44400 49400 53400 70000 105000 119000 153000 243000
2020-05-29 15:00 27.00 197000 286000 (2016) 37800 (1967) 88600 39700 44400 49400 53400 70000 105000 119000 153000 243000
2020-05-29 14:00 27.02 197000 286000 (2016) 37800 (1967) 88600 39700 44400 49400 53400 70000 105000 119000 153000 243000
2020-05-29 13:00 27.04 198000 286000 (2016) 37800 (1967) 88600 39700 44400 49400 53400 70000 105000 119000 153000 243000
2020-05-29 12:00 27.04 198000 286000 (2016) 37800 (1967) 88600 39700 44400 49400 53400 70000 105000 119000 153000 243000
2020-05-29 11:00 27.06 198000 286000 (2016) 37800 (1967) 88600 39700 44400 49400 53400 70000 105000 119000 153000 243000
2020-05-29 10:00 27.12 199000 286000 (2016) 37800 (1967) 88600 39700 44400 49400 53400 70000 105000 119000 153000 243000
2020-05-29 09:00 27.11 199000 286000 (2016) 37800 (1967) 88600 39700 44400 49400 53400 70000 105000 119000 153000 243000
2020-05-29 08:00 27.00 197000 286000 (2016) 37800 (1967) 88600 39700 44400 49400 53400 70000 105000 119000 153000 243000
2020-05-29 07:00 26.87 195000 286000 (2016) 37800 (1967) 88600 39700 44400 49400 53400 70000 105000 119000 153000 243000
2020-05-29 06:00 26.77 194000 286000 (2016) 37800 (1967) 88600 39700 44400 49400 53400 70000 105000 119000 153000 243000
2020-05-29 05:00 26.66 192000 286000 (2016) 37800 (1967) 88600 39700 44400 49400 53400 70000 105000 119000 153000 243000
2020-05-29 04:00 26.57 191000 286000 (2016) 37800 (1967) 88600 39700 44400 49400 53400 70000 105000 119000 153000 243000
2020-05-29 03:00 26.41 189000 286000 (2016) 37800 (1967) 88600 39700 44400 49400 53400 70000 105000 119000 153000 243000
2020-05-29 02:00 26.33 188000 286000 (2016) 37800 (1967) 88600 39700 44400 49400 53400 70000 105000 119000 153000 243000
2020-05-29 01:00 26.24 187000 286000 (2016) 37800 (1967) 88600 39700 44400 49400 53400 70000 105000 119000 153000 243000
2020-05-29 00:00 26.38 189000 286000 (2016) 37800 (1967) 88600 39700 44400 49400 53400 70000 105000 119000 153000 243000
2020-05-28 23:00 26.34 188000 258000 (2019) 37200 (1967) 88700 39400 44600 51800 52600 70000 109000 121000 151000 228000
2020-05-28 22:00 26.22 186000 258000 (2019) 37200 (1967) 88700 39400 44600 51800 52600 70000 109000 121000 151000 228000
2020-05-28 21:00 25.99 183000 258000 (2019) 37200 (1967) 88700 39400 44600 51800 52600 70000 109000 121000 151000 228000
2020-05-28 20:00 25.78 181000 258000 (2019) 37200 (1967) 88700 39400 44600 51800 52600 70000 109000 121000 151000 228000
2020-05-28 19:00 25.52 177000 258000 (2019) 37200 (1967) 88700 39400 44600 51800 52600 70000 109000 121000 151000 228000
2020-05-28 18:00 25.44 176000 258000 (2019) 37200 (1967) 88700 39400 44600 51800 52600 70000 109000 121000 151000 228000
2020-05-28 17:00 25.36 175000 258000 (2019) 37200 (1967) 88700 39400 44600 51800 52600 70000 109000 121000 151000 228000
2020-05-28 16:00 25.23 174000 258000 (2019) 37200 (1967) 88700 39400 44600 51800 52600 70000 109000 121000 151000 228000
2020-05-28 15:00 25.17 173000 258000 (2019) 37200 (1967) 88700 39400 44600 51800 52600 70000 109000 121000 151000 228000
2020-05-28 14:00 25.25 174000 258000 (2019) 37200 (1967) 88700 39400 44600 51800 52600 70000 109000 121000 151000 228000
2020-05-28 13:00 25.14 172000 258000 (2019) 37200 (1967) 88700 39400 44600 51800 52600 70000 109000 121000 151000 228000
2020-05-28 12:00 25.07 172000 258000 (2019) 37200 (1967) 88700 39400 44600 51800 52600 70000 109000 121000 151000 228000
2020-05-28 11:00 24.93 170000 258000 (2019) 37200 (1967) 88700 39400 44600 51800 52600 70000 109000 121000 151000 228000
2020-05-28 10:00 24.82 168000 258000 (2019) 37200 (1967) 88700 39400 44600 51800 52600 70000 109000 121000 151000 228000
2020-05-28 09:00 24.69 167000 258000 (2019) 37200 (1967) 88700 39400 44600 51800 52600 70000 109000 121000 151000 228000
2020-05-28 08:00 24.74 168000 258000 (2019) 37200 (1967) 88700 39400 44600 51800 52600 70000 109000 121000 151000 228000
2020-05-28 07:00 24.66 167000 258000 (2019) 37200 (1967) 88700 39400 44600 51800 52600 70000 109000 121000 151000 228000
2020-05-28 06:00 24.60 166000 258000 (2019) 37200 (1967) 88700 39400 44600 51800 52600 70000 109000 121000 151000 228000
2020-05-28 05:00 24.48 164000 258000 (2019) 37200 (1967) 88700 39400 44600 51800 52600 70000 109000 121000 151000 228000
2020-05-28 04:00 24.37 163000 258000 (2019) 37200 (1967) 88700 39400 44600 51800 52600 70000 109000 121000 151000 228000
2020-05-28 03:00 24.21 161000 258000 (2019) 37200 (1967) 88700 39400 44600 51800 52600 70000 109000 121000 151000 228000
2020-05-28 02:00 24.21 161000 258000 (2019) 37200 (1967) 88700 39400 44600 51800 52600 70000 109000 121000 151000 228000
2020-05-28 01:00 24.15 160000 258000 (2019) 37200 (1967) 88700 39400 44600 51800 52600 70000 109000 121000 151000 228000
2020-05-28 00:00 24.18 161000 258000 (2019) 37200 (1967) 88700 39400 44600 51800 52600 70000 109000 121000 151000 228000
2020-05-27 23:00 24.18 161000 248000 (2019) 36700 (2006) 86500 39100 44500 51900 52700 71100 108000 118000 152000 187000
2020-05-27 22:00 24.06 159000 248000 (2019) 36700 (2006) 86500 39100 44500 51900 52700 71100 108000 118000 152000 187000
2020-05-27 21:00 23.89 157000 248000 (2019) 36700 (2006) 86500 39100 44500 51900 52700 71100 108000 118000 152000 187000
2020-05-27 20:00 23.80 156000 248000 (2019) 36700 (2006) 86500 39100 44500 51900 52700 71100 108000 118000 152000 187000
2020-05-27 19:00 23.62 154000 248000 (2019) 36700 (2006) 86500 39100 44500 51900 52700 71100 108000 118000 152000 187000
2020-05-27 18:00 23.50 153000 248000 (2019) 36700 (2006) 86500 39100 44500 51900 52700 71100 108000 118000 152000 187000
2020-05-27 17:00 23.52 153000 248000 (2019) 36700 (2006) 86500 39100 44500 51900 52700 71100 108000 118000 152000 187000
2020-05-27 16:00 23.54 153000 248000 (2019) 36700 (2006) 86500 39100 44500 51900 52700 71100 108000 118000 152000 187000
2020-05-27 15:00 23.51 153000 248000 (2019) 36700 (2006) 86500 39100 44500 51900 52700 71100 108000 118000 152000 187000
2020-05-27 14:00 23.36 151000 248000 (2019) 36700 (2006) 86500 39100 44500 51900 52700 71100 108000 118000 152000 187000
2020-05-27 13:00 23.23 150000 248000 (2019) 36700 (2006) 86500 39100 44500 51900 52700 71100 108000 118000 152000 187000
2020-05-27 12:00 22.99 147000 248000 (2019) 36700 (2006) 86500 39100 44500 51900 52700 71100 108000 118000 152000 187000
2020-05-27 11:00 22.81 145000 248000 (2019) 36700 (2006) 86500 39100 44500 51900 52700 71100 108000 118000 152000 187000
2020-05-27 10:00 22.63 143000 248000 (2019) 36700 (2006) 86500 39100 44500 51900 52700 71100 108000 118000 152000 187000
2020-05-27 09:00 22.36 140000 248000 (2019) 36700 (2006) 86500 39100 44500 51900 52700 71100 108000 118000 152000 187000
2020-05-27 08:00 22.24 139000 248000 (2019) 36700 (2006) 86500 39100 44500 51900 52700 71100 108000 118000 152000 187000
2020-05-27 07:00 21.99 136000 248000 (2019) 36700 (2006) 86500 39100 44500 51900 52700 71100 108000 118000 152000 187000
2020-05-27 06:00 21.92 135000 248000 (2019) 36700 (2006) 86500 39100 44500 51900 52700 71100 108000 118000 152000 187000
2020-05-27 05:00 21.68 133000 248000 (2019) 36700 (2006) 86500 39100 44500 51900 52700 71100 108000 118000 152000 187000
2020-05-27 04:00 21.63 132000 248000 (2019) 36700 (2006) 86500 39100 44500 51900 52700 71100 108000 118000 152000 187000
2020-05-27 03:00 21.57 131000 248000 (2019) 36700 (2006) 86500 39100 44500 51900 52700 71100 108000 118000 152000 187000
2020-05-27 02:00 21.43 130000 248000 (2019) 36700 (2006) 86500 39100 44500 51900 52700 71100 108000 118000 152000 187000
2020-05-27 01:00 21.31 129000 248000 (2019) 36700 (2006) 86500 39100 44500 51900 52700 71100 108000 118000 152000 187000
2020-05-27 00:00 21.12 127000 248000 (2019) 36700 (2006) 86500 39100 44500 51900 52700 71100 108000 118000 152000 187000
2020-05-26 23:00 20.96 125000 247000 (2019) 37500 (1967) 83700 40000 45800 51400 53000 70200 105000 114000 135000 164000
2020-05-26 22:00 20.76 123000 247000 (2019) 37500 (1967) 83700 40000 45800 51400 53000 70200 105000 114000 135000 164000
2020-05-26 21:00 20.56 121000 247000 (2019) 37500 (1967) 83700 40000 45800 51400 53000 70200 105000 114000 135000 164000
2020-05-26 20:00 20.43 120000 247000 (2019) 37500 (1967) 83700 40000 45800 51400 53000 70200 105000 114000 135000 164000
2020-05-26 19:00 20.24 118000 247000 (2019) 37500 (1967) 83700 40000 45800 51400 53000 70200 105000 114000 135000 164000
2020-05-26 18:00 20.14 117000 247000 (2019) 37500 (1967) 83700 40000 45800 51400 53000 70200 105000 114000 135000 164000
2020-05-26 17:00 19.98 116000 247000 (2019) 37500 (1967) 83700 40000 45800 51400 53000 70200 105000 114000 135000 164000
2020-05-26 15:00 19.73 113000 247000 (2019) 37500 (1967) 83700 40000 45800 51400 53000 70200 105000 114000 135000 164000
2020-05-26 14:00 19.57 112000 247000 (2019) 37500 (1967) 83700 40000 45800 51400 53000 70200 105000 114000 135000 164000
2020-05-26 13:00 19.55 112000 247000 (2019) 37500 (1967) 83700 40000 45800 51400 53000 70200 105000 114000 135000 164000
2020-05-26 12:00 19.36 110000 247000 (2019) 37500 (1967) 83700 40000 45800 51400 53000 70200 105000 114000 135000 164000
2020-05-26 11:00 19.24 109000 247000 (2019) 37500 (1967) 83700 40000 45800 51400 53000 70200 105000 114000 135000 164000
2020-05-26 10:00 19.15 108000 247000 (2019) 37500 (1967) 83700 40000 45800 51400 53000 70200 105000 114000 135000 164000
2020-05-26 09:00 18.92 106000 247000 (2019) 37500 (1967) 83700 40000 45800 51400 53000 70200 105000 114000 135000 164000
2020-05-26 08:00 18.78 105000 247000 (2019) 37500 (1967) 83700 40000 45800 51400 53000 70200 105000 114000 135000 164000
2020-05-26 07:00 18.78 105000 247000 (2019) 37500 (1967) 83700 40000 45800 51400 53000 70200 105000 114000 135000 164000
2020-05-26 06:00 18.76 104000 247000 (2019) 37500 (1967) 83700 40000 45800 51400 53000 70200 105000 114000 135000 164000
2020-05-26 05:00 18.72 104000 247000 (2019) 37500 (1967) 83700 40000 45800 51400 53000 70200 105000 114000 135000 164000
2020-05-26 04:00 18.75 104000 247000 (2019) 37500 (1967) 83700 40000 45800 51400 53000 70200 105000 114000 135000 164000
2020-05-26 03:00 18.67 104000 247000 (2019) 37500 (1967) 83700 40000 45800 51400 53000 70200 105000 114000 135000 164000
2020-05-26 02:00 18.62 103000 247000 (2019) 37500 (1967) 83700 40000 45800 51400 53000 70200 105000 114000 135000 164000
2020-05-26 01:00 18.65 103000 247000 (2019) 37500 (1967) 83700 40000 45800 51400 53000 70200 105000 114000 135000 164000
2020-05-26 00:00 18.59 103000 247000 (2019) 37500 (1967) 83700 40000 45800 51400 53000 70200 105000 114000 135000 164000
2020-05-25 23:00 18.49 102000 232000 (2019) 37500 (1964) 81500 39000 44600 48900 52300 71400 101000 106000 133000 154000
2020-05-25 22:00 18.46 102000 232000 (2019) 37500 (1964) 81500 39000 44600 48900 52300 71400 101000 106000 133000 154000
2020-05-25 21:00 18.42 101000 232000 (2019) 37500 (1964) 81500 39000 44600 48900 52300 71400 101000 106000 133000 154000
2020-05-25 20:00 18.36 101000 232000 (2019) 37500 (1964) 81500 39000 44600 48900 52300 71400 101000 106000 133000 154000
2020-05-25 19:00 18.31 100000 232000 (2019) 37500 (1964) 81500 39000 44600 48900 52300 71400 101000 106000 133000 154000
2020-05-25 18:00 18.27 100000 232000 (2019) 37500 (1964) 81500 39000 44600 48900 52300 71400 101000 106000 133000 154000
2020-05-25 17:00 18.20 99400 232000 (2019) 37500 (1964) 81500 39000 44600 48900 52300 71400 101000 106000 133000 154000
2020-05-25 16:00 18.00 97700 232000 (2019) 37500 (1964) 81500 39000 44600 48900 52300 71400 101000 106000 133000 154000
2020-05-25 15:00 17.96 97400 232000 (2019) 37500 (1964) 81500 39000 44600 48900 52300 71400 101000 106000 133000 154000
2020-05-25 14:00 17.91 97000 232000 (2019) 37500 (1964) 81500 39000 44600 48900 52300 71400 101000 106000 133000 154000
2020-05-25 13:00 17.90 96900 232000 (2019) 37500 (1964) 81500 39000 44600 48900 52300 71400 101000 106000 133000 154000
2020-05-25 12:00 17.80 96000 232000 (2019) 37500 (1964) 81500 39000 44600 48900 52300 71400 101000 106000 133000 154000
2020-05-25 11:00 17.70 95200 232000 (2019) 37500 (1964) 81500 39000 44600 48900 52300 71400 101000 106000 133000 154000
2020-05-25 10:00 17.65 94800 232000 (2019) 37500 (1964) 81500 39000 44600 48900 52300 71400 101000 106000 133000 154000
2020-05-25 09:00 17.56 94000 232000 (2019) 37500 (1964) 81500 39000 44600 48900 52300 71400 101000 106000 133000 154000
2020-05-25 08:00 17.53 93800 232000 (2019) 37500 (1964) 81500 39000 44600 48900 52300 71400 101000 106000 133000 154000
2020-05-25 07:00 17.48 93400 232000 (2019) 37500 (1964) 81500 39000 44600 48900 52300 71400 101000 106000 133000 154000
2020-05-25 06:00 17.43 93000 232000 (2019) 37500 (1964) 81500 39000 44600 48900 52300 71400 101000 106000 133000 154000
2020-05-25 05:00 17.28 91700 232000 (2019) 37500 (1964) 81500 39000 44600 48900 52300 71400 101000 106000 133000 154000
2020-05-25 04:00 17.20 91100 232000 (2019) 37500 (1964) 81500 39000 44600 48900 52300 71400 101000 106000 133000 154000
2020-05-25 03:00 17.09 90200 232000 (2019) 37500 (1964) 81500 39000 44600 48900 52300 71400 101000 106000 133000 154000
2020-05-25 02:00 17.00 89500 232000 (2019) 37500 (1964) 81500 39000 44600 48900 52300 71400 101000 106000 133000 154000
2020-05-25 01:00 16.94 89000 232000 (2019) 37500 (1964) 81500 39000 44600 48900 52300 71400 101000 106000 133000 154000
2020-05-25 00:00 16.85 88300 232000 (2019) 37500 (1964) 81500 39000 44600 48900 52300 71400 101000 106000 133000 154000
2020-05-24 23:00 16.78 87700 232000 (2019) 34000 (1964) 79800 39200 44300 47600 49600 70000 102000 109000 126000 150000
2020-05-24 22:00 16.60 86300 232000 (2019) 34000 (1964) 79800 39200 44300 47600 49600 70000 102000 109000 126000 150000
2020-05-24 21:00 16.63 86500 232000 (2019) 34000 (1964) 79800 39200 44300 47600 49600 70000 102000 109000 126000 150000
2020-05-24 20:00 16.52 85700 232000 (2019) 34000 (1964) 79800 39200 44300 47600 49600 70000 102000 109000 126000 150000
2020-05-24 19:00 16.48 85400 232000 (2019) 34000 (1964) 79800 39200 44300 47600 49600 70000 102000 109000 126000 150000
2020-05-24 18:00 16.38 84600 232000 (2019) 34000 (1964) 79800 39200 44300 47600 49600 70000 102000 109000 126000 150000
2020-05-24 17:00 16.40 84800 232000 (2019) 34000 (1964) 79800 39200 44300 47600 49600 70000 102000 109000 126000 150000
2020-05-24 16:00 16.33 84200 232000 (2019) 34000 (1964) 79800 39200 44300 47600 49600 70000 102000 109000 126000 150000
2020-05-24 15:00 16.30 84000 232000 (2019) 34000 (1964) 79800 39200 44300 47600 49600 70000 102000 109000 126000 150000
2020-05-24 14:00 16.28 83800 232000 (2019) 34000 (1964) 79800 39200 44300 47600 49600 70000 102000 109000 126000 150000
2020-05-24 13:00 16.22 83400 232000 (2019) 34000 (1964) 79800 39200 44300 47600 49600 70000 102000 109000 126000 150000
2020-05-24 12:00 16.16 82900 232000 (2019) 34000 (1964) 79800 39200 44300 47600 49600 70000 102000 109000 126000 150000
2020-05-24 11:00 16.10 82500 232000 (2019) 34000 (1964) 79800 39200 44300 47600 49600 70000 102000 109000 126000 150000
2020-05-24 10:00 16.05 82100 232000 (2019) 34000 (1964) 79800 39200 44300 47600 49600 70000 102000 109000 126000 150000
2020-05-24 09:00 16.05 82100 232000 (2019) 34000 (1964) 79800 39200 44300 47600 49600 70000 102000 109000 126000 150000
2020-05-24 08:00 16.02 81900 232000 (2019) 34000 (1964) 79800 39200 44300 47600 49600 70000 102000 109000 126000 150000
2020-05-24 07:00 16.00 81700 232000 (2019) 34000 (1964) 79800 39200 44300 47600 49600 70000 102000 109000 126000 150000
2020-05-24 06:00 16.04 82000 232000 (2019) 34000 (1964) 79800 39200 44300 47600 49600 70000 102000 109000 126000 150000
2020-05-24 05:00 16.01 81800 232000 (2019) 34000 (1964) 79800 39200 44300 47600 49600 70000 102000 109000 126000 150000
2020-05-24 04:00 15.99 81600 232000 (2019) 34000 (1964) 79800 39200 44300 47600 49600 70000 102000 109000 126000 150000
2020-05-24 03:00 15.96 81400 232000 (2019) 34000 (1964) 79800 39200 44300 47600 49600 70000 102000 109000 126000 150000
2020-05-24 02:00 15.95 81300 232000 (2019) 34000 (1964) 79800 39200 44300 47600 49600 70000 102000 109000 126000 150000
2020-05-24 01:00 15.95 81300 232000 (2019) 34000 (1964) 79800 39200 44300 47600 49600 70000 102000 109000 126000 150000
2020-05-24 00:00 15.95 81300 232000 (2019) 34000 (1964) 79800 39200 44300 47600 49600 70000 102000 109000 126000 150000
2020-05-23 23:00 15.96 81400 264000 (2019) 32100 (1964) 80400 40500 45300 47600 49500 65700 103000 116000 134000 164000
2020-05-23 22:00 15.98 81600 264000 (2019) 32100 (1964) 80400 40500 45300 47600 49500 65700 103000 116000 134000 164000
2020-05-23 21:00 15.95 81300 264000 (2019) 32100 (1964) 80400 40500 45300 47600 49500 65700 103000 116000 134000 164000
2020-05-23 20:00 15.97 81500 264000 (2019) 32100 (1964) 80400 40500 45300 47600 49500 65700 103000 116000 134000 164000
2020-05-23 19:00 15.95 81300 264000 (2019) 32100 (1964) 80400 40500 45300 47600 49500 65700 103000 116000 134000 164000
2020-05-23 18:00 15.97 81500 264000 (2019) 32100 (1964) 80400 40500 45300 47600 49500 65700 103000 116000 134000 164000
2020-05-23 17:00 15.96 81400 264000 (2019) 32100 (1964) 80400 40500 45300 47600 49500 65700 103000 116000 134000 164000
2020-05-23 16:00 15.97 81500 264000 (2019) 32100 (1964) 80400 40500 45300 47600 49500 65700 103000 116000 134000 164000
2020-05-23 15:00 15.96 81400 264000 (2019) 32100 (1964) 80400 40500 45300 47600 49500 65700 103000 116000 134000 164000
2020-05-23 14:00 15.86 80700 264000 (2019) 32100 (1964) 80400 40500 45300 47600 49500 65700 103000 116000 134000 164000
2020-05-23 13:00 15.82 80400 264000 (2019) 32100 (1964) 80400 40500 45300 47600 49500 65700 103000 116000 134000 164000
2020-05-23 12:00 15.95 81300 264000 (2019) 32100 (1964) 80400 40500 45300 47600 49500 65700 103000 116000 134000 164000
2020-05-23 11:00 15.93 81200 264000 (2019) 32100 (1964) 80400 40500 45300 47600 49500 65700 103000 116000 134000 164000
2020-05-23 10:00 15.87 80700 264000 (2019) 32100 (1964) 80400 40500 45300 47600 49500 65700 103000 116000 134000 164000
2020-05-23 09:00 15.91 81000 264000 (2019) 32100 (1964) 80400 40500 45300 47600 49500 65700 103000 116000 134000 164000
2020-05-23 08:00 15.94 81300 264000 (2019) 32100 (1964) 80400 40500 45300 47600 49500 65700 103000 116000 134000 164000
2020-05-23 07:00 15.94 81300 264000 (2019) 32100 (1964) 80400 40500 45300 47600 49500 65700 103000 116000 134000 164000
2020-05-23 06:00 15.88 80800 264000 (2019) 32100 (1964) 80400 40500 45300 47600 49500 65700 103000 116000 134000 164000
2020-05-23 05:00 15.93 81200 264000 (2019) 32100 (1964) 80400 40500 45300 47600 49500 65700 103000 116000 134000 164000
2020-05-23 04:00 15.90 81000 264000 (2019) 32100 (1964) 80400 40500 45300 47600 49500 65700 103000 116000 134000 164000
2020-05-23 03:00 15.89 80900 264000 (2019) 32100 (1964) 80400 40500 45300 47600 49500 65700 103000 116000 134000 164000
2020-05-23 02:00 15.88 80800 264000 (2019) 32100 (1964) 80400 40500 45300 47600 49500 65700 103000 116000 134000 164000
2020-05-23 01:00 15.86 80700 264000 (2019) 32100 (1964) 80400 40500 45300 47600 49500 65700 103000 116000 134000 164000
2020-05-23 00:00 15.87 80700 264000 (2019) 32100 (1964) 80400 40500 45300 47600 49500 65700 103000 116000 134000 164000
2020-05-22 23:00 15.85 80600 256000 (2019) 32600 (1964) 79800 42100 44200 46900 49500 67200 102000 112000 140000 166000
2020-05-22 22:00 15.93 81200 256000 (2019) 32600 (1964) 79800 42100 44200 46900 49500 67200 102000 112000 140000 166000
2020-05-22 21:00 15.87 80700 256000 (2019) 32600 (1964) 79800 42100 44200 46900 49500 67200 102000 112000 140000 166000
2020-05-22 20:00 15.89 80900 256000 (2019) 32600 (1964) 79800 42100 44200 46900 49500 67200 102000 112000 140000 166000
2020-05-22 19:00 15.86 80700 256000 (2019) 32600 (1964) 79800 42100 44200 46900 49500 67200 102000 112000 140000 166000
2020-05-22 18:00 15.90 81000 256000 (2019) 32600 (1964) 79800 42100 44200 46900 49500 67200 102000 112000 140000 166000
2020-05-22 17:00 15.82 80400 256000 (2019) 32600 (1964) 79800 42100 44200 46900 49500 67200 102000 112000 140000 166000
2020-05-22 16:00 15.83 80400 256000 (2019) 32600 (1964) 79800 42100 44200 46900 49500 67200 102000 112000 140000 166000
2020-05-22 15:00 15.74 79800 256000 (2019) 32600 (1964) 79800 42100 44200 46900 49500 67200 102000 112000 140000 166000
2020-05-22 14:00 15.86 80700 256000 (2019) 32600 (1964) 79800 42100 44200 46900 49500 67200 102000 112000 140000 166000
2020-05-22 13:00 15.95 81300 256000 (2019) 32600 (1964) 79800 42100 44200 46900 49500 67200 102000 112000 140000 166000
2020-05-22 12:00 15.99 81600 256000 (2019) 32600 (1964) 79800 42100 44200 46900 49500 67200 102000 112000 140000 166000
2020-05-22 11:00 15.97 81500 256000 (2019) 32600 (1964) 79800 42100 44200 46900 49500 67200 102000 112000 140000 166000
2020-05-22 10:00 15.94 81300 256000 (2019) 32600 (1964) 79800 42100 44200 46900 49500 67200 102000 112000 140000 166000
2020-05-22 09:00 15.93 81200 256000 (2019) 32600 (1964) 79800 42100 44200 46900 49500 67200 102000 112000 140000 166000
2020-05-22 08:00 16.03 81900 256000 (2019) 32600 (1964) 79800 42100 44200 46900 49500 67200 102000 112000 140000 166000
2020-05-22 07:00 16.08 82300 256000 (2019) 32600 (1964) 79800 42100 44200 46900 49500 67200 102000 112000 140000 166000
2020-05-22 06:00 16.05 82100 256000 (2019) 32600 (1964) 79800 42100 44200 46900 49500 67200 102000 112000 140000 166000
2020-05-22 05:00 16.02 81900 256000 (2019) 32600 (1964) 79800 42100 44200 46900 49500 67200 102000 112000 140000 166000
2020-05-22 04:00 16.14 82800 256000 (2019) 32600 (1964) 79800 42100 44200 46900 49500 67200 102000 112000 140000 166000
2020-05-22 03:00 16.14 82800 256000 (2019) 32600 (1964) 79800 42100 44200 46900 49500 67200 102000 112000 140000 166000
2020-05-22 02:00 16.17 83000 256000 (2019) 32600 (1964) 79800 42100 44200 46900 49500 67200 102000 112000 140000 166000
2020-05-22 01:00 16.17 83000 256000 (2019) 32600 (1964) 79800 42100 44200 46900 49500 67200 102000 112000 140000 166000
2020-05-22 00:00 16.22 83400 256000 (2019) 32600 (1964) 79800 42100 44200 46900 49500 67200 102000 112000 140000 166000
2020-05-21 23:00 16.22 83400 196000 (2019) 33700 (1964) 78300 40000 44100 47400 50600 68300 98100 110000 134000 164000
2020-05-21 22:00 16.22 83400 196000 (2019) 33700 (1964) 78300 40000 44100 47400 50600 68300 98100 110000 134000 164000
2020-05-21 21:00 16.24 83500 196000 (2019) 33700 (1964) 78300 40000 44100 47400 50600 68300 98100 110000 134000 164000
2020-05-21 20:00 16.17 83000 196000 (2019) 33700 (1964) 78300 40000 44100 47400 50600 68300 98100 110000 134000 164000
2020-05-21 19:00 16.16 82900 196000 (2019) 33700 (1964) 78300 40000 44100 47400 50600 68300 98100 110000 134000 164000
2020-05-21 18:00 16.14 82800 196000 (2019) 33700 (1964) 78300 40000 44100 47400 50600 68300 98100 110000 134000 164000
2020-05-21 17:00 16.22 83400 196000 (2019) 33700 (1964) 78300 40000 44100 47400 50600 68300 98100 110000 134000 164000
2020-05-21 16:00 16.20 83200 196000 (2019) 33700 (1964) 78300 40000 44100 47400 50600 68300 98100 110000 134000 164000
2020-05-21 15:00 16.16 82900 196000 (2019) 33700 (1964) 78300 40000 44100 47400 50600 68300 98100 110000 134000 164000
2020-05-21 14:00 16.24 83500 196000 (2019) 33700 (1964) 78300 40000 44100 47400 50600 68300 98100 110000 134000 164000
2020-05-21 13:00 16.33 84200 196000 (2019) 33700 (1964) 78300 40000 44100 47400 50600 68300 98100 110000 134000 164000
2020-05-21 12:00 16.31 84100 196000 (2019) 33700 (1964) 78300 40000 44100 47400 50600 68300 98100 110000 134000 164000
2020-05-21 11:00 16.33 84200 196000 (2019) 33700 (1964) 78300 40000 44100 47400 50600 68300 98100 110000 134000 164000
2020-05-21 10:00 16.25 83600 196000 (2019) 33700 (1964) 78300 40000 44100 47400 50600 68300 98100 110000 134000 164000
2020-05-21 09:00 16.30 84000 196000 (2019) 33700 (1964) 78300 40000 44100 47400 50600 68300 98100 110000 134000 164000
2020-05-21 08:00 16.30 84000 196000 (2019) 33700 (1964) 78300 40000 44100 47400 50600 68300 98100 110000 134000 164000
2020-05-21 07:00 16.36 84400 196000 (2019) 33700 (1964) 78300 40000 44100 47400 50600 68300 98100 110000 134000 164000
2020-05-21 06:00 16.38 84600 196000 (2019) 33700 (1964) 78300 40000 44100 47400 50600 68300 98100 110000 134000 164000
2020-05-21 05:00 16.38 84600 196000 (2019) 33700 (1964) 78300 40000 44100 47400 50600 68300 98100 110000 134000 164000
2020-05-21 04:00 16.36 84400 196000 (2019) 33700 (1964) 78300 40000 44100 47400 50600 68300 98100 110000 134000 164000
2020-05-21 03:00 16.40 84800 196000 (2019) 33700 (1964) 78300 40000 44100 47400 50600 68300 98100 110000 134000 164000
2020-05-21 02:00 16.42 84900 196000 (2019) 33700 (1964) 78300 40000 44100 47400 50600 68300 98100 110000 134000 164000
2020-05-21 01:00 16.43 85000 196000 (2019) 33700 (1964) 78300 40000 44100 47400 50600 68300 98100 110000 134000 164000
2020-05-21 00:00 16.37 84500 196000 (2019) 33700 (1964) 78300 40000 44100 47400 50600 68300 98100 110000 134000 164000
2020-05-20 23:00 16.43 85000 209000 (1995) 34000 (1964) 78800 41700 43500 47200 49700 69100 93600 105000 135000 164000
2020-05-20 22:00 16.40 84800 209000 (1995) 34000 (1964) 78800 41700 43500 47200 49700 69100 93600 105000 135000 164000
2020-05-20 21:00 16.53 85800 209000 (1995) 34000 (1964) 78800 41700 43500 47200 49700 69100 93600 105000 135000 164000
2020-05-20 20:00 16.53 85800 209000 (1995) 34000 (1964) 78800 41700 43500 47200 49700 69100 93600 105000 135000 164000
2020-05-20 19:00 16.49 85500 209000 (1995) 34000 (1964) 78800 41700 43500 47200 49700 69100 93600 105000 135000 164000
2020-05-20 18:00 16.57 86100 209000 (1995) 34000 (1964) 78800 41700 43500 47200 49700 69100 93600 105000 135000 164000
2020-05-20 17:00 16.48 85400 209000 (1995) 34000 (1964) 78800 41700 43500 47200 49700 69100 93600 105000 135000 164000
2020-05-20 16:00 16.51 85600 209000 (1995) 34000 (1964) 78800 41700 43500 47200 49700 69100 93600 105000 135000 164000
2020-05-20 15:00 16.61 86400 209000 (1995) 34000 (1964) 78800 41700 43500 47200 49700 69100 93600 105000 135000 164000
2020-05-20 14:00 16.63 86500 209000 (1995) 34000 (1964) 78800 41700 43500 47200 49700 69100 93600 105000 135000 164000
2020-05-20 13:00 16.52 85700 209000 (1995) 34000 (1964) 78800 41700 43500 47200 49700 69100 93600 105000 135000 164000
2020-05-20 12:00 16.57 86100 209000 (1995) 34000 (1964) 78800 41700 43500 47200 49700 69100 93600 105000 135000 164000
2020-05-20 11:00 16.59 86200 209000 (1995) 34000 (1964) 78800 41700 43500 47200 49700 69100 93600 105000 135000 164000
2020-05-20 10:00 16.62 86500 209000 (1995) 34000 (1964) 78800 41700 43500 47200 49700 69100 93600 105000 135000 164000
2020-05-20 09:00 16.65 86700 209000 (1995) 34000 (1964) 78800 41700 43500 47200 49700 69100 93600 105000 135000 164000
2020-05-20 08:00 16.67 86900 209000 (1995) 34000 (1964) 78800 41700 43500 47200 49700 69100 93600 105000 135000 164000
2020-05-20 07:00 16.68 86900 209000 (1995) 34000 (1964) 78800 41700 43500 47200 49700 69100 93600 105000 135000 164000
2020-05-20 06:00 16.68 86900 209000 (1995) 34000 (1964) 78800 41700 43500 47200 49700 69100 93600 105000 135000 164000
2020-05-20 05:00 16.69 87000 209000 (1995) 34000 (1964) 78800 41700 43500 47200 49700 69100 93600 105000 135000 164000
2020-05-20 04:00 16.68 86900 209000 (1995) 34000 (1964) 78800 41700 43500 47200 49700 69100 93600 105000 135000 164000
2020-05-20 03:00 16.66 86800 209000 (1995) 34000 (1964) 78800 41700 43500 47200 49700 69100 93600 105000 135000 164000
2020-05-20 02:00 16.65 86700 209000 (1995) 34000 (1964) 78800 41700 43500 47200 49700 69100 93600 105000 135000 164000
2020-05-20 01:00 16.62 86500 209000 (1995) 34000 (1964) 78800 41700 43500 47200 49700 69100 93600 105000 135000 164000
2020-05-20 00:00 16.68 86900 209000 (1995) 34000 (1964) 78800 41700 43500 47200 49700 69100 93600 105000 135000 164000
2020-05-19 23:00 16.65 86700 224000 (1974) 34300 (1964) 79400 37700 42500 47200 50700 68400 89900 99000 143000 174000
2020-05-19 22:00 16.59 86200 224000 (1974) 34300 (1964) 79400 37700 42500 47200 50700 68400 89900 99000 143000 174000
2020-05-19 21:00 16.61 86400 224000 (1974) 34300 (1964) 79400 37700 42500 47200 50700 68400 89900 99000 143000 174000
2020-05-19 20:00 16.61 86400 224000 (1974) 34300 (1964) 79400 37700 42500 47200 50700 68400 89900 99000 143000 174000
2020-05-19 19:00 16.58 86200 224000 (1974) 34300 (1964) 79400 37700 42500 47200 50700 68400 89900 99000 143000 174000
2020-05-19 18:00 16.66 86800 224000 (1974) 34300 (1964) 79400 37700 42500 47200 50700 68400 89900 99000 143000 174000
2020-05-19 17:00 16.60 86300 224000 (1974) 34300 (1964) 79400 37700 42500 47200 50700 68400 89900 99000 143000 174000
2020-05-19 16:00 16.61 86400 224000 (1974) 34300 (1964) 79400 37700 42500 47200 50700 68400 89900 99000 143000 174000
2020-05-19 15:00 16.67 86900 224000 (1974) 34300 (1964) 79400 37700 42500 47200 50700 68400 89900 99000 143000 174000
2020-05-19 14:00 16.69 87000 224000 (1974) 34300 (1964) 79400 37700 42500 47200 50700 68400 89900 99000 143000 174000
2020-05-19 13:00 16.64 86600 224000 (1974) 34300 (1964) 79400 37700 42500 47200 50700 68400 89900 99000 143000 174000
2020-05-19 12:00 16.69 87000 224000 (1974) 34300 (1964) 79400 37700 42500 47200 50700 68400 89900 99000 143000 174000
2020-05-19 11:00 16.68 86900 224000 (1974) 34300 (1964) 79400 37700 42500 47200 50700 68400 89900 99000 143000 174000
2020-05-19 10:00 16.70 87100 224000 (1974) 34300 (1964) 79400 37700 42500 47200 50700 68400 89900 99000 143000 174000
2020-05-19 09:00 16.73 87300 224000 (1974) 34300 (1964) 79400 37700 42500 47200 50700 68400 89900 99000 143000 174000
2020-05-19 08:00 16.70 87100 224000 (1974) 34300 (1964) 79400 37700 42500 47200 50700 68400 89900 99000 143000 174000
2020-05-19 07:00 16.73 87300 224000 (1974) 34300 (1964) 79400 37700 42500 47200 50700 68400 89900 99000 143000 174000
2020-05-19 06:00 16.72 87200 224000 (1974) 34300 (1964) 79400 37700 42500 47200 50700 68400 89900 99000 143000 174000
2020-05-19 05:00 16.72 87200 224000 (1974) 34300 (1964) 79400 37700 42500 47200 50700 68400 89900 99000 143000 174000
2020-05-19 04:00 16.74 87400 224000 (1974) 34300 (1964) 79400 37700 42500 47200 50700 68400 89900 99000 143000 174000
2020-05-19 03:00 16.76 87600 224000 (1974) 34300 (1964) 79400 37700 42500 47200 50700 68400 89900 99000 143000 174000
2020-05-19 02:00 16.77 87600 224000 (1974) 34300 (1964) 79400 37700 42500 47200 50700 68400 89900 99000 143000 174000
2020-05-19 01:00 16.79 87800 224000 (1974) 34300 (1964) 79400 37700 42500 47200 50700 68400 89900 99000 143000 174000
2020-05-19 00:00 16.80 87900 224000 (1974) 34300 (1964) 79400 37700 42500 47200 50700 68400 89900 99000 143000 174000
2020-05-18 23:00 16.84 88200 221000 (1995) 35400 (1964) 79800 37400 39900 45800 50100 68900 96900 107000 138000 178000
2020-05-18 22:00 16.85 88300 221000 (1995) 35400 (1964) 79800 37400 39900 45800 50100 68900 96900 107000 138000 178000
2020-05-18 21:00 16.85 88300 221000 (1995) 35400 (1964) 79800 37400 39900 45800 50100 68900 96900 107000 138000 178000
2020-05-18 20:00 16.85 88300 221000 (1995) 35400 (1964) 79800 37400 39900 45800 50100 68900 96900 107000 138000 178000
2020-05-18 19:00 16.92 88800 221000 (1995) 35400 (1964) 79800 37400 39900 45800 50100 68900 96900 107000 138000 178000
2020-05-18 18:00 16.92 88800 221000 (1995) 35400 (1964) 79800 37400 39900 45800 50100 68900 96900 107000 138000 178000
2020-05-18 17:00 16.96 89100 221000 (1995) 35400 (1964) 79800 37400 39900 45800 50100 68900 96900 107000 138000 178000
2020-05-18 16:00 16.99 89400 221000 (1995) 35400 (1964) 79800 37400 39900 45800 50100 68900 96900 107000 138000 178000
2020-05-18 15:00 17.04 89800 221000 (1995) 35400 (1964) 79800 37400 39900 45800 50100 68900 96900 107000 138000 178000
2020-05-18 14:00 17.03 89700 221000 (1995) 35400 (1964) 79800 37400 39900 45800 50100 68900 96900 107000 138000 178000
2020-05-18 13:00 17.19 91000 221000 (1995) 35400 (1964) 79800 37400 39900 45800 50100 68900 96900 107000 138000 178000
2020-05-18 12:00 17.11 90400 221000 (1995) 35400 (1964) 79800 37400 39900 45800 50100 68900 96900 107000 138000 178000
2020-05-18 11:00 17.26 91600 221000 (1995) 35400 (1964) 79800 37400 39900 45800 50100 68900 96900 107000 138000 178000
2020-05-18 10:00 17.30 91900 221000 (1995) 35400 (1964) 79800 37400 39900 45800 50100 68900 96900 107000 138000 178000
2020-05-18 09:00 17.32 92100 221000 (1995) 35400 (1964) 79800 37400 39900 45800 50100 68900 96900 107000 138000 178000
2020-05-18 07:00 17.46 93200 221000 (1995) 35400 (1964) 79800 37400 39900 45800 50100 68900 96900 107000 138000 178000
2020-05-18 06:00 17.51 93600 221000 (1995) 35400 (1964) 79800 37400 39900 45800 50100 68900 96900 107000 138000 178000
2020-05-18 05:00 17.56 94000 221000 (1995) 35400 (1964) 79800 37400 39900 45800 50100 68900 96900 107000 138000 178000
2020-05-18 04:00 17.60 94400 221000 (1995) 35400 (1964) 79800 37400 39900 45800 50100 68900 96900 107000 138000 178000
2020-05-18 03:00 17.66 94900 221000 (1995) 35400 (1964) 79800 37400 39900 45800 50100 68900 96900 107000 138000 178000
2020-05-18 02:00 17.69 95100 221000 (1995) 35400 (1964) 79800 37400 39900 45800 50100 68900 96900 107000 138000 178000
2020-05-18 01:00 17.79 95900 221000 (1995) 35400 (1964) 79800 37400 39900 45800 50100 68900 96900 107000 138000 178000
2020-05-18 00:00 17.84 96400 221000 (1995) 35400 (1964) 79800 37400 39900 45800 50100 68900 96900 107000 138000 178000
2020-05-17 23:00 17.87 96600 198000 (1995) 36500 (1989) 79100 38200 39900 44300 47100 72600 99800 113000 134000 152000
2020-05-17 22:00 18.00 97700 198000 (1995) 36500 (1989) 79100 38200 39900 44300 47100 72600 99800 113000 134000 152000
2020-05-17 21:00 18.04 98100 198000 (1995) 36500 (1989) 79100 38200 39900 44300 47100 72600 99800 113000 134000 152000
2020-05-17 20:00 18.06 98200 198000 (1995) 36500 (1989) 79100 38200 39900 44300 47100 72600 99800 113000 134000 152000
2020-05-17 19:00 18.09 98500 198000 (1995) 36500 (1989) 79100 38200 39900 44300 47100 72600 99800 113000 134000 152000
2020-05-17 18:00 18.07 98300 198000 (1995) 36500 (1989) 79100 38200 39900 44300 47100 72600 99800 113000 134000 152000
2020-05-17 17:00 18.15 99000 198000 (1995) 36500 (1989) 79100 38200 39900 44300 47100 72600 99800 113000 134000 152000
2020-05-17 16:00 18.08 98400 198000 (1995) 36500 (1989) 79100 38200 39900 44300 47100 72600 99800 113000 134000 152000
2020-05-17 15:00 18.17 99200 198000 (1995) 36500 (1989) 79100 38200 39900 44300 47100 72600 99800 113000 134000 152000
2020-05-17 14:00 18.15 99000 198000 (1995) 36500 (1989) 79100 38200 39900 44300 47100 72600 99800 113000 134000 152000
2020-05-17 13:00 18.19 99300 198000 (1995) 36500 (1989) 79100 38200 39900 44300 47100 72600 99800 113000 134000 152000
2020-05-17 12:00 18.16 99100 198000 (1995) 36500 (1989) 79100 38200 39900 44300 47100 72600 99800 113000 134000 152000
2020-05-17 11:00 18.14 98900 198000 (1995) 36500 (1989) 79100 38200 39900 44300 47100 72600 99800 113000 134000 152000
2020-05-17 10:00 18.11 98700 198000 (1995) 36500 (1989) 79100 38200 39900 44300 47100 72600 99800 113000 134000 152000
2020-05-17 09:00 18.07 98300 198000 (1995) 36500 (1989) 79100 38200 39900 44300 47100 72600 99800 113000 134000 152000
2020-05-17 08:00 18.03 98000 198000 (1995) 36500 (1989) 79100 38200 39900 44300 47100 72600 99800 113000 134000 152000
2020-05-17 07:00 18.03 98000 198000 (1995) 36500 (1989) 79100 38200 39900 44300 47100 72600 99800 113000 134000 152000
2020-05-17 06:00 17.93 97100 198000 (1995) 36500 (1989) 79100 38200 39900 44300 47100 72600 99800 113000 134000 152000
2020-05-17 05:00 17.85 96400 198000 (1995) 36500 (1989) 79100 38200 39900 44300 47100 72600 99800 113000 134000 152000
2020-05-17 04:00 17.74 95500 198000 (1995) 36500 (1989) 79100 38200 39900 44300 47100 72600 99800 113000 134000 152000
2020-05-17 03:00 17.68 95000 198000 (1995) 36500 (1989) 79100 38200 39900 44300 47100 72600 99800 113000 134000 152000
2020-05-17 02:00 17.62 94500 198000 (1995) 36500 (1989) 79100 38200 39900 44300 47100 72600 99800 113000 134000 152000
2020-05-17 01:00 17.58 94200 198000 (1995) 36500 (1989) 79100 38200 39900 44300 47100 72600 99800 113000 134000 152000
2020-05-17 00:00 17.52 93700 198000 (1995) 36500 (1989) 79100 38200 39900 44300 47100 72600 99800 113000 134000 152000
2020-05-16 23:00 17.46 93200 186000 (1995) 36800 (1989) 79600 38000 40600 44600 46900 71000 101000 110000 125000 166000
2020-05-16 22:00 17.35 92300 186000 (1995) 36800 (1989) 79600 38000 40600 44600 46900 71000 101000 110000 125000 166000
2020-05-16 21:00 17.25 91500 186000 (1995) 36800 (1989) 79600 38000 40600 44600 46900 71000 101000 110000 125000 166000
2020-05-16 20:00 17.18 90900 186000 (1995) 36800 (1989) 79600 38000 40600 44600 46900 71000 101000 110000 125000 166000
2020-05-16 19:00 17.07 90000 186000 (1995) 36800 (1989) 79600 38000 40600 44600 46900 71000 101000 110000 125000 166000
2020-05-16 18:00 17.06 89900 186000 (1995) 36800 (1989) 79600 38000 40600 44600 46900 71000 101000 110000 125000 166000
2020-05-16 17:00 17.02 89600 186000 (1995) 36800 (1989) 79600 38000 40600 44600 46900 71000 101000 110000 125000 166000
2020-05-16 16:00 16.97 89200 186000 (1995) 36800 (1989) 79600 38000 40600 44600 46900 71000 101000 110000 125000 166000
2020-05-16 15:00 17.02 89600 186000 (1995) 36800 (1989) 79600 38000 40600 44600 46900 71000 101000 110000 125000 166000
2020-05-16 14:00 16.95 89100 186000 (1995) 36800 (1989) 79600 38000 40600 44600 46900 71000 101000 110000 125000